<?xml version='1.0' encoding='UTF-8'?><gpx version="1.1" creator="JPX - https://github.com/jenetics/jpx" xmlns="http://www.topografix.com/GPX/1/1"><trk><trkseg><trkpt lat="40.7167902432114" lon="8.581995304012063"><ele>280.0</ele><time>2026-05-01T07:18:39.001Z</time></trkpt><trkpt lat="40.71682995410356" lon="8.581917369819864"><ele>280.0</ele><time>2026-05-01T07:18:46.001Z</time></trkpt><trkpt lat="40.71683580060301" lon="8.581820974067833"><ele>280.0</ele><time>2026-05-01T07:18:54.001Z</time></trkpt><trkpt lat="40.716822590163694" lon="8.581736801814221"><ele>280.0</ele><time>2026-05-01T07:19:04.001Z</time></trkpt><trkpt lat="40.71675321025779" lon="8.581715388534937"><ele>280.0</ele><time>2026-05-01T07:19:07.001Z</time></trkpt><trkpt lat="40.71666737503379" lon="8.581846868098598"><ele>280.0</ele><time>2026-05-01T07:19:09.001Z</time></trkpt><trkpt lat="40.71661464622588" lon="8.581914146287502"><ele>280.0</ele><time>2026-05-01T07:19:10.001Z</time></trkpt><trkpt lat="40.716500630984015" lon="8.581979970102802"><ele>280.0</ele><time>2026-05-01T07:19:12.001Z</time></trkpt><trkpt lat="40.716406059629634" lon="8.58199933693047"><ele>280.0</ele><time>2026-05-01T07:19:14.001Z</time></trkpt><trkpt lat="40.71638299548008" lon="8.582081630774326"><ele>280.0</ele><time>2026-05-01T07:19:15.001Z</time></trkpt><trkpt lat="40.71636658421535" lon="8.58219972901913"><ele>280.0</ele><time>2026-05-01T07:19:16.001Z</time></trkpt><trkpt lat="40.716345009952576" lon="8.582345129291769"><ele>281.25</ele><time>2026-05-01T07:19:17.001Z</time></trkpt><trkpt lat="40.7163090555873" lon="8.582513478169165"><ele>282.5</ele><time>2026-05-01T07:19:18.001Z</time></trkpt><trkpt lat="40.71627582468417" lon="8.58270812693173"><ele>283.75</ele><time>2026-05-01T07:19:19.001Z</time></trkpt><trkpt lat="40.716251335834954" lon="8.582880186998578"><ele>285.0</ele><time>2026-05-01T07:19:20.001Z</time></trkpt><trkpt lat="40.716227738546664" lon="8.58302895440495"><ele>285.6666666666667</ele><time>2026-05-01T07:19:21.001Z</time></trkpt><trkpt lat="40.716203284023" lon="8.583150655201974"><ele>286.3333333333333</ele><time>2026-05-01T07:19:22.001Z</time></trkpt><trkpt lat="40.7161824498632" lon="8.583251693845233"><ele>287.0</ele><time>2026-05-01T07:19:23.001Z</time></trkpt><trkpt lat="40.71617129487223" lon="8.583342539337051"><ele>287.66666666666663</ele><time>2026-05-01T07:19:24.001Z</time></trkpt><trkpt lat="40.716183499639484" lon="8.58344513184969"><ele>288.3333333333333</ele><time>2026-05-01T07:19:25.001Z</time></trkpt><trkpt lat="40.71617320720181" lon="8.583563118222019"><ele>289.0</ele><time>2026-05-01T07:19:26.001Z</time></trkpt><trkpt lat="40.716185763540835" lon="8.583664671527393"><ele>289.7142857142857</ele><time>2026-05-01T07:19:27.001Z</time></trkpt><trkpt lat="40.71619500102846" lon="8.58375989202956"><ele>290.42857142857144</ele><time>2026-05-01T07:19:28.001Z</time></trkpt><trkpt lat="40.716209966049334" lon="8.583852125585537"><ele>291.1428571428571</ele><time>2026-05-01T07:19:29.001Z</time></trkpt><trkpt lat="40.71622295164009" lon="8.58395156443258"><ele>291.8571428571429</ele><time>2026-05-01T07:19:30.001Z</time></trkpt><trkpt lat="40.71623023901374" lon="8.584038361612016"><ele>292.57142857142856</ele><time>2026-05-01T07:19:31.001Z</time></trkpt><trkpt lat="40.716254340393625" lon="8.584160763671184"><ele>293.2857142857143</ele><time>2026-05-01T07:19:33.001Z</time></trkpt><trkpt lat="40.716225970168594" lon="8.584235798302094"><ele>294.0</ele><time>2026-05-01T07:19:34.001Z</time></trkpt><trkpt lat="40.71613350873486" lon="8.584343544165584"><ele>294.5</ele><time>2026-05-01T07:19:36.001Z</time></trkpt><trkpt lat="40.71605483066678" lon="8.584358541749799"><ele>295.0</ele><time>2026-05-01T07:19:37.001Z</time></trkpt><trkpt lat="40.715978187108526" lon="8.584366454404323"><ele>295.5</ele><time>2026-05-01T07:19:38.001Z</time></trkpt><trkpt lat="40.71588379944363" lon="8.584320913912872"><ele>296.0</ele><time>2026-05-01T07:19:39.001Z</time></trkpt><trkpt lat="40.715793212623225" lon="8.584321551226333"><ele>296.5</ele><time>2026-05-01T07:19:40.001Z</time></trkpt><trkpt lat="40.71571960418552" lon="8.584293966002015"><ele>297.0</ele><time>2026-05-01T07:19:41Z</time></trkpt><trkpt lat="40.715628456461396" lon="8.584285507326088"><ele>297.0</ele><time>2026-05-01T07:19:42Z</time></trkpt><trkpt lat="40.715528612033104" lon="8.584282335708199"><ele>297.0</ele><time>2026-05-01T07:19:43Z</time></trkpt><trkpt lat="40.7154248013515" lon="8.584235496986539"><ele>297.0</ele><time>2026-05-01T07:19:44Z</time></trkpt><trkpt lat="40.71532718073624" lon="8.584217681845896"><ele>297.0</ele><time>2026-05-01T07:19:45Z</time></trkpt><trkpt lat="40.715223167199234" lon="8.584198360026578"><ele>297.0</ele><time>2026-05-01T07:19:46Z</time></trkpt><trkpt lat="40.7151236474952" lon="8.584179075221837"><ele>297.5</ele><time>2026-05-01T07:19:47Z</time></trkpt><trkpt lat="40.715018385975476" lon="8.584147137340016"><ele>298.0</ele><time>2026-05-01T07:19:48Z</time></trkpt><trkpt lat="40.71490199440086" lon="8.584122212623505"><ele>298.5</ele><time>2026-05-01T07:19:49Z</time></trkpt><trkpt lat="40.714782289590985" lon="8.584099356537948"><ele>299.0</ele><time>2026-05-01T07:19:50Z</time></trkpt><trkpt lat="40.71466945295132" lon="8.584076970547303"><ele>299.0</ele><time>2026-05-01T07:19:51Z</time></trkpt><trkpt lat="40.714565167466375" lon="8.584054998943735"><ele>299.0</ele><time>2026-05-01T07:19:52Z</time></trkpt><trkpt lat="40.71446635584652" lon="8.584032737951368"><ele>299.0</ele><time>2026-05-01T07:19:53Z</time></trkpt><trkpt lat="40.71437827880247" lon="8.584011806901703"><ele>299.0</ele><time>2026-05-01T07:19:54Z</time></trkpt><trkpt lat="40.71429985605518" lon="8.583991518125504"><ele>299.0</ele><time>2026-05-01T07:19:55Z</time></trkpt><trkpt lat="40.71423321010959" lon="8.583974625231454"><ele>299.0</ele><time>2026-05-01T07:19:56Z</time></trkpt><trkpt lat="40.714171180807476" lon="8.583955698012641"><ele>298.8</ele><time>2026-05-01T07:19:57Z</time></trkpt><trkpt lat="40.714075875118645" lon="8.58389011406872"><ele>298.59999999999997</ele><time>2026-05-01T07:19:59Z</time></trkpt><trkpt lat="40.71399315062853" lon="8.583815796688471"><ele>298.4</ele><time>2026-05-01T07:20:01Z</time></trkpt><trkpt lat="40.71389972462854" lon="8.583847471842512"><ele>298.2</ele><time>2026-05-01T07:20:03Z</time></trkpt><trkpt lat="40.71384136335489" lon="8.5839728365779"><ele>298.0</ele><time>2026-05-01T07:20:05Z</time></trkpt><trkpt lat="40.71387378971286" lon="8.584071090556199"><ele>298.0</ele><time>2026-05-01T07:20:06Z</time></trkpt><trkpt lat="40.713926836402244" lon="8.584176239868622"><ele>298.0</ele><time>2026-05-01T07:20:07Z</time></trkpt><trkpt lat="40.713913083411576" lon="8.584343225022415"><ele>298.0</ele><time>2026-05-01T07:20:08Z</time></trkpt><trkpt lat="40.71391779669067" lon="8.584498847007243"><ele>298.0</ele><time>2026-05-01T07:20:09Z</time></trkpt><trkpt lat="40.713920736895695" lon="8.58464986796825"><ele>299.5</ele><time>2026-05-01T07:20:10Z</time></trkpt><trkpt lat="40.71393487675486" lon="8.584818359117957"><ele>301.0</ele><time>2026-05-01T07:20:11Z</time></trkpt><trkpt lat="40.71394378126494" lon="8.584989378895974"><ele>302.5</ele><time>2026-05-01T07:20:12Z</time></trkpt><trkpt lat="40.713941424986444" lon="8.5851648861949"><ele>304.0</ele><time>2026-05-01T07:20:13Z</time></trkpt><trkpt lat="40.7139261908574" lon="8.58534003247297"><ele>305.25</ele><time>2026-05-01T07:20:14Z</time></trkpt><trkpt lat="40.713892817080165" lon="8.585520028647721"><ele>306.5</ele><time>2026-05-01T07:20:15Z</time></trkpt><trkpt lat="40.71385825944999" lon="8.585706013046487"><ele>307.75</ele><time>2026-05-01T07:20:16Z</time></trkpt><trkpt lat="40.713828821851656" lon="8.585896824078814"><ele>309.0</ele><time>2026-05-01T07:20:17Z</time></trkpt><trkpt lat="40.71379340252354" lon="8.586090395457173"><ele>310.25</ele><time>2026-05-01T07:20:18Z</time></trkpt><trkpt lat="40.71376481840224" lon="8.586292792206242"><ele>311.5</ele><time>2026-05-01T07:20:19Z</time></trkpt><trkpt lat="40.71374386097039" lon="8.58649365947402"><ele>312.75</ele><time>2026-05-01T07:20:20Z</time></trkpt><trkpt lat="40.71371518693473" lon="8.58667218472809"><ele>314.0</ele><time>2026-05-01T07:20:21Z</time></trkpt><trkpt lat="40.71368484990208" lon="8.586840058949186"><ele>314.0</ele><time>2026-05-01T07:20:22Z</time></trkpt><trkpt lat="40.71364566885398" lon="8.587002123999442"><ele>314.0</ele><time>2026-05-01T07:20:23Z</time></trkpt><trkpt lat="40.713605780921355" lon="8.587157257170515"><ele>314.0</ele><time>2026-05-01T07:20:24Z</time></trkpt><trkpt lat="40.71357406105115" lon="8.587320625099892"><ele>314.0</ele><time>2026-05-01T07:20:25Z</time></trkpt><trkpt lat="40.713546391604154" lon="8.587491608663777"><ele>314.0</ele><time>2026-05-01T07:20:26Z</time></trkpt><trkpt lat="40.71353155540867" lon="8.587697451645361"><ele>314.0</ele><time>2026-05-01T07:20:27Z</time></trkpt><trkpt lat="40.71351207033315" lon="8.587917308043977"><ele>314.0</ele><time>2026-05-01T07:20:28Z</time></trkpt><trkpt lat="40.71349284197303" lon="8.588130930459593"><ele>315.6666666666667</ele><time>2026-05-01T07:20:29Z</time></trkpt><trkpt lat="40.71347107568633" lon="8.588354546515573"><ele>317.3333333333333</ele><time>2026-05-01T07:20:30Z</time></trkpt><trkpt lat="40.713445996530126" lon="8.588572934323851"><ele>319.0</ele><time>2026-05-01T07:20:31Z</time></trkpt><trkpt lat="40.713427101281326" lon="8.588797185181269"><ele>320.66666666666663</ele><time>2026-05-01T07:20:32Z</time></trkpt><trkpt lat="40.71340408029855" lon="8.589028200820804"><ele>322.3333333333333</ele><time>2026-05-01T07:20:33Z</time></trkpt><trkpt lat="40.71338928497032" lon="8.589259855173143"><ele>324.0</ele><time>2026-05-01T07:20:34Z</time></trkpt><trkpt lat="40.71338113369585" lon="8.589496681954325"><ele>325.3333333333333</ele><time>2026-05-01T07:20:35Z</time></trkpt><trkpt lat="40.71337829396317" lon="8.589733562733796"><ele>326.66666666666663</ele><time>2026-05-01T07:20:36Z</time></trkpt><trkpt lat="40.71338335306022" lon="8.589967315894036"><ele>328.0</ele><time>2026-05-01T07:20:37Z</time></trkpt><trkpt lat="40.7133854569017" lon="8.59019245313304"><ele>330.0</ele><time>2026-05-01T07:20:38Z</time></trkpt><trkpt lat="40.71338441088229" lon="8.590419710196871"><ele>332.0</ele><time>2026-05-01T07:20:39Z</time></trkpt><trkpt lat="40.713381706971" lon="8.590613997157423"><ele>334.0</ele><time>2026-05-01T07:20:40Z</time></trkpt><trkpt lat="40.71338194821574" lon="8.590802894051256"><ele>334.0</ele><time>2026-05-01T07:20:41Z</time></trkpt><trkpt lat="40.713381184009535" lon="8.590969044624774"><ele>334.0</ele><time>2026-05-01T07:20:42Z</time></trkpt><trkpt lat="40.7133762253287" lon="8.591123551855114"><ele>334.0</ele><time>2026-05-01T07:20:43Z</time></trkpt><trkpt lat="40.71336907109176" lon="8.591244327357455"><ele>334.0</ele><time>2026-05-01T07:20:44Z</time></trkpt><trkpt lat="40.713348370547195" lon="8.591342448584884"><ele>334.0</ele><time>2026-05-01T07:20:45Z</time></trkpt><trkpt lat="40.71330749079611" lon="8.591406469943003"><ele>335.0</ele><time>2026-05-01T07:20:46Z</time></trkpt><trkpt lat="40.713234357826785" lon="8.591508067023886"><ele>336.0</ele><time>2026-05-01T07:20:48Z</time></trkpt><trkpt lat="40.713214980425235" lon="8.591649287356116"><ele>337.0</ele><time>2026-05-01T07:20:50.001Z</time></trkpt><trkpt lat="40.713249864546576" lon="8.591726555242563"><ele>338.0</ele><time>2026-05-01T07:20:51.001Z</time></trkpt><trkpt lat="40.71330428456148" lon="8.591787572937477"><ele>339.0</ele><time>2026-05-01T07:20:52.001Z</time></trkpt><trkpt lat="40.71339428578933" lon="8.591784834459029"><ele>340.0</ele><time>2026-05-01T07:20:53.001Z</time></trkpt><trkpt lat="40.7134773641904" lon="8.59172837150254"><ele>340.0</ele><time>2026-05-01T07:20:54.001Z</time></trkpt><trkpt lat="40.7135603287594" lon="8.59170648786427"><ele>340.0</ele><time>2026-05-01T07:20:55.001Z</time></trkpt><trkpt lat="40.71367691134544" lon="8.591812402255684"><ele>340.0</ele><time>2026-05-01T07:20:56.001Z</time></trkpt><trkpt lat="40.71378687297596" lon="8.591919610887365"><ele>340.0</ele><time>2026-05-01T07:20:57.001Z</time></trkpt><trkpt lat="40.71389663107535" lon="8.592043501916343"><ele>341.75</ele><time>2026-05-01T07:20:58.001Z</time></trkpt><trkpt lat="40.713997558465316" lon="8.592139692994"><ele>343.5</ele><time>2026-05-01T07:20:59.001Z</time></trkpt><trkpt lat="40.714103146106666" lon="8.592241255380598"><ele>345.25</ele><time>2026-05-01T07:21:00.001Z</time></trkpt><trkpt lat="40.71420310865701" lon="8.592357651092723"><ele>347.0</ele><time>2026-05-01T07:21:01.001Z</time></trkpt><trkpt lat="40.71429746286933" lon="8.592498265442533"><ele>347.0</ele><time>2026-05-01T07:21:02.001Z</time></trkpt><trkpt lat="40.714384162607686" lon="8.592653467247755"><ele>347.0</ele><time>2026-05-01T07:21:03.001Z</time></trkpt><trkpt lat="40.71446703951459" lon="8.592813510279312"><ele>347.0</ele><time>2026-05-01T07:21:04.001Z</time></trkpt><trkpt lat="40.71454087281127" lon="8.592973854750825"><ele>347.0</ele><time>2026-05-01T07:21:05.001Z</time></trkpt><trkpt lat="40.71462744493811" lon="8.593191591203425"><ele>349.33333333333337</ele><time>2026-05-01T07:21:06.001Z</time></trkpt><trkpt lat="40.71469537454554" lon="8.593381313097167"><ele>351.6666666666667</ele><time>2026-05-01T07:21:07.001Z</time></trkpt><trkpt lat="40.71475753225435" lon="8.593566869689154"><ele>354.0</ele><time>2026-05-01T07:21:08.001Z</time></trkpt><trkpt lat="40.714819476503436" lon="8.593753503745"><ele>355.75</ele><time>2026-05-01T07:21:09.001Z</time></trkpt><trkpt lat="40.71489064181155" lon="8.593919523523244"><ele>357.5</ele><time>2026-05-01T07:21:10.001Z</time></trkpt><trkpt lat="40.71494423149976" lon="8.594082792592001"><ele>359.25</ele><time>2026-05-01T07:21:11.001Z</time></trkpt><trkpt lat="40.715001793122035" lon="8.594234064556447"><ele>361.0</ele><time>2026-05-01T07:21:12.001Z</time></trkpt><trkpt lat="40.71506370064001" lon="8.594377089397636"><ele>361.25</ele><time>2026-05-01T07:21:13.001Z</time></trkpt><trkpt lat="40.71515157716758" lon="8.594521177352911"><ele>361.5</ele><time>2026-05-01T07:21:14.001Z</time></trkpt><trkpt lat="40.71524053074242" lon="8.594675873180257"><ele>361.75</ele><time>2026-05-01T07:21:15.001Z</time></trkpt><trkpt lat="40.71531682053906" lon="8.594839949774865"><ele>362.0</ele><time>2026-05-01T07:21:16.001Z</time></trkpt><trkpt lat="40.71536334655097" lon="8.595005034031654"><ele>363.0</ele><time>2026-05-01T07:21:17.001Z</time></trkpt><trkpt lat="40.71537544654911" lon="8.595179916284362"><ele>364.0</ele><time>2026-05-01T07:21:18.001Z</time></trkpt><trkpt lat="40.71537505872632" lon="8.595360627940403"><ele>365.0</ele><time>2026-05-01T07:21:19.001Z</time></trkpt><trkpt lat="40.71539093970905" lon="8.5955283426471"><ele>366.0</ele><time>2026-05-01T07:21:20.001Z</time></trkpt><trkpt lat="40.71543169391014" lon="8.595683032542082"><ele>366.0</ele><time>2026-05-01T07:21:21.001Z</time></trkpt><trkpt lat="40.71549855070491" lon="8.595827833732983"><ele>366.0</ele><time>2026-05-01T07:21:22.001Z</time></trkpt><trkpt lat="40.71558988846433" lon="8.59596435923514"><ele>366.0</ele><time>2026-05-01T07:21:23.001Z</time></trkpt><trkpt lat="40.71570207491904" lon="8.596091967822971"><ele>366.0</ele><time>2026-05-01T07:21:24.001Z</time></trkpt><trkpt lat="40.71583591833283" lon="8.596191319364637"><ele>366.3333333333333</ele><time>2026-05-01T07:21:25.001Z</time></trkpt><trkpt lat="40.71598013767325" lon="8.59626848217762"><ele>366.66666666666663</ele><time>2026-05-01T07:21:26.001Z</time></trkpt><trkpt lat="40.71613663630114" lon="8.59632468478014"><ele>367.0</ele><time>2026-05-01T07:21:27.001Z</time></trkpt><trkpt lat="40.716301715820116" lon="8.59637621853622"><ele>367.0</ele><time>2026-05-01T07:21:28.001Z</time></trkpt><trkpt lat="40.71647477851582" lon="8.596427865502093"><ele>367.0</ele><time>2026-05-01T07:21:29.001Z</time></trkpt><trkpt lat="40.71664368477026" lon="8.596470016615605"><ele>367.0</ele><time>2026-05-01T07:21:30.001Z</time></trkpt><trkpt lat="40.71681735398612" lon="8.59651149391267"><ele>368.0</ele><time>2026-05-01T07:21:31.001Z</time></trkpt><trkpt lat="40.71699915157638" lon="8.59655184403328"><ele>369.0</ele><time>2026-05-01T07:21:32.001Z</time></trkpt><trkpt lat="40.71717170097166" lon="8.596591719747986"><ele>370.0</ele><time>2026-05-01T07:21:33.001Z</time></trkpt><trkpt lat="40.717328444745526" lon="8.5966337789565"><ele>370.0</ele><time>2026-05-01T07:21:34.001Z</time></trkpt><trkpt lat="40.71747700220511" lon="8.596684198790928"><ele>370.0</ele><time>2026-05-01T07:21:35.001Z</time></trkpt><trkpt lat="40.71762406718238" lon="8.596752850552187"><ele>370.0</ele><time>2026-05-01T07:21:36.001Z</time></trkpt><trkpt lat="40.71777001496104" lon="8.59685290001277"><ele>370.3333333333333</ele><time>2026-05-01T07:21:37.001Z</time></trkpt><trkpt lat="40.71790541532951" lon="8.596966287293007"><ele>370.6666666666667</ele><time>2026-05-01T07:21:38.001Z</time></trkpt><trkpt lat="40.71804100082319" lon="8.597089780878484"><ele>371.0</ele><time>2026-05-01T07:21:39.001Z</time></trkpt><trkpt lat="40.71815826513907" lon="8.597215632274247"><ele>371.5</ele><time>2026-05-01T07:21:40.001Z</time></trkpt><trkpt lat="40.71826812652655" lon="8.597336860281079"><ele>372.0</ele><time>2026-05-01T07:21:41.001Z</time></trkpt><trkpt lat="40.71836190539688" lon="8.597465811594503"><ele>372.5</ele><time>2026-05-01T07:21:42.001Z</time></trkpt><trkpt lat="40.718445711788895" lon="8.597627373327049"><ele>373.0</ele><time>2026-05-01T07:21:43.001Z</time></trkpt><trkpt lat="40.71852516831103" lon="8.597813490542869"><ele>372.66666666666663</ele><time>2026-05-01T07:21:44.001Z</time></trkpt><trkpt lat="40.71860432532073" lon="8.597998968594"><ele>372.3333333333333</ele><time>2026-05-01T07:21:45.001Z</time></trkpt><trkpt lat="40.71867784821304" lon="8.598176173850337"><ele>372.0</ele><time>2026-05-01T07:21:46.001Z</time></trkpt><trkpt lat="40.71874590071605" lon="8.598344285258989"><ele>372.0</ele><time>2026-05-01T07:21:47Z</time></trkpt><trkpt lat="40.71880916562324" lon="8.598505902732393"><ele>372.0</ele><time>2026-05-01T07:21:48Z</time></trkpt><trkpt lat="40.718872080845166" lon="8.598655254928087"><ele>372.0</ele><time>2026-05-01T07:21:49Z</time></trkpt><trkpt lat="40.718939310790425" lon="8.598793488506455"><ele>372.0</ele><time>2026-05-01T07:21:50Z</time></trkpt><trkpt lat="40.719009413634346" lon="8.598921795348842"><ele>371.0</ele><time>2026-05-01T07:21:51Z</time></trkpt><trkpt lat="40.719082783332965" lon="8.599037291808921"><ele>370.0</ele><time>2026-05-01T07:21:52Z</time></trkpt><trkpt lat="40.71915975777079" lon="8.599142901064328"><ele>369.0</ele><time>2026-05-01T07:21:53Z</time></trkpt><trkpt lat="40.71924598788592" lon="8.599261208216797"><ele>368.0</ele><time>2026-05-01T07:21:54Z</time></trkpt><trkpt lat="40.71933382880009" lon="8.599389091815304"><ele>368.25</ele><time>2026-05-01T07:21:55Z</time></trkpt><trkpt lat="40.71942296827159" lon="8.59952453819091"><ele>368.5</ele><time>2026-05-01T07:21:56Z</time></trkpt><trkpt lat="40.719517395442175" lon="8.599661755304956"><ele>368.75</ele><time>2026-05-01T07:21:57Z</time></trkpt><trkpt lat="40.71961684293078" lon="8.599804560534155"><ele>369.0</ele><time>2026-05-01T07:21:58Z</time></trkpt><trkpt lat="40.71971946932565" lon="8.599945193344496"><ele>369.0</ele><time>2026-05-01T07:21:59Z</time></trkpt><trkpt lat="40.71982082625504" lon="8.600077621816345"><ele>369.0</ele><time>2026-05-01T07:22:00Z</time></trkpt><trkpt lat="40.719915093443966" lon="8.600207895601221"><ele>369.0</ele><time>2026-05-01T07:22:01Z</time></trkpt><trkpt lat="40.72000276585356" lon="8.600334657707474"><ele>369.0</ele><time>2026-05-01T07:22:02Z</time></trkpt><trkpt lat="40.720082454553946" lon="8.60046025866092"><ele>368.25</ele><time>2026-05-01T07:22:03Z</time></trkpt><trkpt lat="40.72015062851917" lon="8.600589842392354"><ele>367.5</ele><time>2026-05-01T07:22:04Z</time></trkpt><trkpt lat="40.72020386088844" lon="8.600725388712915"><ele>366.75</ele><time>2026-05-01T07:22:05Z</time></trkpt><trkpt lat="40.7202453718041" lon="8.600859254121875"><ele>366.0</ele><time>2026-05-01T07:22:06Z</time></trkpt><trkpt lat="40.720273979564894" lon="8.600993826567597"><ele>364.6</ele><time>2026-05-01T07:22:07Z</time></trkpt><trkpt lat="40.7203045560974" lon="8.601124896754825"><ele>363.20000000000005</ele><time>2026-05-01T07:22:08Z</time></trkpt><trkpt lat="40.72033616564458" lon="8.601258325614273"><ele>361.79999999999995</ele><time>2026-05-01T07:22:09Z</time></trkpt><trkpt lat="40.720370635504565" lon="8.601403701976672"><ele>360.4</ele><time>2026-05-01T07:22:10Z</time></trkpt><trkpt lat="40.72040668537126" lon="8.601547763959966"><ele>359.0</ele><time>2026-05-01T07:22:11Z</time></trkpt><trkpt lat="40.72045362361821" lon="8.601679689951068"><ele>358.5</ele><time>2026-05-01T07:22:12Z</time></trkpt><trkpt lat="40.72052364164939" lon="8.601805885082497"><ele>358.0</ele><time>2026-05-01T07:22:13Z</time></trkpt><trkpt lat="40.72061871192647" lon="8.601917560962788"><ele>357.5</ele><time>2026-05-01T07:22:14Z</time></trkpt><trkpt lat="40.720742322417884" lon="8.602012558084528"><ele>357.0</ele><time>2026-05-01T07:22:15Z</time></trkpt><trkpt lat="40.72086790513221" lon="8.602111808416428"><ele>357.0</ele><time>2026-05-01T07:22:16Z</time></trkpt><trkpt lat="40.72099167100876" lon="8.60221414020737"><ele>357.0</ele><time>2026-05-01T07:22:17Z</time></trkpt><trkpt lat="40.721110111133704" lon="8.60231564320507"><ele>357.0</ele><time>2026-05-01T07:22:18Z</time></trkpt><trkpt lat="40.72122552659438" lon="8.602413614078442"><ele>357.0</ele><time>2026-05-01T07:22:19Z</time></trkpt><trkpt lat="40.72134591298964" lon="8.602517853088631"><ele>356.0</ele><time>2026-05-01T07:22:20Z</time></trkpt><trkpt lat="40.72145857883446" lon="8.60261239523896"><ele>355.0</ele><time>2026-05-01T07:22:21Z</time></trkpt><trkpt lat="40.721564463486544" lon="8.602705576377199"><ele>354.0</ele><time>2026-05-01T07:22:22Z</time></trkpt><trkpt lat="40.72166253883874" lon="8.602793788973592"><ele>353.0</ele><time>2026-05-01T07:22:23Z</time></trkpt><trkpt lat="40.721749054790386" lon="8.602886528293492"><ele>352.79999999999995</ele><time>2026-05-01T07:22:24Z</time></trkpt><trkpt lat="40.721823799107476" lon="8.602984576830277"><ele>352.6</ele><time>2026-05-01T07:22:25Z</time></trkpt><trkpt lat="40.721888129392426" lon="8.60308815739443"><ele>352.4</ele><time>2026-05-01T07:22:26Z</time></trkpt><trkpt lat="40.72193646308828" lon="8.603197910095139"><ele>352.20000000000005</ele><time>2026-05-01T07:22:27Z</time></trkpt><trkpt lat="40.72197276186265" lon="8.603317879692742"><ele>352.0</ele><time>2026-05-01T07:22:28Z</time></trkpt><trkpt lat="40.721993680141054" lon="8.603444820442386"><ele>352.0</ele><time>2026-05-01T07:22:29Z</time></trkpt><trkpt lat="40.72199847300783" lon="8.603564504281389"><ele>352.0</ele><time>2026-05-01T07:22:30Z</time></trkpt><trkpt lat="40.722001814495464" lon="8.603681305101938"><ele>352.0</ele><time>2026-05-01T07:22:31Z</time></trkpt><trkpt lat="40.722002197352424" lon="8.603815901598972"><ele>352.0</ele><time>2026-05-01T07:22:32Z</time></trkpt><trkpt lat="40.72199126339049" lon="8.6039647217532"><ele>352.0</ele><time>2026-05-01T07:22:33Z</time></trkpt><trkpt lat="40.721949080183926" lon="8.604120015433429"><ele>352.0</ele><time>2026-05-01T07:22:34Z</time></trkpt><trkpt lat="40.721911658563805" lon="8.604292320930444"><ele>352.0</ele><time>2026-05-01T07:22:35Z</time></trkpt><trkpt lat="40.7218708277892" lon="8.604457242396716"><ele>352.0</ele><time>2026-05-01T07:22:36Z</time></trkpt><trkpt lat="40.72183911824931" lon="8.604645065019898"><ele>352.0</ele><time>2026-05-01T07:22:37Z</time></trkpt><trkpt lat="40.72178949932308" lon="8.604838392054905"><ele>351.3333333333333</ele><time>2026-05-01T07:22:38Z</time></trkpt><trkpt lat="40.721741098171876" lon="8.605038629829474"><ele>350.6666666666667</ele><time>2026-05-01T07:22:39Z</time></trkpt><trkpt lat="40.72169927870321" lon="8.605247852600156"><ele>350.0</ele><time>2026-05-01T07:22:40Z</time></trkpt><trkpt lat="40.721663243609555" lon="8.605467720857238"><ele>349.33333333333337</ele><time>2026-05-01T07:22:41Z</time></trkpt><trkpt lat="40.721635789968815" lon="8.60568969675631"><ele>348.6666666666667</ele><time>2026-05-01T07:22:42Z</time></trkpt><trkpt lat="40.72161323679249" lon="8.605889739621636"><ele>348.0</ele><time>2026-05-01T07:22:43Z</time></trkpt><trkpt lat="40.72159220417776" lon="8.606075591250523"><ele>348.5</ele><time>2026-05-01T07:22:44Z</time></trkpt><trkpt lat="40.72157923584613" lon="8.606242184369629"><ele>349.0</ele><time>2026-05-01T07:22:45Z</time></trkpt><trkpt lat="40.721580844013666" lon="8.606402000250414"><ele>349.5</ele><time>2026-05-01T07:22:46Z</time></trkpt><trkpt lat="40.72160893266639" lon="8.60656329020724"><ele>350.0</ele><time>2026-05-01T07:22:47Z</time></trkpt><trkpt lat="40.72165972379252" lon="8.606721594087121"><ele>350.0</ele><time>2026-05-01T07:22:48Z</time></trkpt><trkpt lat="40.721751778217495" lon="8.606868755504216"><ele>350.0</ele><time>2026-05-01T07:22:49Z</time></trkpt><trkpt lat="40.721868998986125" lon="8.60699678886046"><ele>350.0</ele><time>2026-05-01T07:22:50Z</time></trkpt><trkpt lat="40.72201383944006" lon="8.607106174820874"><ele>352.6666666666667</ele><time>2026-05-01T07:22:51Z</time></trkpt><trkpt lat="40.722171056705264" lon="8.607201547868558"><ele>355.3333333333333</ele><time>2026-05-01T07:22:52Z</time></trkpt><trkpt lat="40.72233162558021" lon="8.607298392030202"><ele>358.0</ele><time>2026-05-01T07:22:53Z</time></trkpt><trkpt lat="40.72250118679697" lon="8.607401026792681"><ele>358.0</ele><time>2026-05-01T07:22:54Z</time></trkpt><trkpt lat="40.72265471611181" lon="8.607493022776966"><ele>358.0</ele><time>2026-05-01T07:22:55Z</time></trkpt><trkpt lat="40.72279686078433" lon="8.607579769728272"><ele>358.0</ele><time>2026-05-01T07:22:56Z</time></trkpt><trkpt lat="40.722921800212355" lon="8.607678177404143"><ele>358.0</ele><time>2026-05-01T07:22:57Z</time></trkpt><trkpt lat="40.72302499098097" lon="8.607808573192937"><ele>358.0</ele><time>2026-05-01T07:22:58Z</time></trkpt><trkpt lat="40.723113358101614" lon="8.60795784355605"><ele>358.0</ele><time>2026-05-01T07:22:59Z</time></trkpt><trkpt lat="40.72317800057689" lon="8.608122468861726"><ele>358.0</ele><time>2026-05-01T07:23:00Z</time></trkpt><trkpt lat="40.723218965705115" lon="8.608288853608386"><ele>358.0</ele><time>2026-05-01T07:23:01Z</time></trkpt><trkpt lat="40.72323161156229" lon="8.608476781617165"><ele>358.0</ele><time>2026-05-01T07:23:02Z</time></trkpt><trkpt lat="40.72319944818222" lon="8.608652057157624"><ele>358.0</ele><time>2026-05-01T07:23:03Z</time></trkpt><trkpt lat="40.72315840438513" lon="8.60879791352902"><ele>358.0</ele><time>2026-05-01T07:23:04Z</time></trkpt><trkpt lat="40.72309070879071" lon="8.608930829591174"><ele>356.66666666666663</ele><time>2026-05-01T07:23:05Z</time></trkpt><trkpt lat="40.723001251141504" lon="8.609073673234562"><ele>355.3333333333333</ele><time>2026-05-01T07:23:06Z</time></trkpt><trkpt lat="40.722897710086194" lon="8.609225849505636"><ele>354.0</ele><time>2026-05-01T07:23:07Z</time></trkpt><trkpt lat="40.72278803822397" lon="8.609385967637246"><ele>356.3333333333333</ele><time>2026-05-01T07:23:08Z</time></trkpt><trkpt lat="40.722689526902215" lon="8.609559804046695"><ele>358.66666666666663</ele><time>2026-05-01T07:23:09Z</time></trkpt><trkpt lat="40.722584674426656" lon="8.609720107880278"><ele>361.0</ele><time>2026-05-01T07:23:10Z</time></trkpt><trkpt lat="40.72249598264884" lon="8.609891427305994"><ele>361.0</ele><time>2026-05-01T07:23:11Z</time></trkpt><trkpt lat="40.72242515889085" lon="8.610084881465767"><ele>361.0</ele><time>2026-05-01T07:23:12Z</time></trkpt><trkpt lat="40.72236937748234" lon="8.610306913561024"><ele>361.0</ele><time>2026-05-01T07:23:13Z</time></trkpt><trkpt lat="40.72232198331737" lon="8.61054963804677"><ele>360.66666666666663</ele><time>2026-05-01T07:23:14Z</time></trkpt><trkpt lat="40.72227518927509" lon="8.610776604870088"><ele>360.3333333333333</ele><time>2026-05-01T07:23:15Z</time></trkpt><trkpt lat="40.72222913787599" lon="8.611012865358523"><ele>360.0</ele><time>2026-05-01T07:23:16Z</time></trkpt><trkpt lat="40.72217995062288" lon="8.611256348685357"><ele>359.3333333333333</ele><time>2026-05-01T07:23:17Z</time></trkpt><trkpt lat="40.72212807174039" lon="8.611504929565902"><ele>358.66666666666663</ele><time>2026-05-01T07:23:18Z</time></trkpt><trkpt lat="40.72207372200651" lon="8.611753628129241"><ele>358.0</ele><time>2026-05-01T07:23:19Z</time></trkpt><trkpt lat="40.72202091139497" lon="8.61199704069983"><ele>357.0</ele><time>2026-05-01T07:23:20Z</time></trkpt><trkpt lat="40.7219732732086" lon="8.612221495766308"><ele>356.0</ele><time>2026-05-01T07:23:21Z</time></trkpt><trkpt lat="40.72192700076248" lon="8.612431135579476"><ele>355.0</ele><time>2026-05-01T07:23:22Z</time></trkpt><trkpt lat="40.72188419356527" lon="8.612629056243104"><ele>356.0</ele><time>2026-05-01T07:23:23Z</time></trkpt><trkpt lat="40.72184883112987" lon="8.612810346461693"><ele>357.0</ele><time>2026-05-01T07:23:24Z</time></trkpt><trkpt lat="40.72183257083624" lon="8.612981629368175"><ele>358.0</ele><time>2026-05-01T07:23:25.001Z</time></trkpt><trkpt lat="40.72185155501778" lon="8.613140907919123"><ele>359.0</ele><time>2026-05-01T07:23:26.001Z</time></trkpt><trkpt lat="40.72191074276417" lon="8.613293943455615"><ele>359.0</ele><time>2026-05-01T07:23:27.001Z</time></trkpt><trkpt lat="40.72200835102335" lon="8.613426072731393"><ele>359.0</ele><time>2026-05-01T07:23:28.001Z</time></trkpt><trkpt lat="40.72213143926144" lon="8.613538148837613"><ele>359.0</ele><time>2026-05-01T07:23:29.001Z</time></trkpt><trkpt lat="40.722262334085904" lon="8.613646949338532"><ele>359.0</ele><time>2026-05-01T07:23:30.001Z</time></trkpt><trkpt lat="40.722393475268866" lon="8.613759868799363"><ele>360.0</ele><time>2026-05-01T07:23:31.001Z</time></trkpt><trkpt lat="40.72251762291901" lon="8.613881289016847"><ele>361.0</ele><time>2026-05-01T07:23:32.001Z</time></trkpt><trkpt lat="40.72263509748093" lon="8.614020606771573"><ele>362.0</ele><time>2026-05-01T07:23:33.001Z</time></trkpt><trkpt lat="40.722737923277926" lon="8.614190289283341"><ele>362.0</ele><time>2026-05-01T07:23:34.001Z</time></trkpt><trkpt lat="40.72282623550573" lon="8.614391420564637"><ele>362.0</ele><time>2026-05-01T07:23:35.001Z</time></trkpt><trkpt lat="40.722912998578224" lon="8.6146059666282"><ele>362.0</ele><time>2026-05-01T07:23:36.001Z</time></trkpt><trkpt lat="40.722999751286146" lon="8.614820705074493"><ele>364.0</ele><time>2026-05-01T07:23:37.001Z</time></trkpt><trkpt lat="40.72308906912908" lon="8.615042206380808"><ele>366.0</ele><time>2026-05-01T07:23:38.001Z</time></trkpt><trkpt lat="40.723181440452066" lon="8.615266895729631"><ele>368.0</ele><time>2026-05-01T07:23:39.001Z</time></trkpt><trkpt lat="40.723277367588615" lon="8.615494397119683"><ele>370.33333333333337</ele><time>2026-05-01T07:23:40.001Z</time></trkpt><trkpt lat="40.72337526905211" lon="8.61572683960918"><ele>372.6666666666667</ele><time>2026-05-01T07:23:41.001Z</time></trkpt><trkpt lat="40.72347300065791" lon="8.615965734380245"><ele>375.0</ele><time>2026-05-01T07:23:42.001Z</time></trkpt><trkpt lat="40.72357168343214" lon="8.616206449338991"><ele>375.0</ele><time>2026-05-01T07:23:43.001Z</time></trkpt><trkpt lat="40.72367077157567" lon="8.61644449502619"><ele>375.0</ele><time>2026-05-01T07:23:44.001Z</time></trkpt><trkpt lat="40.72376671770932" lon="8.616678008416823"><ele>375.0</ele><time>2026-05-01T07:23:45.001Z</time></trkpt><trkpt lat="40.72385741987893" lon="8.616900588544976"><ele>377.3333333333333</ele><time>2026-05-01T07:23:46.001Z</time></trkpt><trkpt lat="40.7239430269241" lon="8.617107161026526"><ele>379.66666666666663</ele><time>2026-05-01T07:23:47.001Z</time></trkpt><trkpt lat="40.72402529308733" lon="8.617299797965225"><ele>382.0</ele><time>2026-05-01T07:23:48.001Z</time></trkpt><trkpt lat="40.72410278386637" lon="8.617484169243168"><ele>382.0</ele><time>2026-05-01T07:23:49.001Z</time></trkpt><trkpt lat="40.72417406969035" lon="8.617659479574836"><ele>382.0</ele><time>2026-05-01T07:23:50.001Z</time></trkpt><trkpt lat="40.72423748647874" lon="8.61782836015863"><ele>382.0</ele><time>2026-05-01T07:23:51.001Z</time></trkpt><trkpt lat="40.72428251325569" lon="8.618005790780504"><ele>382.0</ele><time>2026-05-01T07:23:52.001Z</time></trkpt><trkpt lat="40.72430834311507" lon="8.61818963943129"><ele>382.20000000000005</ele><time>2026-05-01T07:23:53Z</time></trkpt><trkpt lat="40.72430783918102" lon="8.618354213427489"><ele>382.4</ele><time>2026-05-01T07:23:54Z</time></trkpt><trkpt lat="40.72429251154739" lon="8.61850328164633"><ele>382.6</ele><time>2026-05-01T07:23:55Z</time></trkpt><trkpt lat="40.72426274594911" lon="8.618640511355025"><ele>382.79999999999995</ele><time>2026-05-01T07:23:56Z</time></trkpt><trkpt lat="40.72421731612436" lon="8.618760771084256"><ele>383.0</ele><time>2026-05-01T07:23:57Z</time></trkpt><trkpt lat="40.724160130424984" lon="8.61886861999361"><ele>383.0</ele><time>2026-05-01T07:23:58Z</time></trkpt><trkpt lat="40.72407846443496" lon="8.618939098223894"><ele>383.0</ele><time>2026-05-01T07:23:59Z</time></trkpt><trkpt lat="40.724005033815544" lon="8.61900294818309"><ele>383.0</ele><time>2026-05-01T07:24:00Z</time></trkpt><trkpt lat="40.72392578898539" lon="8.619041250643138"><ele>383.0</ele><time>2026-05-01T07:24:01Z</time></trkpt><trkpt lat="40.723836520479786" lon="8.61906258286042"><ele>383.0</ele><time>2026-05-01T07:24:02Z</time></trkpt><trkpt lat="40.723731898455036" lon="8.61907259278302"><ele>383.0</ele><time>2026-05-01T07:24:03Z</time></trkpt><trkpt lat="40.723621925369194" lon="8.619082691428073"><ele>383.0</ele><time>2026-05-01T07:24:04Z</time></trkpt><trkpt lat="40.72352286313815" lon="8.619098650731946"><ele>383.0</ele><time>2026-05-01T07:24:05Z</time></trkpt><trkpt lat="40.723427774318154" lon="8.6191463637812"><ele>383.0</ele><time>2026-05-01T07:24:06Z</time></trkpt><trkpt lat="40.723344641242164" lon="8.619235716442368"><ele>383.0</ele><time>2026-05-01T07:24:07Z</time></trkpt><trkpt lat="40.72330127778842" lon="8.61936798889596"><ele>382.5</ele><time>2026-05-01T07:24:08Z</time></trkpt><trkpt lat="40.723284830776294" lon="8.61951064517027"><ele>382.0</ele><time>2026-05-01T07:24:09Z</time></trkpt><trkpt lat="40.72330610494236" lon="8.619672578072809"><ele>381.5</ele><time>2026-05-01T07:24:10Z</time></trkpt><trkpt lat="40.7233496992554" lon="8.6198513420522"><ele>381.0</ele><time>2026-05-01T07:24:11Z</time></trkpt><trkpt lat="40.72339633507651" lon="8.620047998555124"><ele>381.0</ele><time>2026-05-01T07:24:12Z</time></trkpt><trkpt lat="40.72344931164966" lon="8.620251270318843"><ele>381.0</ele><time>2026-05-01T07:24:13Z</time></trkpt><trkpt lat="40.723499632085876" lon="8.620453586473577"><ele>381.0</ele><time>2026-05-01T07:24:14Z</time></trkpt><trkpt lat="40.723552924163414" lon="8.620651981671273"><ele>379.75</ele><time>2026-05-01T07:24:15Z</time></trkpt><trkpt lat="40.72360150388986" lon="8.620837247722989"><ele>378.5</ele><time>2026-05-01T07:24:16Z</time></trkpt><trkpt lat="40.723645128593475" lon="8.62101215465924"><ele>377.25</ele><time>2026-05-01T07:24:17Z</time></trkpt><trkpt lat="40.72368560083509" lon="8.621180212127934"><ele>376.0</ele><time>2026-05-01T07:24:18Z</time></trkpt><trkpt lat="40.72373296569502" lon="8.621331186256837"><ele>376.0</ele><time>2026-05-01T07:24:19Z</time></trkpt><trkpt lat="40.723792151880275" lon="8.621467664810822"><ele>376.0</ele><time>2026-05-01T07:24:20Z</time></trkpt><trkpt lat="40.723868239046055" lon="8.62158643731178"><ele>376.0</ele><time>2026-05-01T07:24:21Z</time></trkpt><trkpt lat="40.72397511802043" lon="8.621685221010923"><ele>376.0</ele><time>2026-05-01T07:24:22Z</time></trkpt><trkpt lat="40.72410502542413" lon="8.621751542450477"><ele>376.0</ele><time>2026-05-01T07:24:23Z</time></trkpt><trkpt lat="40.72425966790706" lon="8.621793887416361"><ele>376.0</ele><time>2026-05-01T07:24:24Z</time></trkpt><trkpt lat="40.724426025892534" lon="8.621842035661398"><ele>376.0</ele><time>2026-05-01T07:24:25Z</time></trkpt><trkpt lat="40.724590803152324" lon="8.621885971588302"><ele>376.3333333333333</ele><time>2026-05-01T07:24:26Z</time></trkpt><trkpt lat="40.724758756609056" lon="8.621927085948053"><ele>376.6666666666667</ele><time>2026-05-01T07:24:27Z</time></trkpt><trkpt lat="40.72493337458369" lon="8.621973561631343"><ele>377.0</ele><time>2026-05-01T07:24:28Z</time></trkpt><trkpt lat="40.725111960699124" lon="8.622013983766651"><ele>379.6666666666667</ele><time>2026-05-01T07:24:29Z</time></trkpt><trkpt lat="40.725293771642995" lon="8.62205686796456"><ele>382.33333333333337</ele><time>2026-05-01T07:24:30Z</time></trkpt><trkpt lat="40.7254729846543" lon="8.622113137075901"><ele>385.0</ele><time>2026-05-01T07:24:31Z</time></trkpt><trkpt lat="40.725650469625386" lon="8.622184417777424"><ele>385.0</ele><time>2026-05-01T07:24:32Z</time></trkpt><trkpt lat="40.72582858193091" lon="8.622280311785238"><ele>385.0</ele><time>2026-05-01T07:24:33Z</time></trkpt><trkpt lat="40.726001502126806" lon="8.622392921512011"><ele>385.0</ele><time>2026-05-01T07:24:34Z</time></trkpt><trkpt lat="40.72617388326739" lon="8.622504954489463"><ele>385.33333333333337</ele><time>2026-05-01T07:24:35Z</time></trkpt><trkpt lat="40.72635153212959" lon="8.622614938971259"><ele>385.66666666666663</ele><time>2026-05-01T07:24:36Z</time></trkpt><trkpt lat="40.7265302452322" lon="8.62272546200724"><ele>386.0</ele><time>2026-05-01T07:24:37Z</time></trkpt><trkpt lat="40.72670043660481" lon="8.622834159026546"><ele>389.3333333333333</ele><time>2026-05-01T07:24:38Z</time></trkpt><trkpt lat="40.726875087620634" lon="8.622944839602937"><ele>392.66666666666663</ele><time>2026-05-01T07:24:39Z</time></trkpt><trkpt lat="40.727051442864564" lon="8.623055673349757"><ele>396.0</ele><time>2026-05-01T07:24:40Z</time></trkpt><trkpt lat="40.72722959817709" lon="8.623168367601163"><ele>396.0</ele><time>2026-05-01T07:24:41Z</time></trkpt><trkpt lat="40.72740748838914" lon="8.623278278666422"><ele>396.0</ele><time>2026-05-01T07:24:42Z</time></trkpt><trkpt lat="40.72758474427496" lon="8.623386642031498"><ele>396.0</ele><time>2026-05-01T07:24:43Z</time></trkpt><trkpt lat="40.72774459359294" lon="8.623484073533206"><ele>396.5</ele><time>2026-05-01T07:24:44Z</time></trkpt><trkpt lat="40.72789058254595" lon="8.623574485792595"><ele>397.0</ele><time>2026-05-01T07:24:45Z</time></trkpt><trkpt lat="40.72802170420354" lon="8.623659732694176"><ele>397.5</ele><time>2026-05-01T07:24:46Z</time></trkpt><trkpt lat="40.728129687248796" lon="8.623746310165568"><ele>398.0</ele><time>2026-05-01T07:24:47Z</time></trkpt><trkpt lat="40.72821237208487" lon="8.623842863347475"><ele>398.79999999999995</ele><time>2026-05-01T07:24:48Z</time></trkpt><trkpt lat="40.72825876850638" lon="8.623949681493714"><ele>399.6</ele><time>2026-05-01T07:24:49Z</time></trkpt><trkpt lat="40.72825747948556" lon="8.624070050426248"><ele>400.4</ele><time>2026-05-01T07:24:50Z</time></trkpt><trkpt lat="40.72827356294442" lon="8.624211957404144"><ele>401.20000000000005</ele><time>2026-05-01T07:24:51Z</time></trkpt><trkpt lat="40.7282647180576" lon="8.624366965147377"><ele>402.0</ele><time>2026-05-01T07:24:52Z</time></trkpt><trkpt lat="40.728254985382456" lon="8.624527408599375"><ele>402.0</ele><time>2026-05-01T07:24:53Z</time></trkpt><trkpt lat="40.728243981023816" lon="8.624673022286027"><ele>402.0</ele><time>2026-05-01T07:24:54Z</time></trkpt><trkpt lat="40.72825758982299" lon="8.624818214126735"><ele>402.0</ele><time>2026-05-01T07:24:55Z</time></trkpt><trkpt lat="40.72828104881449" lon="8.624960783354439"><ele>402.0</ele><time>2026-05-01T07:24:56Z</time></trkpt><trkpt lat="40.72832955945362" lon="8.625091957052842"><ele>402.0</ele><time>2026-05-01T07:24:57Z</time></trkpt><trkpt lat="40.728393705592566" lon="8.625203054134884"><ele>401.25</ele><time>2026-05-01T07:24:58Z</time></trkpt><trkpt lat="40.72847426510064" lon="8.625313118273073"><ele>400.5</ele><time>2026-05-01T07:24:59Z</time></trkpt><trkpt lat="40.72857817142186" lon="8.62542220959752"><ele>399.75</ele><time>2026-05-01T07:25:00Z</time></trkpt><trkpt lat="40.72870213768928" lon="8.62552195693692"><ele>399.0</ele><time>2026-05-01T07:25:01Z</time></trkpt><trkpt lat="40.7288315987827" lon="8.625631832881586"><ele>399.0</ele><time>2026-05-01T07:25:02Z</time></trkpt><trkpt lat="40.728965366053586" lon="8.62574984087469"><ele>399.0</ele><time>2026-05-01T07:25:03Z</time></trkpt><trkpt lat="40.72910013610609" lon="8.625864437991753"><ele>399.0</ele><time>2026-05-01T07:25:04Z</time></trkpt><trkpt lat="40.72924081849719" lon="8.62598385341681"><ele>399.0</ele><time>2026-05-01T07:25:05Z</time></trkpt><trkpt lat="40.729375030543025" lon="8.626098859261326"><ele>399.0</ele><time>2026-05-01T07:25:06Z</time></trkpt><trkpt lat="40.729499895774616" lon="8.626218283827983"><ele>399.0</ele><time>2026-05-01T07:25:07Z</time></trkpt><trkpt lat="40.7296135662435" lon="8.626365041142963"><ele>399.66666666666663</ele><time>2026-05-01T07:25:08Z</time></trkpt><trkpt lat="40.72971686309371" lon="8.62653629109527"><ele>400.3333333333333</ele><time>2026-05-01T07:25:09Z</time></trkpt><trkpt lat="40.729821555781626" lon="8.62671709607449"><ele>401.0</ele><time>2026-05-01T07:25:10Z</time></trkpt><trkpt lat="40.729931005964445" lon="8.626903028988398"><ele>403.0</ele><time>2026-05-01T07:25:11Z</time></trkpt><trkpt lat="40.73003649171883" lon="8.627077237124938"><ele>405.0</ele><time>2026-05-01T07:25:12Z</time></trkpt><trkpt lat="40.73014074066418" lon="8.627246689214658"><ele>407.0</ele><time>2026-05-01T07:25:13Z</time></trkpt><trkpt lat="40.73024998822584" lon="8.627424753376744"><ele>407.0</ele><time>2026-05-01T07:25:14Z</time></trkpt><trkpt lat="40.73036777507033" lon="8.627606574095962"><ele>407.0</ele><time>2026-05-01T07:25:15Z</time></trkpt><trkpt lat="40.73049004512409" lon="8.627781693038578"><ele>407.0</ele><time>2026-05-01T07:25:16Z</time></trkpt><trkpt lat="40.73062082758734" lon="8.62794897526659"><ele>398.3333333333333</ele><time>2026-05-01T07:25:17Z</time></trkpt><trkpt lat="40.73076157729497" lon="8.628113249398545"><ele>389.66666666666663</ele><time>2026-05-01T07:25:18Z</time></trkpt><trkpt lat="40.730907496991065" lon="8.628278077175219"><ele>381.0</ele><time>2026-05-01T07:25:19Z</time></trkpt><trkpt lat="40.73105707075775" lon="8.628439839552941"><ele>380.0</ele><time>2026-05-01T07:25:20Z</time></trkpt><trkpt lat="40.73120230632552" lon="8.628592687315848"><ele>379.0</ele><time>2026-05-01T07:25:21Z</time></trkpt><trkpt lat="40.7313416416178" lon="8.628740400696575"><ele>378.0</ele><time>2026-05-01T07:25:22Z</time></trkpt><trkpt lat="40.73147534502171" lon="8.628888170177936"><ele>378.0</ele><time>2026-05-01T07:25:23Z</time></trkpt><trkpt lat="40.73160183449939" lon="8.629037072177013"><ele>378.0</ele><time>2026-05-01T07:25:24Z</time></trkpt><trkpt lat="40.73172126290421" lon="8.629188349107803"><ele>378.0</ele><time>2026-05-01T07:25:25Z</time></trkpt><trkpt lat="40.731827231691874" lon="8.629350447335643"><ele>379.6666666666667</ele><time>2026-05-01T07:25:26Z</time></trkpt><trkpt lat="40.7319173137604" lon="8.629524709185478"><ele>381.33333333333337</ele><time>2026-05-01T07:25:27Z</time></trkpt><trkpt lat="40.73199228939538" lon="8.629703921331831"><ele>383.0</ele><time>2026-05-01T07:25:28Z</time></trkpt><trkpt lat="40.73205490329522" lon="8.629885246465907"><ele>383.0</ele><time>2026-05-01T07:25:29Z</time></trkpt><trkpt lat="40.732106129706004" lon="8.630068890879102"><ele>383.0</ele><time>2026-05-01T07:25:30Z</time></trkpt><trkpt lat="40.732143588570096" lon="8.63026488080881"><ele>383.0</ele><time>2026-05-01T07:25:31.001Z</time></trkpt><trkpt lat="40.732169540111386" lon="8.630474765317215"><ele>380.0</ele><time>2026-05-01T07:25:32.001Z</time></trkpt><trkpt lat="40.73218781349626" lon="8.630681882498076"><ele>377.0</ele><time>2026-05-01T07:25:33.001Z</time></trkpt><trkpt lat="40.73220518703274" lon="8.630879299443388"><ele>374.0</ele><time>2026-05-01T07:25:34.001Z</time></trkpt><trkpt lat="40.73222317824336" lon="8.631072989860732"><ele>371.25</ele><time>2026-05-01T07:25:35.001Z</time></trkpt><trkpt lat="40.73224301462232" lon="8.631262405758875"><ele>368.5</ele><time>2026-05-01T07:25:36.001Z</time></trkpt><trkpt lat="40.732266649546084" lon="8.63144605350938"><ele>365.75</ele><time>2026-05-01T07:25:37.001Z</time></trkpt><trkpt lat="40.73229436359411" lon="8.631621635439167"><ele>363.0</ele><time>2026-05-01T07:25:38.001Z</time></trkpt><trkpt lat="40.73233987364922" lon="8.631782772025787"><ele>363.0</ele><time>2026-05-01T07:25:39.001Z</time></trkpt><trkpt lat="40.73242292235558" lon="8.63194006059466"><ele>363.0</ele><time>2026-05-01T07:25:40.001Z</time></trkpt><trkpt lat="40.73253441825318" lon="8.632093891456918"><ele>363.0</ele><time>2026-05-01T07:25:41.001Z</time></trkpt><trkpt lat="40.73265992327332" lon="8.632251323101876"><ele>363.3333333333333</ele><time>2026-05-01T07:25:42.001Z</time></trkpt><trkpt lat="40.73278241966002" lon="8.632405488244272"><ele>363.66666666666663</ele><time>2026-05-01T07:25:43.001Z</time></trkpt><trkpt lat="40.73289319688423" lon="8.632553499094444"><ele>364.0</ele><time>2026-05-01T07:25:44.001Z</time></trkpt><trkpt lat="40.73300141649745" lon="8.632687982924237"><ele>361.5</ele><time>2026-05-01T07:25:45.001Z</time></trkpt><trkpt lat="40.73309836371349" lon="8.632812545600943"><ele>359.0</ele><time>2026-05-01T07:25:46.001Z</time></trkpt><trkpt lat="40.73316718883682" lon="8.632934379858893"><ele>356.5</ele><time>2026-05-01T07:25:47.001Z</time></trkpt><trkpt lat="40.73320417476061" lon="8.633064044000053"><ele>354.0</ele><time>2026-05-01T07:25:48.001Z</time></trkpt><trkpt lat="40.73320464280966" lon="8.6332017662585"><ele>354.0</ele><time>2026-05-01T07:25:49.001Z</time></trkpt><trkpt lat="40.73314431349477" lon="8.633340408000619"><ele>354.0</ele><time>2026-05-01T07:25:50.001Z</time></trkpt><trkpt lat="40.7330678929852" lon="8.633494099514369"><ele>354.0</ele><time>2026-05-01T07:25:51.001Z</time></trkpt><trkpt lat="40.73299431076315" lon="8.633677476102765"><ele>354.0</ele><time>2026-05-01T07:25:52.001Z</time></trkpt><trkpt lat="40.732902495798605" lon="8.633852861645192"><ele>352.75</ele><time>2026-05-01T07:25:53.001Z</time></trkpt><trkpt lat="40.7328193557382" lon="8.634030122830902"><ele>351.5</ele><time>2026-05-01T07:25:54.001Z</time></trkpt><trkpt lat="40.73274060651401" lon="8.634198105078937"><ele>350.25</ele><time>2026-05-01T07:25:55.001Z</time></trkpt><trkpt lat="40.73265917967115" lon="8.63434026041943"><ele>349.0</ele><time>2026-05-01T07:25:56.001Z</time></trkpt><trkpt lat="40.732564045512696" lon="8.634462489815087"><ele>348.0</ele><time>2026-05-01T07:25:57.001Z</time></trkpt><trkpt lat="40.73245121264524" lon="8.634555670847677"><ele>347.0</ele><time>2026-05-01T07:25:58.001Z</time></trkpt><trkpt lat="40.73232435901839" lon="8.634621561606822"><ele>346.0</ele><time>2026-05-01T07:25:59Z</time></trkpt><trkpt lat="40.7321803992706" lon="8.634623622825751"><ele>345.0</ele><time>2026-05-01T07:26:00Z</time></trkpt><trkpt lat="40.73203953103907" lon="8.634632122733953"><ele>345.6666666666667</ele><time>2026-05-01T07:26:01Z</time></trkpt><trkpt lat="40.73187860500032" lon="8.63465552466059"><ele>346.33333333333337</ele><time>2026-05-01T07:26:02Z</time></trkpt><trkpt lat="40.73170812270119" lon="8.634663151373307"><ele>347.0</ele><time>2026-05-01T07:26:03Z</time></trkpt><trkpt lat="40.73154484557373" lon="8.634665813093658"><ele>347.0</ele><time>2026-05-01T07:26:04Z</time></trkpt><trkpt lat="40.73139467401276" lon="8.634669996450056"><ele>347.0</ele><time>2026-05-01T07:26:05Z</time></trkpt><trkpt lat="40.73125826278822" lon="8.634705923157647"><ele>347.0</ele><time>2026-05-01T07:26:06Z</time></trkpt><trkpt lat="40.73113485865114" lon="8.634773107798996"><ele>347.0</ele><time>2026-05-01T07:26:07Z</time></trkpt><trkpt lat="40.73103483061098" lon="8.634869714936258"><ele>346.25</ele><time>2026-05-01T07:26:08Z</time></trkpt><trkpt lat="40.7309488277293" lon="8.635002236112314"><ele>345.5</ele><time>2026-05-01T07:26:09Z</time></trkpt><trkpt lat="40.73088507931901" lon="8.635177904632872"><ele>344.75</ele><time>2026-05-01T07:26:10Z</time></trkpt><trkpt lat="40.73084204095227" lon="8.635383678685074"><ele>344.0</ele><time>2026-05-01T07:26:11Z</time></trkpt><trkpt lat="40.73079691074052" lon="8.635608088200541"><ele>344.0</ele><time>2026-05-01T07:26:12Z</time></trkpt><trkpt lat="40.73075159827186" lon="8.635834845843057"><ele>344.0</ele><time>2026-05-01T07:26:13Z</time></trkpt><trkpt lat="40.730705895689866" lon="8.636077106254787"><ele>344.0</ele><time>2026-05-01T07:26:14Z</time></trkpt><trkpt lat="40.730662225568196" lon="8.636332969263327"><ele>344.33333333333337</ele><time>2026-05-01T07:26:15Z</time></trkpt><trkpt lat="40.730614409166755" lon="8.636589921949538"><ele>344.6666666666667</ele><time>2026-05-01T07:26:16Z</time></trkpt><trkpt lat="40.730567598822226" lon="8.636847291027944"><ele>345.0</ele><time>2026-05-01T07:26:17Z</time></trkpt><trkpt lat="40.73051981711436" lon="8.637104383359612"><ele>346.6666666666667</ele><time>2026-05-01T07:26:18Z</time></trkpt><trkpt lat="40.73047227736045" lon="8.637353177698966"><ele>348.33333333333337</ele><time>2026-05-01T07:26:19Z</time></trkpt><trkpt lat="40.73042903973092" lon="8.637582819528872"><ele>350.0</ele><time>2026-05-01T07:26:20Z</time></trkpt><trkpt lat="40.73039363063559" lon="8.637821048826785"><ele>352.6666666666667</ele><time>2026-05-01T07:26:21Z</time></trkpt><trkpt lat="40.73037728556587" lon="8.638073804553233"><ele>355.3333333333333</ele><time>2026-05-01T07:26:22Z</time></trkpt><trkpt lat="40.73037898957593" lon="8.638340129755752"><ele>358.0</ele><time>2026-05-01T07:26:23Z</time></trkpt><trkpt lat="40.730393518824904" lon="8.638618700815579"><ele>358.3333333333333</ele><time>2026-05-01T07:26:24Z</time></trkpt><trkpt lat="40.73040885509395" lon="8.63889230627905"><ele>358.6666666666667</ele><time>2026-05-01T07:26:25Z</time></trkpt><trkpt lat="40.73042412404831" lon="8.639161606759323"><ele>359.0</ele><time>2026-05-01T07:26:26Z</time></trkpt><trkpt lat="40.73044191844496" lon="8.639412621455525"><ele>357.33333333333337</ele><time>2026-05-01T07:26:27Z</time></trkpt><trkpt lat="40.7304605924218" lon="8.639630883116734"><ele>355.6666666666667</ele><time>2026-05-01T07:26:28Z</time></trkpt><trkpt lat="40.73048188545892" lon="8.639836440991521"><ele>354.0</ele><time>2026-05-01T07:26:29Z</time></trkpt><trkpt lat="40.73051902611364" lon="8.64003131586445"><ele>354.0</ele><time>2026-05-01T07:26:30Z</time></trkpt><trkpt lat="40.7305751262572" lon="8.640222696382825"><ele>354.0</ele><time>2026-05-01T07:26:31Z</time></trkpt><trkpt lat="40.73065495032433" lon="8.640407626958554"><ele>354.0</ele><time>2026-05-01T07:26:32Z</time></trkpt><trkpt lat="40.730756728776434" lon="8.640586810856515"><ele>352.6666666666667</ele><time>2026-05-01T07:26:33Z</time></trkpt><trkpt lat="40.73086995802623" lon="8.64074352887386"><ele>351.33333333333337</ele><time>2026-05-01T07:26:34Z</time></trkpt><trkpt lat="40.73099579709769" lon="8.640890495377121"><ele>350.0</ele><time>2026-05-01T07:26:35Z</time></trkpt><trkpt lat="40.73113642369354" lon="8.641026154180336"><ele>346.6666666666667</ele><time>2026-05-01T07:26:36Z</time></trkpt><trkpt lat="40.73128970319539" lon="8.641146627034548"><ele>343.3333333333333</ele><time>2026-05-01T07:26:37Z</time></trkpt><trkpt lat="40.731450476305675" lon="8.641261711822372"><ele>340.0</ele><time>2026-05-01T07:26:38Z</time></trkpt><trkpt lat="40.731619890675674" lon="8.641368503425214"><ele>340.0</ele><time>2026-05-01T07:26:39Z</time></trkpt><trkpt lat="40.731785098850466" lon="8.641464684820132"><ele>340.0</ele><time>2026-05-01T07:26:40Z</time></trkpt><trkpt lat="40.7319514714709" lon="8.64155071217457"><ele>340.0</ele><time>2026-05-01T07:26:41Z</time></trkpt><trkpt lat="40.73211140120825" lon="8.641625491223962"><ele>339.3333333333333</ele><time>2026-05-01T07:26:42Z</time></trkpt><trkpt lat="40.73227389972517" lon="8.641685432651222"><ele>338.6666666666667</ele><time>2026-05-01T07:26:43Z</time></trkpt><trkpt lat="40.732448947084556" lon="8.641733873414417"><ele>338.0</ele><time>2026-05-01T07:26:44Z</time></trkpt><trkpt lat="40.73262863717538" lon="8.641776420809345"><ele>337.0</ele><time>2026-05-01T07:26:45Z</time></trkpt><trkpt lat="40.73279752229678" lon="8.641823671516532"><ele>336.0</ele><time>2026-05-01T07:26:46Z</time></trkpt><trkpt lat="40.73295965367222" lon="8.641869133649976"><ele>335.0</ele><time>2026-05-01T07:26:47Z</time></trkpt><trkpt lat="40.733115400416466" lon="8.641917091487707"><ele>333.75</ele><time>2026-05-01T07:26:48Z</time></trkpt><trkpt lat="40.73325264904461" lon="8.641977544961904"><ele>332.5</ele><time>2026-05-01T07:26:49Z</time></trkpt><trkpt lat="40.733373461233235" lon="8.642058295637788"><ele>331.25</ele><time>2026-05-01T07:26:50Z</time></trkpt><trkpt lat="40.73352339162061" lon="8.642074519866977"><ele>330.0</ele><time>2026-05-01T07:26:51Z</time></trkpt><trkpt lat="40.73354390205416" lon="8.642310833979067"><ele>330.5</ele><time>2026-05-01T07:26:52Z</time></trkpt><trkpt lat="40.73358850749909" lon="8.642472063174305"><ele>331.0</ele><time>2026-05-01T07:26:53Z</time></trkpt><trkpt lat="40.73360635300031" lon="8.642653981526912"><ele>331.5</ele><time>2026-05-01T07:26:54Z</time></trkpt><trkpt lat="40.73359087023522" lon="8.642859031555199"><ele>332.0</ele><time>2026-05-01T07:26:55Z</time></trkpt><trkpt lat="40.73353284886385" lon="8.643072440010979"><ele>332.0</ele><time>2026-05-01T07:26:56Z</time></trkpt><trkpt lat="40.7334979374782" lon="8.643293310973823"><ele>332.0</ele><time>2026-05-01T07:26:57Z</time></trkpt><trkpt lat="40.733460109240724" lon="8.643526953302723"><ele>332.0</ele><time>2026-05-01T07:26:58Z</time></trkpt><trkpt lat="40.73342022068395" lon="8.643772399853404"><ele>333.6666666666667</ele><time>2026-05-01T07:26:59Z</time></trkpt><trkpt lat="40.733394000280235" lon="8.644028106706111"><ele>335.3333333333333</ele><time>2026-05-01T07:27:00Z</time></trkpt><trkpt lat="40.73335485782742" lon="8.64425862216874"><ele>337.0</ele><time>2026-05-01T07:27:01Z</time></trkpt><trkpt lat="40.733319355098736" lon="8.64446827416009"><ele>338.0</ele><time>2026-05-01T07:27:02Z</time></trkpt><trkpt lat="40.73328109771595" lon="8.644660656676045"><ele>339.0</ele><time>2026-05-01T07:27:03Z</time></trkpt><trkpt lat="40.73322838456637" lon="8.644828807029487"><ele>340.0</ele><time>2026-05-01T07:27:04Z</time></trkpt><trkpt lat="40.73315203610676" lon="8.644969645897406"><ele>341.0</ele><time>2026-05-01T07:27:05Z</time></trkpt><trkpt lat="40.733061165071256" lon="8.645077025784483"><ele>341.0</ele><time>2026-05-01T07:27:06Z</time></trkpt><trkpt lat="40.732949647358865" lon="8.645154994516272"><ele>341.0</ele><time>2026-05-01T07:27:07Z</time></trkpt><trkpt lat="40.7328210707275" lon="8.645203103395696"><ele>341.0</ele><time>2026-05-01T07:27:08Z</time></trkpt><trkpt lat="40.73267914622181" lon="8.645232025832666"><ele>341.0</ele><time>2026-05-01T07:27:09Z</time></trkpt><trkpt lat="40.73253275001712" lon="8.645255809092586"><ele>341.0</ele><time>2026-05-01T07:27:10Z</time></trkpt><trkpt lat="40.732391442468895" lon="8.645284966905962"><ele>341.0</ele><time>2026-05-01T07:27:11Z</time></trkpt><trkpt lat="40.73226223117902" lon="8.645328644099632"><ele>341.0</ele><time>2026-05-01T07:27:12Z</time></trkpt><trkpt lat="40.73215260405" lon="8.64539036220571"><ele>341.0</ele><time>2026-05-01T07:27:13Z</time></trkpt><trkpt lat="40.732062501836765" lon="8.645481086830433"><ele>343.25</ele><time>2026-05-01T07:27:14Z</time></trkpt><trkpt lat="40.731991106554105" lon="8.645606577466038"><ele>345.5</ele><time>2026-05-01T07:27:15Z</time></trkpt><trkpt lat="40.73194775293546" lon="8.645757181671533"><ele>347.75</ele><time>2026-05-01T07:27:16Z</time></trkpt><trkpt lat="40.731945360953596" lon="8.645941918575398"><ele>350.0</ele><time>2026-05-01T07:27:17Z</time></trkpt><trkpt lat="40.73196753767615" lon="8.646149088994276"><ele>350.6666666666667</ele><time>2026-05-01T07:27:18Z</time></trkpt><trkpt lat="40.73200382374616" lon="8.646382021426913"><ele>351.3333333333333</ele><time>2026-05-01T07:27:19Z</time></trkpt><trkpt lat="40.73204747377131" lon="8.646640314500056"><ele>352.0</ele><time>2026-05-01T07:27:20Z</time></trkpt><trkpt lat="40.732093295918745" lon="8.646915554985757"><ele>353.5</ele><time>2026-05-01T07:27:21Z</time></trkpt><trkpt lat="40.732142098665804" lon="8.647207587151879"><ele>355.0</ele><time>2026-05-01T07:27:22Z</time></trkpt><trkpt lat="40.732195239368544" lon="8.647514056767944"><ele>355.5</ele><time>2026-05-01T07:27:23Z</time></trkpt><trkpt lat="40.73225179620062" lon="8.647838734543722"><ele>356.0</ele><time>2026-05-01T07:27:24Z</time></trkpt><trkpt lat="40.73230836917536" lon="8.648178246714426"><ele>356.0</ele><time>2026-05-01T07:27:25Z</time></trkpt><trkpt lat="40.73236504010651" lon="8.648521453852602"><ele>356.0</ele><time>2026-05-01T07:27:26Z</time></trkpt><trkpt lat="40.7324214345282" lon="8.648871450659549"><ele>357.5</ele><time>2026-05-01T07:27:27Z</time></trkpt><trkpt lat="40.73248017135949" lon="8.649227097027435"><ele>359.0</ele><time>2026-05-01T07:27:28Z</time></trkpt><trkpt lat="40.73253707728992" lon="8.649587347699738"><ele>360.5</ele><time>2026-05-01T07:27:29Z</time></trkpt><trkpt lat="40.73259485119581" lon="8.649950526472198"><ele>362.0</ele><time>2026-05-01T07:27:30.001Z</time></trkpt><trkpt lat="40.732651776054965" lon="8.650313078132935"><ele>362.0</ele><time>2026-05-01T07:27:31.001Z</time></trkpt><trkpt lat="40.732707416671886" lon="8.650668129676735"><ele>362.0</ele><time>2026-05-01T07:27:32.001Z</time></trkpt><trkpt lat="40.73276245674131" lon="8.651024959220651"><ele>364.5</ele><time>2026-05-01T07:27:33.001Z</time></trkpt><trkpt lat="40.73281409104522" lon="8.651363818933136"><ele>367.0</ele><time>2026-05-01T07:27:34.001Z</time></trkpt><trkpt lat="40.73286691914612" lon="8.651692984759816"><ele>367.5</ele><time>2026-05-01T07:27:35.001Z</time></trkpt><trkpt lat="40.73292049195712" lon="8.652027813710788"><ele>368.0</ele><time>2026-05-01T07:27:36.001Z</time></trkpt><trkpt lat="40.73296653115643" lon="8.652333540294785"><ele>368.0</ele><time>2026-05-01T07:27:37.001Z</time></trkpt><trkpt lat="40.73301604245619" lon="8.65262145965746"><ele>368.0</ele><time>2026-05-01T07:27:38.001Z</time></trkpt><trkpt lat="40.73306207890193" lon="8.65289048853381"><ele>368.0</ele><time>2026-05-01T07:27:39.001Z</time></trkpt><trkpt lat="40.73310409064993" lon="8.653158875643964"><ele>369.33333333333337</ele><time>2026-05-01T07:27:40.001Z</time></trkpt><trkpt lat="40.733143295328524" lon="8.653405032094856"><ele>370.6666666666667</ele><time>2026-05-01T07:27:41.001Z</time></trkpt><trkpt lat="40.73318057647433" lon="8.653633717762519"><ele>372.0</ele><time>2026-05-01T07:27:42.001Z</time></trkpt><trkpt lat="40.733215567781286" lon="8.653846933179407"><ele>373.0</ele><time>2026-05-01T07:27:43.001Z</time></trkpt><trkpt lat="40.73325211984353" lon="8.654042677982252"><ele>374.0</ele><time>2026-05-01T07:27:44.001Z</time></trkpt><trkpt lat="40.73328577087016" lon="8.654232926311325"><ele>375.0</ele><time>2026-05-01T07:27:45.001Z</time></trkpt><trkpt lat="40.733317569794146" lon="8.654428467267104"><ele>375.6666666666667</ele><time>2026-05-01T07:27:46.001Z</time></trkpt><trkpt lat="40.733373316286986" lon="8.654616868192198"><ele>376.33333333333337</ele><time>2026-05-01T07:27:47.001Z</time></trkpt><trkpt lat="40.73345639606481" lon="8.654801705344825"><ele>377.0</ele><time>2026-05-01T07:27:48.001Z</time></trkpt><trkpt lat="40.7335713319628" lon="8.654977048969924"><ele>377.0</ele><time>2026-05-01T07:27:49.001Z</time></trkpt><trkpt lat="40.73369535761857" lon="8.655144221231682"><ele>377.0</ele><time>2026-05-01T07:27:50.001Z</time></trkpt><trkpt lat="40.73381924390694" lon="8.655313215023764"><ele>377.0</ele><time>2026-05-01T07:27:51.001Z</time></trkpt><trkpt lat="40.73393898788422" lon="8.655495107855955"><ele>380.33333333333337</ele><time>2026-05-01T07:27:52.001Z</time></trkpt><trkpt lat="40.73405270272476" lon="8.655685941687386"><ele>383.6666666666667</ele><time>2026-05-01T07:27:53.001Z</time></trkpt><trkpt lat="40.73415374416148" lon="8.655894293267112"><ele>387.0</ele><time>2026-05-01T07:27:54.001Z</time></trkpt><trkpt lat="40.73424927773424" lon="8.656113820340844"><ele>389.66666666666663</ele><time>2026-05-01T07:27:55.001Z</time></trkpt><trkpt lat="40.73434224051472" lon="8.656339128308673"><ele>392.3333333333333</ele><time>2026-05-01T07:27:56.001Z</time></trkpt><trkpt lat="40.73442626846088" lon="8.656566207380408"><ele>395.0</ele><time>2026-05-01T07:27:57.001Z</time></trkpt><trkpt lat="40.73450327273887" lon="8.656768136194005"><ele>396.3333333333333</ele><time>2026-05-01T07:27:58.001Z</time></trkpt><trkpt lat="40.734572817810786" lon="8.656964011797065"><ele>397.66666666666663</ele><time>2026-05-01T07:27:59.001Z</time></trkpt><trkpt lat="40.734627131433825" lon="8.657146923314416"><ele>399.0</ele><time>2026-05-01T07:28:00.001Z</time></trkpt><trkpt lat="40.73466471572106" lon="8.65734716336332"><ele>399.0</ele><time>2026-05-01T07:28:01.001Z</time></trkpt><trkpt lat="40.734689047953324" lon="8.657559078747049"><ele>399.0</ele><time>2026-05-01T07:28:02.001Z</time></trkpt><trkpt lat="40.73470297112509" lon="8.657782128003891"><ele>399.0</ele><time>2026-05-01T07:28:03.001Z</time></trkpt><trkpt lat="40.73474307894469" lon="8.658007356726168"><ele>400.0</ele><time>2026-05-01T07:28:04.001Z</time></trkpt><trkpt lat="40.73470636411791" lon="8.658273087648986"><ele>401.0</ele><time>2026-05-01T07:28:05Z</time></trkpt><trkpt lat="40.734703514628414" lon="8.658537761608036"><ele>402.0</ele><time>2026-05-01T07:28:06Z</time></trkpt><trkpt lat="40.73469966066109" lon="8.658806698854564"><ele>404.33333333333337</ele><time>2026-05-01T07:28:07Z</time></trkpt><trkpt lat="40.734700350614716" lon="8.659082997196146"><ele>406.6666666666667</ele><time>2026-05-01T07:28:08Z</time></trkpt><trkpt lat="40.73471075810727" lon="8.659364163721808"><ele>409.0</ele><time>2026-05-01T07:28:09Z</time></trkpt><trkpt lat="40.734733341545116" lon="8.659650903400443"><ele>410.6666666666667</ele><time>2026-05-01T07:28:10Z</time></trkpt><trkpt lat="40.73475710544135" lon="8.659925491035144"><ele>412.33333333333337</ele><time>2026-05-01T07:28:11Z</time></trkpt><trkpt lat="40.734779982718656" lon="8.660205533759303"><ele>414.0</ele><time>2026-05-01T07:28:12Z</time></trkpt><trkpt lat="40.73479450549099" lon="8.660491349296532"><ele>415.66666666666663</ele><time>2026-05-01T07:28:13Z</time></trkpt><trkpt lat="40.73479807242771" lon="8.66078494635402"><ele>417.3333333333333</ele><time>2026-05-01T07:28:14Z</time></trkpt><trkpt lat="40.73479361042092" lon="8.661084163147036"><ele>419.0</ele><time>2026-05-01T07:28:15Z</time></trkpt><trkpt lat="40.7347830738015" lon="8.661388243936461"><ele>421.0</ele><time>2026-05-01T07:28:16Z</time></trkpt><trkpt lat="40.73477166782117" lon="8.661691042589881"><ele>423.0</ele><time>2026-05-01T07:28:17Z</time></trkpt><trkpt lat="40.73475884704053" lon="8.661986282817962"><ele>423.33333333333337</ele><time>2026-05-01T07:28:18Z</time></trkpt><trkpt lat="40.734738320244254" lon="8.662262001760563"><ele>423.6666666666667</ele><time>2026-05-01T07:28:19Z</time></trkpt><trkpt lat="40.734708402126024" lon="8.662539952935719"><ele>424.0</ele><time>2026-05-01T07:28:20Z</time></trkpt><trkpt lat="40.73466018565622" lon="8.662818833592183"><ele>424.33333333333337</ele><time>2026-05-01T07:28:21Z</time></trkpt><trkpt lat="40.73460477309792" lon="8.663065194277934"><ele>424.66666666666663</ele><time>2026-05-01T07:28:22Z</time></trkpt><trkpt lat="40.73453233036321" lon="8.663298027517241"><ele>425.0</ele><time>2026-05-01T07:28:23Z</time></trkpt><trkpt lat="40.734439352238844" lon="8.663530365882433"><ele>427.3333333333333</ele><time>2026-05-01T07:28:24Z</time></trkpt><trkpt lat="40.734327962656195" lon="8.663744203029003"><ele>429.66666666666663</ele><time>2026-05-01T07:28:25Z</time></trkpt><trkpt lat="40.734213553405986" lon="8.663921753377961"><ele>432.0</ele><time>2026-05-01T07:28:26Z</time></trkpt><trkpt lat="40.734102114719164" lon="8.66408268123325"><ele>432.0</ele><time>2026-05-01T07:28:27Z</time></trkpt><trkpt lat="40.73400972113193" lon="8.664257805667424"><ele>432.0</ele><time>2026-05-01T07:28:28Z</time></trkpt><trkpt lat="40.73393782261028" lon="8.664465677698315"><ele>432.0</ele><time>2026-05-01T07:28:29Z</time></trkpt><trkpt lat="40.73387818724414" lon="8.664691277712608"><ele>431.33333333333337</ele><time>2026-05-01T07:28:30Z</time></trkpt><trkpt lat="40.73380779504842" lon="8.664917614790504"><ele>430.6666666666667</ele><time>2026-05-01T07:28:31Z</time></trkpt><trkpt lat="40.73371375112053" lon="8.665136975451478"><ele>430.0</ele><time>2026-05-01T07:28:32Z</time></trkpt><trkpt lat="40.73360565634287" lon="8.66534215124295"><ele>434.6666666666667</ele><time>2026-05-01T07:28:33Z</time></trkpt><trkpt lat="40.73349756493707" lon="8.665515576704706"><ele>439.33333333333337</ele><time>2026-05-01T07:28:34Z</time></trkpt><trkpt lat="40.73337276031352" lon="8.665682861471804"><ele>444.0</ele><time>2026-05-01T07:28:35Z</time></trkpt><trkpt lat="40.73322468307669" lon="8.66584349302855"><ele>444.0</ele><time>2026-05-01T07:28:36Z</time></trkpt><trkpt lat="40.73307175314995" lon="8.66601094390388"><ele>444.0</ele><time>2026-05-01T07:28:37Z</time></trkpt><trkpt lat="40.7329152104268" lon="8.666185026698772"><ele>444.0</ele><time>2026-05-01T07:28:38Z</time></trkpt><trkpt lat="40.7327637940157" lon="8.666352021077284"><ele>445.66666666666663</ele><time>2026-05-01T07:28:39Z</time></trkpt><trkpt lat="40.732627739898355" lon="8.666508661721927"><ele>447.3333333333333</ele><time>2026-05-01T07:28:40Z</time></trkpt><trkpt lat="40.732500171940366" lon="8.666654730254077"><ele>449.0</ele><time>2026-05-01T07:28:41Z</time></trkpt><trkpt lat="40.73238178029529" lon="8.666778159568084"><ele>449.0</ele><time>2026-05-01T07:28:42Z</time></trkpt><trkpt lat="40.732270007208704" lon="8.66686741521181"><ele>449.0</ele><time>2026-05-01T07:28:43Z</time></trkpt><trkpt lat="40.73216369783225" lon="8.666918630702789"><ele>449.0</ele><time>2026-05-01T07:28:44Z</time></trkpt><trkpt lat="40.73207476133065" lon="8.666952062105084"><ele>449.0</ele><time>2026-05-01T07:28:45Z</time></trkpt><trkpt lat="40.73201019634689" lon="8.667014049681564"><ele>449.0</ele><time>2026-05-01T07:28:46Z</time></trkpt><trkpt lat="40.731968687972554" lon="8.667119479770323"><ele>449.0</ele><time>2026-05-01T07:28:47Z</time></trkpt><trkpt lat="40.731957886678316" lon="8.667249287532352"><ele>449.0</ele><time>2026-05-01T07:28:48Z</time></trkpt><trkpt lat="40.73198341784756" lon="8.667381894305292"><ele>449.0</ele><time>2026-05-01T07:28:49Z</time></trkpt><trkpt lat="40.73204201920357" lon="8.66750289195383"><ele>449.0</ele><time>2026-05-01T07:28:50Z</time></trkpt><trkpt lat="40.73214266859593" lon="8.667590523972338"><ele>449.0</ele><time>2026-05-01T07:28:51Z</time></trkpt><trkpt lat="40.73227393917957" lon="8.667656318922328"><ele>449.0</ele><time>2026-05-01T07:28:52Z</time></trkpt><trkpt lat="40.73241781906863" lon="8.667712829629135"><ele>449.0</ele><time>2026-05-01T07:28:53Z</time></trkpt><trkpt lat="40.732539528956565" lon="8.667774490415448"><ele>449.0</ele><time>2026-05-01T07:28:54Z</time></trkpt><trkpt lat="40.73263837771736" lon="8.667857987071669"><ele>449.0</ele><time>2026-05-01T07:28:55Z</time></trkpt><trkpt lat="40.73272485771554" lon="8.667977473151216"><ele>449.5</ele><time>2026-05-01T07:28:56Z</time></trkpt><trkpt lat="40.7328003701241" lon="8.668126851821341"><ele>450.0</ele><time>2026-05-01T07:28:57Z</time></trkpt><trkpt lat="40.732876980582326" lon="8.668277923702636"><ele>450.5</ele><time>2026-05-01T07:28:58Z</time></trkpt><trkpt lat="40.73293149865399" lon="8.668441892740685"><ele>451.0</ele><time>2026-05-01T07:28:59Z</time></trkpt><trkpt lat="40.73296829829884" lon="8.668618126302944"><ele>454.6666666666667</ele><time>2026-05-01T07:29:00Z</time></trkpt><trkpt lat="40.732989119422726" lon="8.668804250073908"><ele>458.33333333333337</ele><time>2026-05-01T07:29:01Z</time></trkpt><trkpt lat="40.732984440710176" lon="8.669002847852747"><ele>462.0</ele><time>2026-05-01T07:29:02Z</time></trkpt><trkpt lat="40.732956179184214" lon="8.669214680185394"><ele>462.0</ele><time>2026-05-01T07:29:03Z</time></trkpt><trkpt lat="40.73288880910551" lon="8.669402523787722"><ele>462.0</ele><time>2026-05-01T07:29:04Z</time></trkpt><trkpt lat="40.73286309505003" lon="8.669576214402895"><ele>462.0</ele><time>2026-05-01T07:29:05Z</time></trkpt><trkpt lat="40.732869022754386" lon="8.669727293925046"><ele>462.0</ele><time>2026-05-01T07:29:06Z</time></trkpt><trkpt lat="40.7328598784299" lon="8.669854575511618"><ele>463.6</ele><time>2026-05-01T07:29:07Z</time></trkpt><trkpt lat="40.73289655666365" lon="8.669956686715052"><ele>465.20000000000005</ele><time>2026-05-01T07:29:08Z</time></trkpt><trkpt lat="40.732945477314836" lon="8.670039993017976"><ele>466.8</ele><time>2026-05-01T07:29:09Z</time></trkpt><trkpt lat="40.73302371194347" lon="8.670096949801774"><ele>468.4</ele><time>2026-05-01T07:29:10Z</time></trkpt><trkpt lat="40.73312126759268" lon="8.670104598386164"><ele>470.0</ele><time>2026-05-01T07:29:11Z</time></trkpt><trkpt lat="40.73322256200401" lon="8.670071774341189"><ele>470.0</ele><time>2026-05-01T07:29:12Z</time></trkpt><trkpt lat="40.73332319868575" lon="8.6699682951659"><ele>470.0</ele><time>2026-05-01T07:29:13Z</time></trkpt><trkpt lat="40.73342601841881" lon="8.669821019441267"><ele>470.0</ele><time>2026-05-01T07:29:14Z</time></trkpt><trkpt lat="40.73352857565312" lon="8.669650592621664"><ele>470.0</ele><time>2026-05-01T07:29:15Z</time></trkpt><trkpt lat="40.73363337353147" lon="8.669456135672123"><ele>473.66666666666663</ele><time>2026-05-01T07:29:16Z</time></trkpt><trkpt lat="40.733735514328934" lon="8.669249310846286"><ele>477.33333333333337</ele><time>2026-05-01T07:29:17Z</time></trkpt><trkpt lat="40.733819509080874" lon="8.669062546302921"><ele>481.0</ele><time>2026-05-01T07:29:18Z</time></trkpt><trkpt lat="40.7338993737126" lon="8.668895043677363"><ele>481.0</ele><time>2026-05-01T07:29:19Z</time></trkpt><trkpt lat="40.73399326957437" lon="8.668756939019888"><ele>481.0</ele><time>2026-05-01T07:29:20Z</time></trkpt><trkpt lat="40.7341146078176" lon="8.668636996897938"><ele>481.0</ele><time>2026-05-01T07:29:21Z</time></trkpt><trkpt lat="40.73423717609603" lon="8.668533465608007"><ele>481.0</ele><time>2026-05-01T07:29:22Z</time></trkpt><trkpt lat="40.734359173736" lon="8.668457183922651"><ele>478.0</ele><time>2026-05-01T07:29:23Z</time></trkpt><trkpt lat="40.7344764046697" lon="8.668411582634853"><ele>475.0</ele><time>2026-05-01T07:29:24Z</time></trkpt><trkpt lat="40.73459916892871" lon="8.668407749792513"><ele>472.0</ele><time>2026-05-01T07:29:25Z</time></trkpt><trkpt lat="40.73472673619826" lon="8.668453893562162"><ele>469.0</ele><time>2026-05-01T07:29:26Z</time></trkpt><trkpt lat="40.73485157670211" lon="8.66855313322011"><ele>474.0</ele><time>2026-05-01T07:29:27Z</time></trkpt><trkpt lat="40.73496282967229" lon="8.668674324006803"><ele>479.0</ele><time>2026-05-01T07:29:28Z</time></trkpt><trkpt lat="40.735084694369526" lon="8.668766656185987"><ele>484.0</ele><time>2026-05-01T07:29:29Z</time></trkpt><trkpt lat="40.73523692098521" lon="8.668812872584548"><ele>489.0</ele><time>2026-05-01T07:29:30.001Z</time></trkpt><trkpt lat="40.73541435852759" lon="8.668854219260641"><ele>489.0</ele><time>2026-05-01T07:29:31.001Z</time></trkpt><trkpt lat="40.73559795108609" lon="8.668932833844845"><ele>489.0</ele><time>2026-05-01T07:29:32.001Z</time></trkpt><trkpt lat="40.735771529161056" lon="8.669031986833906"><ele>489.0</ele><time>2026-05-01T07:29:33.001Z</time></trkpt><trkpt lat="40.735944694250165" lon="8.669122566191584"><ele>487.33333333333337</ele><time>2026-05-01T07:29:34.001Z</time></trkpt><trkpt lat="40.736117438093636" lon="8.669193620972598"><ele>485.6666666666667</ele><time>2026-05-01T07:29:35.001Z</time></trkpt><trkpt lat="40.73629103348268" lon="8.669229828763443"><ele>484.0</ele><time>2026-05-01T07:29:36.001Z</time></trkpt><trkpt lat="40.73645670594523" lon="8.66924015055477"><ele>484.0</ele><time>2026-05-01T07:29:37.001Z</time></trkpt><trkpt lat="40.73663067489555" lon="8.669274518411228"><ele>484.0</ele><time>2026-05-01T07:29:38.001Z</time></trkpt><trkpt lat="40.73680571927149" lon="8.669358625065772"><ele>484.0</ele><time>2026-05-01T07:29:39.001Z</time></trkpt><trkpt lat="40.73697883336663" lon="8.669447399523243"><ele>493.6666666666667</ele><time>2026-05-01T07:29:40.001Z</time></trkpt><trkpt lat="40.73716991909106" lon="8.669501542512856"><ele>503.33333333333337</ele><time>2026-05-01T07:29:41.001Z</time></trkpt><trkpt lat="40.73735683202807" lon="8.669540308900887"><ele>513.0</ele><time>2026-05-01T07:29:42.001Z</time></trkpt><trkpt lat="40.73752138043982" lon="8.669571300264439"><ele>513.0</ele><time>2026-05-01T07:29:43.001Z</time></trkpt><trkpt lat="40.73767657451979" lon="8.669606254975392"><ele>513.0</ele><time>2026-05-01T07:29:44.001Z</time></trkpt><trkpt lat="40.73781406330147" lon="8.66964809272475"><ele>513.0</ele><time>2026-05-01T07:29:45.001Z</time></trkpt><trkpt lat="40.73792931132538" lon="8.669710193909657"><ele>513.0</ele><time>2026-05-01T07:29:46.001Z</time></trkpt><trkpt lat="40.73802779476479" lon="8.669808274693493"><ele>515.0</ele><time>2026-05-01T07:29:47.001Z</time></trkpt><trkpt lat="40.73811815563348" lon="8.669932039296482"><ele>517.0</ele><time>2026-05-01T07:29:48.001Z</time></trkpt><trkpt lat="40.7382093414706" lon="8.670073472017068"><ele>519.0</ele><time>2026-05-01T07:29:49.001Z</time></trkpt><trkpt lat="40.73831932956146" lon="8.670207881090235"><ele>521.0</ele><time>2026-05-01T07:29:50.001Z</time></trkpt><trkpt lat="40.73844412547709" lon="8.670336293700952"><ele>516.5</ele><time>2026-05-01T07:29:51.001Z</time></trkpt><trkpt lat="40.738557233182924" lon="8.670454363256274"><ele>512.0</ele><time>2026-05-01T07:29:52.001Z</time></trkpt><trkpt lat="40.73866381759241" lon="8.670586804798626"><ele>507.5</ele><time>2026-05-01T07:29:53.001Z</time></trkpt><trkpt lat="40.738770458129004" lon="8.670733822701047"><ele>503.0</ele><time>2026-05-01T07:29:54.001Z</time></trkpt><trkpt lat="40.73885481702389" lon="8.670948820622717"><ele>508.3333333333333</ele><time>2026-05-01T07:29:55.001Z</time></trkpt><trkpt lat="40.738963105776826" lon="8.671147127512809"><ele>513.6666666666666</ele><time>2026-05-01T07:29:56.001Z</time></trkpt><trkpt lat="40.739084601059716" lon="8.67134450306459"><ele>519.0</ele><time>2026-05-01T07:29:57.001Z</time></trkpt><trkpt lat="40.73921449463505" lon="8.671539417679321"><ele>519.0</ele><time>2026-05-01T07:29:58.001Z</time></trkpt><trkpt lat="40.73933963878193" lon="8.67169987744571"><ele>519.0</ele><time>2026-05-01T07:29:59.001Z</time></trkpt><trkpt lat="40.73944434495633" lon="8.67186539844693"><ele>519.0</ele><time>2026-05-01T07:30:00.001Z</time></trkpt><trkpt lat="40.73953759836055" lon="8.672016868819673"><ele>520.0</ele><time>2026-05-01T07:30:01.001Z</time></trkpt><trkpt lat="40.739623566983404" lon="8.672148557094939"><ele>521.0</ele><time>2026-05-01T07:30:02.001Z</time></trkpt><trkpt lat="40.739701093960754" lon="8.6722624723241"><ele>522.0</ele><time>2026-05-01T07:30:03.001Z</time></trkpt><trkpt lat="40.73977526074222" lon="8.672354345618842"><ele>523.0</ele><time>2026-05-01T07:30:04.001Z</time></trkpt><trkpt lat="40.73985083519465" lon="8.672410515279443"><ele>524.0</ele><time>2026-05-01T07:30:05.001Z</time></trkpt><trkpt lat="40.73993618599506" lon="8.672431504823864"><ele>524.0</ele><time>2026-05-01T07:30:06.001Z</time></trkpt><trkpt lat="40.740019811956635" lon="8.67241267936727"><ele>524.0</ele><time>2026-05-01T07:30:07.001Z</time></trkpt><trkpt lat="40.74010669551741" lon="8.672353047004854"><ele>524.0</ele><time>2026-05-01T07:30:08.001Z</time></trkpt><trkpt lat="40.740179766841344" lon="8.672241272041015"><ele>524.0</ele><time>2026-05-01T07:30:09.001Z</time></trkpt><trkpt lat="40.74022941608798" lon="8.6720950957494"><ele>524.0</ele><time>2026-05-01T07:30:10.001Z</time></trkpt><trkpt lat="40.740241660186946" lon="8.67190690257489"><ele>531.0</ele><time>2026-05-01T07:30:10.999Z</time></trkpt><trkpt lat="40.740237367555366" lon="8.671711261784429"><ele>538.0</ele><time>2026-05-01T07:30:11.999Z</time></trkpt><trkpt lat="40.74024000391007" lon="8.671513011605775"><ele>545.0</ele><time>2026-05-01T07:30:12.999Z</time></trkpt><trkpt lat="40.74026092649739" lon="8.671312570183762"><ele>544.3333333333333</ele><time>2026-05-01T07:30:13.999Z</time></trkpt><trkpt lat="40.74031426995146" lon="8.671102765698919"><ele>543.6666666666666</ele><time>2026-05-01T07:30:14.999Z</time></trkpt><trkpt lat="40.74038580350187" lon="8.670889696057603"><ele>543.0</ele><time>2026-05-01T07:30:15.999Z</time></trkpt><trkpt lat="40.74045293615286" lon="8.67065940932337"><ele>543.0</ele><time>2026-05-01T07:30:16.999Z</time></trkpt><trkpt lat="40.74050298573136" lon="8.670423602894187"><ele>543.0</ele><time>2026-05-01T07:30:17.999Z</time></trkpt><trkpt lat="40.740539236237304" lon="8.670190204507223"><ele>543.0</ele><time>2026-05-01T07:30:18.999Z</time></trkpt><trkpt lat="40.740568752733076" lon="8.669973353397122"><ele>541.6666666666666</ele><time>2026-05-01T07:30:20Z</time></trkpt><trkpt lat="40.740615345980025" lon="8.669784654631105"><ele>540.3333333333333</ele><time>2026-05-01T07:30:21Z</time></trkpt><trkpt lat="40.74069000881253" lon="8.669608285528735"><ele>539.0</ele><time>2026-05-01T07:30:22Z</time></trkpt><trkpt lat="40.740789484312934" lon="8.66942834253472"><ele>537.3333333333333</ele><time>2026-05-01T07:30:23Z</time></trkpt><trkpt lat="40.74090755916984" lon="8.669247209244318"><ele>535.6666666666666</ele><time>2026-05-01T07:30:24Z</time></trkpt><trkpt lat="40.74102834090361" lon="8.669071848018593"><ele>534.0</ele><time>2026-05-01T07:30:25Z</time></trkpt><trkpt lat="40.74115017349971" lon="8.668896781787746"><ele>542.3333333333334</ele><time>2026-05-01T07:30:26Z</time></trkpt><trkpt lat="40.741256654936585" lon="8.66873595888864"><ele>550.6666666666667</ele><time>2026-05-01T07:30:27Z</time></trkpt><trkpt lat="40.74133925585732" lon="8.668575876902555"><ele>559.0</ele><time>2026-05-01T07:30:28Z</time></trkpt><trkpt lat="40.7414014586082" lon="8.668405790804606"><ele>559.0</ele><time>2026-05-01T07:30:29Z</time></trkpt><trkpt lat="40.7414308879044" lon="8.668212352261403"><ele>559.0</ele><time>2026-05-01T07:30:30Z</time></trkpt><trkpt lat="40.74142699798078" lon="8.667995697713243"><ele>559.0</ele><time>2026-05-01T07:30:31Z</time></trkpt><trkpt lat="40.74140323992214" lon="8.667769323506933"><ele>561.0</ele><time>2026-05-01T07:30:32Z</time></trkpt><trkpt lat="40.741372667265566" lon="8.667532447771775"><ele>563.0</ele><time>2026-05-01T07:30:33Z</time></trkpt><trkpt lat="40.741355526458065" lon="8.667285200787266"><ele>565.0</ele><time>2026-05-01T07:30:34Z</time></trkpt><trkpt lat="40.74135567543947" lon="8.667042401187752"><ele>565.0</ele><time>2026-05-01T07:30:35Z</time></trkpt><trkpt lat="40.74136509053896" lon="8.666824671294423"><ele>565.0</ele><time>2026-05-01T07:30:36Z</time></trkpt><trkpt lat="40.74138286920983" lon="8.66662174517802"><ele>565.0</ele><time>2026-05-01T07:30:37Z</time></trkpt><trkpt lat="40.741396898807444" lon="8.666417136706372"><ele>565.0</ele><time>2026-05-01T07:30:38Z</time></trkpt><trkpt lat="40.741408698925405" lon="8.666203519003279"><ele>565.0</ele><time>2026-05-01T07:30:39Z</time></trkpt><trkpt lat="40.741426696363874" lon="8.665972435066564"><ele>565.0</ele><time>2026-05-01T07:30:40Z</time></trkpt><trkpt lat="40.74144865142438" lon="8.665732364334508"><ele>563.3333333333334</ele><time>2026-05-01T07:30:41Z</time></trkpt><trkpt lat="40.74146587980268" lon="8.665512082801639"><ele>561.6666666666666</ele><time>2026-05-01T07:30:42Z</time></trkpt><trkpt lat="40.741482304245324" lon="8.665307594044792"><ele>560.0</ele><time>2026-05-01T07:30:43Z</time></trkpt><trkpt lat="40.741496408812004" lon="8.66512417679577"><ele>559.8</ele><time>2026-05-01T07:30:44Z</time></trkpt><trkpt lat="40.74151163369861" lon="8.664966125210528"><ele>559.6</ele><time>2026-05-01T07:30:45Z</time></trkpt><trkpt lat="40.74154115407092" lon="8.664839166550363"><ele>559.4</ele><time>2026-05-01T07:30:46Z</time></trkpt><trkpt lat="40.741593453361396" lon="8.66473774166301"><ele>559.2</ele><time>2026-05-01T07:30:47Z</time></trkpt><trkpt lat="40.741668657813655" lon="8.664687214449605"><ele>559.0</ele><time>2026-05-01T07:30:48Z</time></trkpt><trkpt lat="40.741754814257305" lon="8.664673676417042"><ele>559.0</ele><time>2026-05-01T07:30:49Z</time></trkpt><trkpt lat="40.741840347911776" lon="8.664705076497203"><ele>559.0</ele><time>2026-05-01T07:30:50Z</time></trkpt><trkpt lat="40.74190798097489" lon="8.664783434610083"><ele>559.0</ele><time>2026-05-01T07:30:51Z</time></trkpt><trkpt lat="40.74194539588154" lon="8.66489570342156"><ele>559.0</ele><time>2026-05-01T07:30:52Z</time></trkpt><trkpt lat="40.741925430087235" lon="8.665050798549041"><ele>559.0</ele><time>2026-05-01T07:30:53Z</time></trkpt><trkpt lat="40.74191763074968" lon="8.665240707420512"><ele>562.25</ele><time>2026-05-01T07:30:54Z</time></trkpt><trkpt lat="40.741906457831725" lon="8.665432499582478"><ele>565.5</ele><time>2026-05-01T07:30:55Z</time></trkpt><trkpt lat="40.74189546312998" lon="8.665623858122549"><ele>568.75</ele><time>2026-05-01T07:30:56Z</time></trkpt><trkpt lat="40.741901702478984" lon="8.665800022796908"><ele>572.0</ele><time>2026-05-01T07:30:57Z</time></trkpt><trkpt lat="40.741891977232484" lon="8.66596491365344"><ele>570.25</ele><time>2026-05-01T07:30:58Z</time></trkpt><trkpt lat="40.74187740454071" lon="8.666131615846929"><ele>568.5</ele><time>2026-05-01T07:30:59Z</time></trkpt><trkpt lat="40.74185873448105" lon="8.666284879420507"><ele>566.75</ele><time>2026-05-01T07:31:00Z</time></trkpt><trkpt lat="40.741849750658794" lon="8.666449206564446"><ele>565.0</ele><time>2026-05-01T07:31:01Z</time></trkpt><trkpt lat="40.74185207996374" lon="8.666627771728187"><ele>565.0</ele><time>2026-05-01T07:31:02Z</time></trkpt><trkpt lat="40.741830048628444" lon="8.666809583828506"><ele>565.0</ele><time>2026-05-01T07:31:03Z</time></trkpt><trkpt lat="40.74182091836923" lon="8.666976588974205"><ele>565.0</ele><time>2026-05-01T07:31:04Z</time></trkpt><trkpt lat="40.74181284695463" lon="8.667124537027549"><ele>565.0</ele><time>2026-05-01T07:31:05Z</time></trkpt><trkpt lat="40.74181305860116" lon="8.667256398614656"><ele>565.0</ele><time>2026-05-01T07:31:06Z</time></trkpt><trkpt lat="40.74182036195348" lon="8.667367314593928"><ele>565.0</ele><time>2026-05-01T07:31:07Z</time></trkpt><trkpt lat="40.74186714907115" lon="8.667475589243793"><ele>565.0</ele><time>2026-05-01T07:31:08Z</time></trkpt><trkpt lat="40.74191692910211" lon="8.667584128709754"><ele>565.0</ele><time>2026-05-01T07:31:09Z</time></trkpt><trkpt lat="40.74198336935999" lon="8.667686313913705"><ele>565.0</ele><time>2026-05-01T07:31:10Z</time></trkpt><trkpt lat="40.74206035786394" lon="8.667777844996966"><ele>569.2</ele><time>2026-05-01T07:31:11Z</time></trkpt><trkpt lat="40.74215776552696" lon="8.66785707287751"><ele>573.4</ele><time>2026-05-01T07:31:12Z</time></trkpt><trkpt lat="40.742260200400644" lon="8.667915116123506"><ele>577.6</ele><time>2026-05-01T07:31:13Z</time></trkpt><trkpt lat="40.74233520280601" lon="8.66798115660636"><ele>581.8</ele><time>2026-05-01T07:31:14Z</time></trkpt><trkpt lat="40.74240431014899" lon="8.66802115668552"><ele>586.0</ele><time>2026-05-01T07:31:15Z</time></trkpt><trkpt lat="40.74245702523697" lon="8.668137677475121"><ele>586.0</ele><time>2026-05-01T07:31:17Z</time></trkpt><trkpt lat="40.74244514182283" lon="8.668228569153804"><ele>586.0</ele><time>2026-05-01T07:31:18Z</time></trkpt><trkpt lat="40.742421598099284" lon="8.668340715047803"><ele>586.0</ele><time>2026-05-01T07:31:19Z</time></trkpt><trkpt lat="40.74241278431712" lon="8.668474172087864"><ele>586.0</ele><time>2026-05-01T07:31:20Z</time></trkpt><trkpt lat="40.74239864027099" lon="8.668621853946519"><ele>586.0</ele><time>2026-05-01T07:31:21Z</time></trkpt><trkpt lat="40.742395369552575" lon="8.668776498364874"><ele>586.8</ele><time>2026-05-01T07:31:22Z</time></trkpt><trkpt lat="40.742389108228316" lon="8.66891181707144"><ele>587.6</ele><time>2026-05-01T07:31:23Z</time></trkpt><trkpt lat="40.74238127627863" lon="8.669035019271858"><ele>588.4</ele><time>2026-05-01T07:31:24Z</time></trkpt><trkpt lat="40.742360768351645" lon="8.66914993696079"><ele>589.2</ele><time>2026-05-01T07:31:25Z</time></trkpt><trkpt lat="40.74230579984738" lon="8.669241511125623"><ele>590.0</ele><time>2026-05-01T07:31:26Z</time></trkpt><trkpt lat="40.74223693909215" lon="8.669323362306542"><ele>590.0</ele><time>2026-05-01T07:31:27Z</time></trkpt><trkpt lat="40.74213872954142" lon="8.669348495182478"><ele>590.0</ele><time>2026-05-01T07:31:28Z</time></trkpt><trkpt lat="40.74208098360074" lon="8.66940467790256"><ele>590.0</ele><time>2026-05-01T07:31:29Z</time></trkpt><trkpt lat="40.74202885679149" lon="8.669491718875168"><ele>590.0</ele><time>2026-05-01T07:31:30Z</time></trkpt><trkpt lat="40.74202515882414" lon="8.669611774922181"><ele>590.0</ele><time>2026-05-01T07:31:31Z</time></trkpt><trkpt lat="40.74203218049339" lon="8.669737772218895"><ele>590.0</ele><time>2026-05-01T07:31:32Z</time></trkpt><trkpt lat="40.74206173465306" lon="8.669864289663272"><ele>591.1666666666666</ele><time>2026-05-01T07:31:33Z</time></trkpt><trkpt lat="40.74210233370097" lon="8.669991599549304"><ele>592.3333333333333</ele><time>2026-05-01T07:31:34Z</time></trkpt><trkpt lat="40.74213921492298" lon="8.670104154666658"><ele>593.5</ele><time>2026-05-01T07:31:35Z</time></trkpt><trkpt lat="40.742167723988544" lon="8.670209376942822"><ele>594.6666666666666</ele><time>2026-05-01T07:31:36.001Z</time></trkpt><trkpt lat="40.7421884995328" lon="8.67030820305571"><ele>595.8333333333334</ele><time>2026-05-01T07:31:37.001Z</time></trkpt><trkpt lat="40.74219917036752" lon="8.670400245287974"><ele>597.0</ele><time>2026-05-01T07:31:38.001Z</time></trkpt><trkpt lat="40.74218570546606" lon="8.6705020276597"><ele>597.3333333333334</ele><time>2026-05-01T07:31:39.001Z</time></trkpt><trkpt lat="40.742197051552125" lon="8.670616259672865"><ele>597.6666666666666</ele><time>2026-05-01T07:31:40.001Z</time></trkpt><trkpt lat="40.742190821229464" lon="8.670736100010323"><ele>598.0</ele><time>2026-05-01T07:31:41.001Z</time></trkpt><trkpt lat="40.74217879835619" lon="8.670854275286048"><ele>598.3333333333333</ele><time>2026-05-01T07:31:42.001Z</time></trkpt><trkpt lat="40.74216642990182" lon="8.67097014426127"><ele>598.6666666666666</ele><time>2026-05-01T07:31:43.001Z</time></trkpt><trkpt lat="40.74215334936218" lon="8.67107467836557"><ele>599.0</ele><time>2026-05-01T07:31:44.001Z</time></trkpt><trkpt lat="40.74213995888817" lon="8.671169014502166"><ele>600.1428571428571</ele><time>2026-05-01T07:31:45.001Z</time></trkpt><trkpt lat="40.74213177065418" lon="8.671253820625711"><ele>601.2857142857142</ele><time>2026-05-01T07:31:46.001Z</time></trkpt><trkpt lat="40.742121833893336" lon="8.671336150708118"><ele>602.4285714285713</ele><time>2026-05-01T07:31:47.001Z</time></trkpt><trkpt lat="40.742111730237454" lon="8.67142694898222"><ele>603.5714285714286</ele><time>2026-05-01T07:31:48.001Z</time></trkpt><trkpt lat="40.74208265614211" lon="8.671523455220676"><ele>604.7142857142857</ele><time>2026-05-01T07:31:49.001Z</time></trkpt><trkpt lat="40.74207002415241" lon="8.671626944419279"><ele>605.8571428571428</ele><time>2026-05-01T07:31:50.001Z</time></trkpt><trkpt lat="40.74205664957141" lon="8.671738109690262"><ele>607.0</ele><time>2026-05-01T07:31:51.001Z</time></trkpt><trkpt lat="40.74204303541797" lon="8.671851266357821"><ele>608.6666666666667</ele><time>2026-05-01T07:31:52.001Z</time></trkpt><trkpt lat="40.742029923141104" lon="8.671966343758209"><ele>610.3333333333334</ele><time>2026-05-01T07:31:53.001Z</time></trkpt><trkpt lat="40.742035029715716" lon="8.672075776136756"><ele>612.0</ele><time>2026-05-01T07:31:54.001Z</time></trkpt><trkpt lat="40.74202431432842" lon="8.672177315261889"><ele>613.6666666666666</ele><time>2026-05-01T07:31:55.001Z</time></trkpt><trkpt lat="40.74201156023843" lon="8.672280689930663"><ele>615.3333333333333</ele><time>2026-05-01T07:31:56.001Z</time></trkpt><trkpt lat="40.7419995425556" lon="8.672390648404274"><ele>617.0</ele><time>2026-05-01T07:31:57.001Z</time></trkpt><trkpt lat="40.74198805563226" lon="8.672507435953916"><ele>617.0</ele><time>2026-05-01T07:31:58.001Z</time></trkpt><trkpt lat="40.74197780218658" lon="8.67262797319601"><ele>617.0</ele><time>2026-05-01T07:31:59.001Z</time></trkpt><trkpt lat="40.74196914338822" lon="8.672749985316365"><ele>617.0</ele><time>2026-05-01T07:32:00.001Z</time></trkpt><trkpt lat="40.74196080612586" lon="8.67286230506315"><ele>617.0</ele><time>2026-05-01T07:32:01.001Z</time></trkpt><trkpt lat="40.741953173490685" lon="8.67296208510812"><ele>617.0</ele><time>2026-05-01T07:32:02.001Z</time></trkpt><trkpt lat="40.74194734685669" lon="8.673053303483305"><ele>617.0</ele><time>2026-05-01T07:32:03.001Z</time></trkpt><trkpt lat="40.74193850327788" lon="8.673206467191985"><ele>615.6</ele><time>2026-05-01T07:32:05.001Z</time></trkpt><trkpt lat="40.74192712103478" lon="8.673334723080497"><ele>614.2</ele><time>2026-05-01T07:32:07.001Z</time></trkpt><trkpt lat="40.74193311791893" lon="8.67351634684503"><ele>612.8</ele><time>2026-05-01T07:32:09.001Z</time></trkpt><trkpt lat="40.74193633785991" lon="8.673630564461746"><ele>611.4</ele><time>2026-05-01T07:32:10.001Z</time></trkpt><trkpt lat="40.741939232881435" lon="8.673740690205385"><ele>610.0</ele><time>2026-05-01T07:32:11.001Z</time></trkpt><trkpt lat="40.741941185714154" lon="8.673830474017526"><ele>608.4</ele><time>2026-05-01T07:32:12.001Z</time></trkpt><trkpt lat="40.741946256981606" lon="8.673997553176578"><ele>606.8</ele><time>2026-05-01T07:32:14.001Z</time></trkpt><trkpt lat="40.741944949130286" lon="8.674089708400222"><ele>605.2</ele><time>2026-05-01T07:32:15.001Z</time></trkpt><trkpt lat="40.7419526491162" lon="8.67417401092537"><ele>603.6</ele><time>2026-05-01T07:32:16.001Z</time></trkpt><trkpt lat="40.74196658029235" lon="8.67432203804429"><ele>602.0</ele><time>2026-05-01T07:32:17.999Z</time></trkpt><trkpt lat="40.74196952670519" lon="8.67445910500183"><ele>600.6</ele><time>2026-05-01T07:32:19.999Z</time></trkpt><trkpt lat="40.74195397083419" lon="8.674572221379297"><ele>599.2</ele><time>2026-05-01T07:32:21.999Z</time></trkpt><trkpt lat="40.741875400874584" lon="8.674598648893118"><ele>597.8</ele><time>2026-05-01T07:32:23.999Z</time></trkpt><trkpt lat="40.74177835141623" lon="8.674624378571758"><ele>596.4</ele><time>2026-05-01T07:32:25.999Z</time></trkpt><trkpt lat="40.74168194867696" lon="8.674613331146439"><ele>595.0</ele><time>2026-05-01T07:32:27.999Z</time></trkpt><trkpt lat="40.74164093630426" lon="8.674855414019746"><ele>595.0</ele><time>2026-05-01T07:32:29.999Z</time></trkpt><trkpt lat="40.74162170514058" lon="8.674953425057804"><ele>595.0</ele><time>2026-05-01T07:32:30.999Z</time></trkpt><trkpt lat="40.741582780343236" lon="8.675055010844751"><ele>595.0</ele><time>2026-05-01T07:32:31.999Z</time></trkpt><trkpt lat="40.74150672122117" lon="8.675157253647278"><ele>595.0</ele><time>2026-05-01T07:32:32.999Z</time></trkpt><trkpt lat="40.741428897077654" lon="8.675266691009298"><ele>595.0</ele><time>2026-05-01T07:32:33.999Z</time></trkpt><trkpt lat="40.74135967384176" lon="8.675398751210736"><ele>596.0</ele><time>2026-05-01T07:32:34.999Z</time></trkpt><trkpt lat="40.741289025236284" lon="8.675528365586892"><ele>597.0</ele><time>2026-05-01T07:32:35.999Z</time></trkpt><trkpt lat="40.7411943492505" lon="8.675684380927814"><ele>598.0</ele><time>2026-05-01T07:32:36.999Z</time></trkpt><trkpt lat="40.74108869532888" lon="8.675833741556017"><ele>599.0</ele><time>2026-05-01T07:32:38Z</time></trkpt><trkpt lat="40.74100815098865" lon="8.675971313430697"><ele>602.75</ele><time>2026-05-01T07:32:39Z</time></trkpt><trkpt lat="40.74091907654384" lon="8.676114486017182"><ele>606.5</ele><time>2026-05-01T07:32:40Z</time></trkpt><trkpt lat="40.740823297479274" lon="8.676260431928268"><ele>610.25</ele><time>2026-05-01T07:32:41Z</time></trkpt><trkpt lat="40.74075145675277" lon="8.676421424571068"><ele>614.0</ele><time>2026-05-01T07:32:42Z</time></trkpt><trkpt lat="40.740667088518144" lon="8.676575173131196"><ele>614.0</ele><time>2026-05-01T07:32:43Z</time></trkpt><trkpt lat="40.74058712019788" lon="8.67673083668138"><ele>614.0</ele><time>2026-05-01T07:32:44Z</time></trkpt><trkpt lat="40.74052521156275" lon="8.67686948601691"><ele>614.0</ele><time>2026-05-01T07:32:45Z</time></trkpt><trkpt lat="40.740471074384516" lon="8.67698670230712"><ele>614.0</ele><time>2026-05-01T07:32:46Z</time></trkpt><trkpt lat="40.7404142139273" lon="8.677071540882764"><ele>616.5</ele><time>2026-05-01T07:32:47Z</time></trkpt><trkpt lat="40.7403528924754" lon="8.677123456068111"><ele>619.0</ele><time>2026-05-01T07:32:48Z</time></trkpt><trkpt lat="40.74028090291816" lon="8.677172435926382"><ele>621.5</ele><time>2026-05-01T07:32:49Z</time></trkpt><trkpt lat="40.74020083455937" lon="8.677211760810172"><ele>624.0</ele><time>2026-05-01T07:32:50Z</time></trkpt><trkpt lat="40.740108934052714" lon="8.677228588907848"><ele>626.5</ele><time>2026-05-01T07:32:51Z</time></trkpt><trkpt lat="40.74001270498414" lon="8.677193635277858"><ele>629.0</ele><time>2026-05-01T07:32:52Z</time></trkpt><trkpt lat="40.73990760116422" lon="8.67716735119372"><ele>630.0</ele><time>2026-05-01T07:32:53Z</time></trkpt><trkpt lat="40.73978302721631" lon="8.677138695996716"><ele>631.0</ele><time>2026-05-01T07:32:54Z</time></trkpt><trkpt lat="40.73966113361377" lon="8.677110301691828"><ele>632.0</ele><time>2026-05-01T07:32:55Z</time></trkpt><trkpt lat="40.73953721342" lon="8.67707751129512"><ele>633.0</ele><time>2026-05-01T07:32:56Z</time></trkpt><trkpt lat="40.73941267345827" lon="8.677040220256467"><ele>634.75</ele><time>2026-05-01T07:32:57Z</time></trkpt><trkpt lat="40.73928808886686" lon="8.676984872173959"><ele>636.5</ele><time>2026-05-01T07:32:58Z</time></trkpt><trkpt lat="40.73916549358353" lon="8.676904633038022"><ele>638.25</ele><time>2026-05-01T07:32:59Z</time></trkpt><trkpt lat="40.73904169648365" lon="8.676818301284353"><ele>640.0</ele><time>2026-05-01T07:33:00Z</time></trkpt><trkpt lat="40.73893282469033" lon="8.676730342251682"><ele>640.25</ele><time>2026-05-01T07:33:01Z</time></trkpt><trkpt lat="40.73882337465259" lon="8.67665563452642"><ele>640.5</ele><time>2026-05-01T07:33:02Z</time></trkpt><trkpt lat="40.7387256066506" lon="8.676556040057548"><ele>640.75</ele><time>2026-05-01T07:33:03Z</time></trkpt><trkpt lat="40.738625981779066" lon="8.676450482202943"><ele>641.0</ele><time>2026-05-01T07:33:04Z</time></trkpt><trkpt lat="40.73853117363799" lon="8.676314784218794"><ele>641.0</ele><time>2026-05-01T07:33:05Z</time></trkpt><trkpt lat="40.738420221400744" lon="8.676192612263693"><ele>641.0</ele><time>2026-05-01T07:33:06Z</time></trkpt><trkpt lat="40.73830548666086" lon="8.676056931157841"><ele>641.0</ele><time>2026-05-01T07:33:07Z</time></trkpt><trkpt lat="40.73818785721286" lon="8.67591053184377"><ele>635.3333333333333</ele><time>2026-05-01T07:33:08Z</time></trkpt><trkpt lat="40.738073123550855" lon="8.675764342425946"><ele>629.6666666666666</ele><time>2026-05-01T07:33:09Z</time></trkpt><trkpt lat="40.737961264349714" lon="8.675620953483483"><ele>624.0</ele><time>2026-05-01T07:33:10Z</time></trkpt><trkpt lat="40.737846113775575" lon="8.67547170462088"><ele>624.0</ele><time>2026-05-01T07:33:11Z</time></trkpt><trkpt lat="40.737733643832144" lon="8.675327477587853"><ele>624.0</ele><time>2026-05-01T07:33:12Z</time></trkpt><trkpt lat="40.73762848330936" lon="8.67519459511897"><ele>624.0</ele><time>2026-05-01T07:33:13Z</time></trkpt><trkpt lat="40.73752362061343" lon="8.67507103617494"><ele>624.0</ele><time>2026-05-01T07:33:14Z</time></trkpt><trkpt lat="40.737405897285555" lon="8.67494886521053"><ele>626.25</ele><time>2026-05-01T07:33:15Z</time></trkpt><trkpt lat="40.737293302675965" lon="8.674833971400181"><ele>628.5</ele><time>2026-05-01T07:33:16Z</time></trkpt><trkpt lat="40.73719037384593" lon="8.674726719379649"><ele>630.75</ele><time>2026-05-01T07:33:17Z</time></trkpt><trkpt lat="40.737097127220416" lon="8.674621589419619"><ele>633.0</ele><time>2026-05-01T07:33:18Z</time></trkpt><trkpt lat="40.73702487074185" lon="8.674519391739242"><ele>633.0</ele><time>2026-05-01T07:33:19Z</time></trkpt><trkpt lat="40.73697006906109" lon="8.674428137809379"><ele>633.0</ele><time>2026-05-01T07:33:20Z</time></trkpt><trkpt lat="40.7369377972481" lon="8.674356444210794"><ele>633.0</ele><time>2026-05-01T07:33:21Z</time></trkpt><trkpt lat="40.736896769129956" lon="8.674282576437937"><ele>633.0</ele><time>2026-05-01T07:33:23Z</time></trkpt><trkpt lat="40.73684917548505" lon="8.674214786643864"><ele>633.0</ele><time>2026-05-01T07:33:27Z</time></trkpt><trkpt lat="40.73688327252469" lon="8.674293616575493"><ele>633.0</ele><time>2026-05-01T07:33:39Z</time></trkpt><trkpt lat="40.736911618999976" lon="8.674404515968703"><ele>633.0</ele><time>2026-05-01T07:33:40Z</time></trkpt><trkpt lat="40.73691120455421" lon="8.674509419790542"><ele>633.0</ele><time>2026-05-01T07:33:41Z</time></trkpt><trkpt lat="40.73693303023664" lon="8.674624002922782"><ele>633.0</ele><time>2026-05-01T07:33:42Z</time></trkpt><trkpt lat="40.73695428746228" lon="8.674761867553046"><ele>633.0</ele><time>2026-05-01T07:33:43Z</time></trkpt><trkpt lat="40.736973500915106" lon="8.674939074484978"><ele>633.0</ele><time>2026-05-01T07:33:44Z</time></trkpt><trkpt lat="40.73698916423715" lon="8.675131989164509"><ele>637.6666666666666</ele><time>2026-05-01T07:33:45.001Z</time></trkpt><trkpt lat="40.73700028862529" lon="8.675338102247899"><ele>642.3333333333333</ele><time>2026-05-01T07:33:46.001Z</time></trkpt><trkpt lat="40.73701381064647" lon="8.675563726308305"><ele>647.0</ele><time>2026-05-01T07:33:47.001Z</time></trkpt><trkpt lat="40.73702741194246" lon="8.6757735570023"><ele>647.0</ele><time>2026-05-01T07:33:48.001Z</time></trkpt><trkpt lat="40.73703748434069" lon="8.675981615700694"><ele>647.0</ele><time>2026-05-01T07:33:49.001Z</time></trkpt><trkpt lat="40.73704351426852" lon="8.676154654002074"><ele>647.0</ele><time>2026-05-01T07:33:50.001Z</time></trkpt><trkpt lat="40.73704430413953" lon="8.676309500184788"><ele>647.0</ele><time>2026-05-01T07:33:51.001Z</time></trkpt><trkpt lat="40.737034536175884" lon="8.676456354897624"><ele>650.25</ele><time>2026-05-01T07:33:52.001Z</time></trkpt><trkpt lat="40.73700712523165" lon="8.67660775492817"><ele>653.5</ele><time>2026-05-01T07:33:53.001Z</time></trkpt><trkpt lat="40.73696807826907" lon="8.676762376754137"><ele>656.75</ele><time>2026-05-01T07:33:54.001Z</time></trkpt><trkpt lat="40.73692330124911" lon="8.676928054522113"><ele>660.0</ele><time>2026-05-01T07:33:55.001Z</time></trkpt><trkpt lat="40.73685571118432" lon="8.677096312184622"><ele>660.5</ele><time>2026-05-01T07:33:56.001Z</time></trkpt><trkpt lat="40.736792005542995" lon="8.677257168318931"><ele>661.0</ele><time>2026-05-01T07:33:57.001Z</time></trkpt><trkpt lat="40.73672445597413" lon="8.677409167781477"><ele>661.5</ele><time>2026-05-01T07:33:58.001Z</time></trkpt><trkpt lat="40.736650494881964" lon="8.677565742430724"><ele>662.0</ele><time>2026-05-01T07:33:59.001Z</time></trkpt><trkpt lat="40.73657975954385" lon="8.67771675498508"><ele>665.25</ele><time>2026-05-01T07:34:00.001Z</time></trkpt><trkpt lat="40.7365176631779" lon="8.677856953428302"><ele>668.5</ele><time>2026-05-01T07:34:01.001Z</time></trkpt><trkpt lat="40.73645890679461" lon="8.678013174960505"><ele>671.75</ele><time>2026-05-01T07:34:02.001Z</time></trkpt><trkpt lat="40.73640693703792" lon="8.678193520512371"><ele>675.0</ele><time>2026-05-01T07:34:03.001Z</time></trkpt><trkpt lat="40.736358186780656" lon="8.678388701128222"><ele>675.0</ele><time>2026-05-01T07:34:04.001Z</time></trkpt><trkpt lat="40.73630866915543" lon="8.678572562207886"><ele>675.0</ele><time>2026-05-01T07:34:05.001Z</time></trkpt><trkpt lat="40.73626066298014" lon="8.67873962999645"><ele>675.0</ele><time>2026-05-01T07:34:06.001Z</time></trkpt><trkpt lat="40.736215150407396" lon="8.678898944210465"><ele>675.0</ele><time>2026-05-01T07:34:07.001Z</time></trkpt><trkpt lat="40.73617921168071" lon="8.679056126272265"><ele>675.5</ele><time>2026-05-01T07:34:08.001Z</time></trkpt><trkpt lat="40.736148795564084" lon="8.679225947514508"><ele>676.0</ele><time>2026-05-01T07:34:09.001Z</time></trkpt><trkpt lat="40.73611954914932" lon="8.679406522305024"><ele>676.5</ele><time>2026-05-01T07:34:10.001Z</time></trkpt><trkpt lat="40.73608980368389" lon="8.679581543397543"><ele>677.0</ele><time>2026-05-01T07:34:11.001Z</time></trkpt><trkpt lat="40.73606056545104" lon="8.679745306028751"><ele>674.0</ele><time>2026-05-01T07:34:12.001Z</time></trkpt><trkpt lat="40.7360245115635" lon="8.679898114932646"><ele>671.0</ele><time>2026-05-01T07:34:13.001Z</time></trkpt><trkpt lat="40.73598205362251" lon="8.68003444890933"><ele>668.0</ele><time>2026-05-01T07:34:14.001Z</time></trkpt><trkpt lat="40.73593799546379" lon="8.680158081591722"><ele>665.0</ele><time>2026-05-01T07:34:15.001Z</time></trkpt><trkpt lat="40.73588968994015" lon="8.680267181005835"><ele>662.0</ele><time>2026-05-01T07:34:16.001Z</time></trkpt><trkpt lat="40.73581706962877" lon="8.680337206996454"><ele>659.25</ele><time>2026-05-01T07:34:17.001Z</time></trkpt><trkpt lat="40.735746475454995" lon="8.680427079088437"><ele>656.5</ele><time>2026-05-01T07:34:18.001Z</time></trkpt><trkpt lat="40.73564179757153" lon="8.680489788308558"><ele>653.75</ele><time>2026-05-01T07:34:19.001Z</time></trkpt><trkpt lat="40.73552082060413" lon="8.680529165548332"><ele>651.0</ele><time>2026-05-01T07:34:20.001Z</time></trkpt><trkpt lat="40.735405344194035" lon="8.680586572174864"><ele>651.0</ele><time>2026-05-01T07:34:21.001Z</time></trkpt><trkpt lat="40.73528874743457" lon="8.680644749041038"><ele>651.0</ele><time>2026-05-01T07:34:22.001Z</time></trkpt><trkpt lat="40.73517331087575" lon="8.680705307120792"><ele>651.0</ele><time>2026-05-01T07:34:22.999Z</time></trkpt><trkpt lat="40.73505413070502" lon="8.680767829240827"><ele>651.0</ele><time>2026-05-01T07:34:23.999Z</time></trkpt><trkpt lat="40.734929329196724" lon="8.680834577849097"><ele>649.6666666666666</ele><time>2026-05-01T07:34:24.999Z</time></trkpt><trkpt lat="40.73479540592817" lon="8.680906897762574"><ele>648.3333333333333</ele><time>2026-05-01T07:34:25.999Z</time></trkpt><trkpt lat="40.734652543490306" lon="8.680984044922475"><ele>647.0</ele><time>2026-05-01T07:34:26.999Z</time></trkpt><trkpt lat="40.73450801987759" lon="8.68106768656596"><ele>643.0</ele><time>2026-05-01T07:34:27.999Z</time></trkpt><trkpt lat="40.73435660459768" lon="8.681157411041385"><ele>639.0</ele><time>2026-05-01T07:34:28.999Z</time></trkpt><trkpt lat="40.7341993821564" lon="8.681249970063398"><ele>635.0</ele><time>2026-05-01T07:34:29.999Z</time></trkpt><trkpt lat="40.734035715587936" lon="8.681344797306235"><ele>635.0</ele><time>2026-05-01T07:34:30.999Z</time></trkpt><trkpt lat="40.7338687254292" lon="8.68144469620679"><ele>635.0</ele><time>2026-05-01T07:34:31.999Z</time></trkpt><trkpt lat="40.73370104265383" lon="8.681557490048439"><ele>635.0</ele><time>2026-05-01T07:34:32.999Z</time></trkpt><trkpt lat="40.7335422924379" lon="8.681688482449822"><ele>635.0</ele><time>2026-05-01T07:34:33.999Z</time></trkpt><trkpt lat="40.73337833992299" lon="8.681798191936704"><ele>635.0</ele><time>2026-05-01T07:34:34.999Z</time></trkpt><trkpt lat="40.733208251442115" lon="8.681889134617215"><ele>635.0</ele><time>2026-05-01T07:34:35.999Z</time></trkpt><trkpt lat="40.7330548133369" lon="8.682017537428132"><ele>635.0</ele><time>2026-05-01T07:34:36.999Z</time></trkpt><trkpt lat="40.73289578458889" lon="8.682129166505115"><ele>635.0</ele><time>2026-05-01T07:34:37.999Z</time></trkpt><trkpt lat="40.732748844248256" lon="8.682239049242655"><ele>635.0</ele><time>2026-05-01T07:34:38.999Z</time></trkpt><trkpt lat="40.73261110536638" lon="8.682327594171475"><ele>637.75</ele><time>2026-05-01T07:34:39.999Z</time></trkpt><trkpt lat="40.73249689279507" lon="8.68242437776739"><ele>640.5</ele><time>2026-05-01T07:34:40.999Z</time></trkpt><trkpt lat="40.73239290863901" lon="8.682514036424614"><ele>643.25</ele><time>2026-05-01T07:34:41.999Z</time></trkpt><trkpt lat="40.73231179760002" lon="8.68260895110735"><ele>646.0</ele><time>2026-05-01T07:34:43Z</time></trkpt><trkpt lat="40.73222560219377" lon="8.682682605449605"><ele>646.0</ele><time>2026-05-01T07:34:44Z</time></trkpt><trkpt lat="40.73214463246235" lon="8.682753382544833"><ele>646.0</ele><time>2026-05-01T07:34:45Z</time></trkpt><trkpt lat="40.73207200800924" lon="8.682808670276527"><ele>646.0</ele><time>2026-05-01T07:34:46Z</time></trkpt><trkpt lat="40.73201523894713" lon="8.682870989995967"><ele>646.0</ele><time>2026-05-01T07:34:47Z</time></trkpt><trkpt lat="40.731958304909746" lon="8.682928776451458"><ele>646.0</ele><time>2026-05-01T07:34:48Z</time></trkpt><trkpt lat="40.731900423163886" lon="8.682987574591008"><ele>646.0</ele><time>2026-05-01T07:34:49Z</time></trkpt><trkpt lat="40.73184029273078" lon="8.683052737728886"><ele>648.6666666666667</ele><time>2026-05-01T07:34:50Z</time></trkpt><trkpt lat="40.731781059238145" lon="8.683128873045714"><ele>651.3333333333334</ele><time>2026-05-01T07:34:51Z</time></trkpt><trkpt lat="40.73172679282349" lon="8.68321817009111"><ele>654.0</ele><time>2026-05-01T07:34:52Z</time></trkpt><trkpt lat="40.731672098321766" lon="8.683309045744092"><ele>656.6666666666666</ele><time>2026-05-01T07:34:53Z</time></trkpt><trkpt lat="40.73162182577844" lon="8.683409910534666"><ele>659.3333333333333</ele><time>2026-05-01T07:34:54Z</time></trkpt><trkpt lat="40.731575764822786" lon="8.683511721399384"><ele>662.0</ele><time>2026-05-01T07:34:55Z</time></trkpt><trkpt lat="40.73152973866211" lon="8.6836150127368"><ele>662.0</ele><time>2026-05-01T07:34:56Z</time></trkpt><trkpt lat="40.73148366481869" lon="8.683714744692834"><ele>662.0</ele><time>2026-05-01T07:34:57Z</time></trkpt><trkpt lat="40.73143787685376" lon="8.683816567867158"><ele>662.0</ele><time>2026-05-01T07:34:58Z</time></trkpt><trkpt lat="40.73139802173542" lon="8.683926507944228"><ele>662.0</ele><time>2026-05-01T07:34:59Z</time></trkpt><trkpt lat="40.731359972631715" lon="8.684038270703468"><ele>662.0</ele><time>2026-05-01T07:35:00Z</time></trkpt><trkpt lat="40.73132451662558" lon="8.684152948978895"><ele>662.0</ele><time>2026-05-01T07:35:01Z</time></trkpt><trkpt lat="40.73129182093289" lon="8.684270136305663"><ele>662.0</ele><time>2026-05-01T07:35:02Z</time></trkpt><trkpt lat="40.73125925723362" lon="8.684390350405385"><ele>662.0</ele><time>2026-05-01T07:35:03Z</time></trkpt><trkpt lat="40.73122644312677" lon="8.684512163596295"><ele>662.0</ele><time>2026-05-01T07:35:04Z</time></trkpt><trkpt lat="40.73119349468899" lon="8.684639041540766"><ele>662.0</ele><time>2026-05-01T07:35:05Z</time></trkpt><trkpt lat="40.73115557904804" lon="8.684764459056833"><ele>661.4000000000001</ele><time>2026-05-01T07:35:06Z</time></trkpt><trkpt lat="40.73111585184204" lon="8.684892789196738"><ele>660.8000000000001</ele><time>2026-05-01T07:35:07Z</time></trkpt><trkpt lat="40.7310774054233" lon="8.685021417835577"><ele>660.2</ele><time>2026-05-01T07:35:08Z</time></trkpt><trkpt lat="40.73102849485644" lon="8.685148967963405"><ele>659.6</ele><time>2026-05-01T07:35:09Z</time></trkpt><trkpt lat="40.73097757607995" lon="8.685280351484659"><ele>659.0</ele><time>2026-05-01T07:35:10Z</time></trkpt><trkpt lat="40.73092186408891" lon="8.68542128751751"><ele>664.5</ele><time>2026-05-01T07:35:11Z</time></trkpt><trkpt lat="40.73086358175659" lon="8.685570774406141"><ele>670.0</ele><time>2026-05-01T07:35:12Z</time></trkpt><trkpt lat="40.73080145342404" lon="8.685722410055195"><ele>675.5</ele><time>2026-05-01T07:35:13Z</time></trkpt><trkpt lat="40.730740349613846" lon="8.685882611528084"><ele>681.0</ele><time>2026-05-01T07:35:14Z</time></trkpt><trkpt lat="40.73067951974509" lon="8.68603974636974"><ele>680.25</ele><time>2026-05-01T07:35:15Z</time></trkpt><trkpt lat="40.730619432468366" lon="8.68619845431176"><ele>679.5</ele><time>2026-05-01T07:35:16Z</time></trkpt><trkpt lat="40.730562127576924" lon="8.686358482826249"><ele>678.75</ele><time>2026-05-01T07:35:17Z</time></trkpt><trkpt lat="40.730505466087266" lon="8.686526944378642"><ele>678.0</ele><time>2026-05-01T07:35:18Z</time></trkpt><trkpt lat="40.73045458022235" lon="8.686698558047732"><ele>678.0</ele><time>2026-05-01T07:35:19Z</time></trkpt><trkpt lat="40.730408133185364" lon="8.68687449862991"><ele>678.0</ele><time>2026-05-01T07:35:20Z</time></trkpt><trkpt lat="40.73036918682127" lon="8.687048713099962"><ele>678.0</ele><time>2026-05-01T07:35:21Z</time></trkpt><trkpt lat="40.73033397710224" lon="8.687214413234896"><ele>678.0</ele><time>2026-05-01T07:35:22Z</time></trkpt><trkpt lat="40.730301213261924" lon="8.687384444929316"><ele>677.4</ele><time>2026-05-01T07:35:23Z</time></trkpt><trkpt lat="40.73026864805332" lon="8.687537287508908"><ele>676.8</ele><time>2026-05-01T07:35:24Z</time></trkpt><trkpt lat="40.730234128464225" lon="8.687671412208557"><ele>676.2</ele><time>2026-05-01T07:35:25Z</time></trkpt><trkpt lat="40.73020096215748" lon="8.687779841391771"><ele>675.6</ele><time>2026-05-01T07:35:26Z</time></trkpt><trkpt lat="40.73016251478923" lon="8.68788071493417"><ele>675.0</ele><time>2026-05-01T07:35:27Z</time></trkpt><trkpt lat="40.73012050751354" lon="8.687972730509596"><ele>678.1666666666666</ele><time>2026-05-01T07:35:28Z</time></trkpt><trkpt lat="40.730078490640565" lon="8.688041671001761"><ele>681.3333333333334</ele><time>2026-05-01T07:35:29Z</time></trkpt><trkpt lat="40.72999314696611" lon="8.688129526894311"><ele>684.5</ele><time>2026-05-01T07:35:31Z</time></trkpt><trkpt lat="40.72987122446678" lon="8.688103759713945"><ele>687.6666666666667</ele><time>2026-05-01T07:35:33Z</time></trkpt><trkpt lat="40.7298170037199" lon="8.688056884383293"><ele>690.8333333333334</ele><time>2026-05-01T07:35:34Z</time></trkpt><trkpt lat="40.7297547287189" lon="8.687990927635411"><ele>694.0</ele><time>2026-05-01T07:35:35.001Z</time></trkpt><trkpt lat="40.729696658175136" lon="8.687921938709662"><ele>694.0</ele><time>2026-05-01T07:35:36.001Z</time></trkpt><trkpt lat="40.729629544543755" lon="8.687853791142082"><ele>694.0</ele><time>2026-05-01T07:35:37.001Z</time></trkpt><trkpt lat="40.72958253559756" lon="8.687755084082998"><ele>694.0</ele><time>2026-05-01T07:35:38.001Z</time></trkpt><trkpt lat="40.72955191911204" lon="8.687649815296817"><ele>694.0</ele><time>2026-05-01T07:35:39.001Z</time></trkpt><trkpt lat="40.72953838559399" lon="8.687553733026693"><ele>694.0</ele><time>2026-05-01T07:35:40.001Z</time></trkpt><trkpt lat="40.72953621994281" lon="8.68745189930532"><ele>694.0</ele><time>2026-05-01T07:35:41.001Z</time></trkpt><trkpt lat="40.729555454512884" lon="8.687345942497085"><ele>696.0</ele><time>2026-05-01T07:35:42.001Z</time></trkpt><trkpt lat="40.729589819217274" lon="8.687236694784136"><ele>698.0</ele><time>2026-05-01T07:35:43.001Z</time></trkpt><trkpt lat="40.72964743185078" lon="8.687141215219256"><ele>700.0</ele><time>2026-05-01T07:35:44.001Z</time></trkpt><trkpt lat="40.729705621852226" lon="8.687052063700383"><ele>702.0</ele><time>2026-05-01T07:35:45.001Z</time></trkpt><trkpt lat="40.72975923922877" lon="8.686988927616909"><ele>704.0</ele><time>2026-05-01T07:35:46.001Z</time></trkpt><trkpt lat="40.72984542968163" lon="8.686882176389267"><ele>705.0</ele><time>2026-05-01T07:35:48.001Z</time></trkpt><trkpt lat="40.729876298356636" lon="8.68673478945916"><ele>706.0</ele><time>2026-05-01T07:35:50.001Z</time></trkpt><trkpt lat="40.72985298736102" lon="8.686654664047209"><ele>707.0</ele><time>2026-05-01T07:35:51.001Z</time></trkpt><trkpt lat="40.72980083789841" lon="8.686583397850258"><ele>708.0</ele><time>2026-05-01T07:35:52.001Z</time></trkpt><trkpt lat="40.729724377099416" lon="8.686507752038487"><ele>709.0</ele><time>2026-05-01T07:35:53.001Z</time></trkpt><trkpt lat="40.729639881159606" lon="8.68641544384205"><ele>709.0</ele><time>2026-05-01T07:35:54.001Z</time></trkpt><trkpt lat="40.729536818102844" lon="8.686296529617753"><ele>709.0</ele><time>2026-05-01T07:35:55.001Z</time></trkpt><trkpt lat="40.72944276648557" lon="8.686158455441204"><ele>709.0</ele><time>2026-05-01T07:35:56.001Z</time></trkpt><trkpt lat="40.729326775459064" lon="8.686014925210841"><ele>709.0</ele><time>2026-05-01T07:35:57.001Z</time></trkpt><trkpt lat="40.72920793686196" lon="8.685902713596457"><ele>713.5</ele><time>2026-05-01T07:35:58.001Z</time></trkpt><trkpt lat="40.729116772510906" lon="8.68579082603978"><ele>718.0</ele><time>2026-05-01T07:35:59.001Z</time></trkpt><trkpt lat="40.7290341289501" lon="8.685689371130861"><ele>722.5</ele><time>2026-05-01T07:36:00.001Z</time></trkpt><trkpt lat="40.7289561326881" lon="8.685587740720502"><ele>727.0</ele><time>2026-05-01T07:36:01.001Z</time></trkpt><trkpt lat="40.728881862150125" lon="8.685478379689302"><ele>727.0</ele><time>2026-05-01T07:36:02.001Z</time></trkpt><trkpt lat="40.728806096836074" lon="8.685363370680932"><ele>727.0</ele><time>2026-05-01T07:36:03.001Z</time></trkpt><trkpt lat="40.72872312063058" lon="8.68524272917247"><ele>727.0</ele><time>2026-05-01T07:36:04.001Z</time></trkpt><trkpt lat="40.728648920789645" lon="8.685136366380505"><ele>727.0</ele><time>2026-05-01T07:36:05.001Z</time></trkpt><trkpt lat="40.72859644920377" lon="8.685032572199663"><ele>727.0</ele><time>2026-05-01T07:36:06.001Z</time></trkpt><trkpt lat="40.728537791485216" lon="8.684953133417382"><ele>727.0</ele><time>2026-05-01T07:36:07.001Z</time></trkpt><trkpt lat="40.7284765678083" lon="8.684899508505499"><ele>727.0</ele><time>2026-05-01T07:36:08.001Z</time></trkpt><trkpt lat="40.728429895383094" lon="8.684828307788205"><ele>727.0</ele><time>2026-05-01T07:36:09.001Z</time></trkpt><trkpt lat="40.72838977469482" lon="8.684752550398537"><ele>727.0</ele><time>2026-05-01T07:36:10.001Z</time></trkpt><trkpt lat="40.72836135152716" lon="8.684671588693233"><ele>727.0</ele><time>2026-05-01T07:36:11.001Z</time></trkpt><trkpt lat="40.728324003568346" lon="8.684536505189367"><ele>727.0</ele><time>2026-05-01T07:36:13.001Z</time></trkpt><trkpt lat="40.7283114107648" lon="8.684414811232086"><ele>732.0</ele><time>2026-05-01T07:36:15.001Z</time></trkpt><trkpt lat="40.7283190126833" lon="8.684327136512241"><ele>732.0</ele><time>2026-05-01T07:36:17.001Z</time></trkpt><trkpt lat="40.72834195782222" lon="8.684246173606336"><ele>732.0</ele><time>2026-05-01T07:36:21.001Z</time></trkpt><trkpt lat="40.72829224120274" lon="8.684300754535064"><ele>732.0</ele><time>2026-05-01T07:37:09Z</time></trkpt><trkpt lat="40.72819353696288" lon="8.684301829970124"><ele>732.0</ele><time>2026-05-01T07:37:11Z</time></trkpt></trkseg><trkseg><trkpt lat="40.749556319351235" lon="8.674596675165382"><ele>464.0</ele><time>2026-05-01T08:09:40Z</time></trkpt><trkpt lat="40.74962276631244" lon="8.674753285098703"><ele>464.0</ele><time>2026-05-01T08:09:53Z</time></trkpt><trkpt lat="40.74964933718271" lon="8.674861137690474"><ele>464.0</ele><time>2026-05-01T08:09:54Z</time></trkpt><trkpt lat="40.749681063764754" lon="8.674982799623619"><ele>464.0</ele><time>2026-05-01T08:09:55Z</time></trkpt><trkpt lat="40.749718232970146" lon="8.675124609572897"><ele>464.0</ele><time>2026-05-01T08:09:56Z</time></trkpt><trkpt lat="40.749756863583286" lon="8.675268533695885"><ele>464.5</ele><time>2026-05-01T08:09:57Z</time></trkpt><trkpt lat="40.74979511867598" lon="8.675431127097985"><ele>465.0</ele><time>2026-05-01T08:09:58Z</time></trkpt><trkpt lat="40.74982891300395" lon="8.675613035164714"><ele>465.5</ele><time>2026-05-01T08:09:59Z</time></trkpt><trkpt lat="40.74985157903514" lon="8.67579555778886"><ele>466.0</ele><time>2026-05-01T08:10:00Z</time></trkpt><trkpt lat="40.74986909658923" lon="8.675987220170573"><ele>465.5</ele><time>2026-05-01T08:10:01Z</time></trkpt><trkpt lat="40.74988448449674" lon="8.676185171000723"><ele>465.0</ele><time>2026-05-01T08:10:02Z</time></trkpt><trkpt lat="40.74990147504957" lon="8.676374520373294"><ele>464.5</ele><time>2026-05-01T08:10:03Z</time></trkpt><trkpt lat="40.749915046320844" lon="8.676560127451008"><ele>464.0</ele><time>2026-05-01T08:10:04Z</time></trkpt><trkpt lat="40.74992816562526" lon="8.676741633411263"><ele>464.0</ele><time>2026-05-01T08:10:05Z</time></trkpt><trkpt lat="40.74993550707917" lon="8.676918343652993"><ele>464.0</ele><time>2026-05-01T08:10:06Z</time></trkpt><trkpt lat="40.749930086850014" lon="8.677092616028972"><ele>464.0</ele><time>2026-05-01T08:10:07Z</time></trkpt><trkpt lat="40.74991097404128" lon="8.677262061007612"><ele>464.0</ele><time>2026-05-01T08:10:08Z</time></trkpt><trkpt lat="40.74987159617865" lon="8.677440590272024"><ele>462.5</ele><time>2026-05-01T08:10:09Z</time></trkpt><trkpt lat="40.74982546931748" lon="8.677626675001475"><ele>461.0</ele><time>2026-05-01T08:10:10Z</time></trkpt><trkpt lat="40.74977599692539" lon="8.677813893610505"><ele>459.5</ele><time>2026-05-01T08:10:11Z</time></trkpt><trkpt lat="40.7497308633009" lon="8.677992084090292"><ele>458.0</ele><time>2026-05-01T08:10:12Z</time></trkpt><trkpt lat="40.749683991625616" lon="8.678161299736196"><ele>455.25</ele><time>2026-05-01T08:10:13Z</time></trkpt><trkpt lat="40.749630891863994" lon="8.678322319491533"><ele>452.5</ele><time>2026-05-01T08:10:14Z</time></trkpt><trkpt lat="40.74957200554988" lon="8.678479428471908"><ele>449.75</ele><time>2026-05-01T08:10:15Z</time></trkpt><trkpt lat="40.74951476241076" lon="8.678628626808853"><ele>447.0</ele><time>2026-05-01T08:10:16Z</time></trkpt><trkpt lat="40.74945848882236" lon="8.678772098477886"><ele>446.0</ele><time>2026-05-01T08:10:17Z</time></trkpt><trkpt lat="40.74940284285968" lon="8.678908862545295"><ele>445.00000000000006</ele><time>2026-05-01T08:10:18Z</time></trkpt><trkpt lat="40.74935072957913" lon="8.679042817302431"><ele>444.00000000000006</ele><time>2026-05-01T08:10:19Z</time></trkpt><trkpt lat="40.74930347126753" lon="8.679170100452842"><ele>443.0</ele><time>2026-05-01T08:10:20Z</time></trkpt><trkpt lat="40.74926723806195" lon="8.679293860879918"><ele>442.0</ele><time>2026-05-01T08:10:21Z</time></trkpt><trkpt lat="40.74924618139174" lon="8.679416973791007"><ele>441.6</ele><time>2026-05-01T08:10:22Z</time></trkpt><trkpt lat="40.749242313464315" lon="8.679546688470028"><ele>441.20000000000005</ele><time>2026-05-01T08:10:23Z</time></trkpt><trkpt lat="40.749269040755564" lon="8.679669446557796"><ele>440.8</ele><time>2026-05-01T08:10:24Z</time></trkpt><trkpt lat="40.74932033892281" lon="8.679779227201934"><ele>440.4</ele><time>2026-05-01T08:10:25Z</time></trkpt><trkpt lat="40.74938503803311" lon="8.679868650332011"><ele>440.0</ele><time>2026-05-01T08:10:26Z</time></trkpt><trkpt lat="40.74946776014532" lon="8.679955613418826"><ele>440.0</ele><time>2026-05-01T08:10:27Z</time></trkpt><trkpt lat="40.749565621835956" lon="8.68000898620461"><ele>440.0</ele><time>2026-05-01T08:10:28Z</time></trkpt><trkpt lat="40.74968026573849" lon="8.680031966850352"><ele>440.0</ele><time>2026-05-01T08:10:29Z</time></trkpt><trkpt lat="40.749801742092316" lon="8.680030836124484"><ele>440.0</ele><time>2026-05-01T08:10:30Z</time></trkpt><trkpt lat="40.74991848504215" lon="8.68002250056121"><ele>439.99999999999994</ele><time>2026-05-01T08:10:31Z</time></trkpt><trkpt lat="40.75003112500121" lon="8.680020684737652"><ele>440.0</ele><time>2026-05-01T08:10:32Z</time></trkpt><trkpt lat="40.75012044537285" lon="8.680023685705882"><ele>440.0</ele><time>2026-05-01T08:10:33Z</time></trkpt><trkpt lat="40.750190053194366" lon="8.680026640852326"><ele>440.0</ele><time>2026-05-01T08:10:34Z</time></trkpt><trkpt lat="40.75027936723163" lon="8.680030700731386"><ele>439.99999999999994</ele><time>2026-05-01T08:10:36Z</time></trkpt><trkpt lat="40.75036498105122" lon="8.680022958262615"><ele>440.0</ele><time>2026-05-01T08:10:38Z</time></trkpt><trkpt lat="40.75045050536315" lon="8.68002078586579"><ele>438.8</ele><time>2026-05-01T08:10:40Z</time></trkpt><trkpt lat="40.75058709954857" lon="8.680026163721806"><ele>437.6</ele><time>2026-05-01T08:10:42Z</time></trkpt><trkpt lat="40.750659593266064" lon="8.680018437624767"><ele>436.4</ele><time>2026-05-01T08:10:43Z</time></trkpt><trkpt lat="40.75074559754706" lon="8.680014828428105"><ele>435.2</ele><time>2026-05-01T08:10:44Z</time></trkpt><trkpt lat="40.75084312129214" lon="8.680010583079781"><ele>434.0</ele><time>2026-05-01T08:10:45Z</time></trkpt><trkpt lat="40.75095200116561" lon="8.680004660894593"><ele>431.79999999999995</ele><time>2026-05-01T08:10:46Z</time></trkpt><trkpt lat="40.75105581994135" lon="8.680000790284481"><ele>429.59999999999997</ele><time>2026-05-01T08:10:47Z</time></trkpt><trkpt lat="40.75115861088769" lon="8.679998683616756"><ele>427.4</ele><time>2026-05-01T08:10:48Z</time></trkpt><trkpt lat="40.75125858865596" lon="8.679993280606004"><ele>425.2</ele><time>2026-05-01T08:10:49Z</time></trkpt><trkpt lat="40.75136511950778" lon="8.679975878880578"><ele>423.0</ele><time>2026-05-01T08:10:50Z</time></trkpt><trkpt lat="40.751479929048664" lon="8.679937663512142"><ele>423.0</ele><time>2026-05-01T08:10:51Z</time></trkpt><trkpt lat="40.75159885393143" lon="8.679877343923286"><ele>423.0</ele><time>2026-05-01T08:10:52Z</time></trkpt><trkpt lat="40.75172072207961" lon="8.679802739527297"><ele>423.0</ele><time>2026-05-01T08:10:53Z</time></trkpt><trkpt lat="40.75183809857229" lon="8.67973063851697"><ele>423.0</ele><time>2026-05-01T08:10:54Z</time></trkpt><trkpt lat="40.75195145757806" lon="8.679662357953541"><ele>422.0</ele><time>2026-05-01T08:10:55Z</time></trkpt><trkpt lat="40.752061681628206" lon="8.679593572257605"><ele>421.0</ele><time>2026-05-01T08:10:56Z</time></trkpt><trkpt lat="40.75216916229736" lon="8.679529436129911"><ele>420.0</ele><time>2026-05-01T08:10:57Z</time></trkpt><trkpt lat="40.752276254770706" lon="8.679465335573031"><ele>419.0</ele><time>2026-05-01T08:10:58Z</time></trkpt><trkpt lat="40.75238083184397" lon="8.67940235701253"><ele>419.0</ele><time>2026-05-01T08:10:59Z</time></trkpt><trkpt lat="40.75248381211666" lon="8.67934105005946"><ele>419.0</ele><time>2026-05-01T08:11:00Z</time></trkpt><trkpt lat="40.75258489462356" lon="8.679280566418313"><ele>419.0</ele><time>2026-05-01T08:11:01Z</time></trkpt><trkpt lat="40.752684604167634" lon="8.679221584788776"><ele>419.0</ele><time>2026-05-01T08:11:02Z</time></trkpt><trkpt lat="40.752782679698846" lon="8.679166962703519"><ele>419.0</ele><time>2026-05-01T08:11:03Z</time></trkpt><trkpt lat="40.75288727884556" lon="8.679109772136757"><ele>418.0</ele><time>2026-05-01T08:11:04Z</time></trkpt><trkpt lat="40.75300142340263" lon="8.679052345889666"><ele>417.0</ele><time>2026-05-01T08:11:05Z</time></trkpt><trkpt lat="40.753131962160666" lon="8.679001775525721"><ele>416.0</ele><time>2026-05-01T08:11:06Z</time></trkpt><trkpt lat="40.75328002816952" lon="8.678953021844837"><ele>415.0</ele><time>2026-05-01T08:11:07Z</time></trkpt><trkpt lat="40.75342331216004" lon="8.678910691285548"><ele>414.6666666666667</ele><time>2026-05-01T08:11:08Z</time></trkpt><trkpt lat="40.753581607688915" lon="8.678861442080928"><ele>414.33333333333337</ele><time>2026-05-01T08:11:09Z</time></trkpt><trkpt lat="40.753752516973016" lon="8.67880639286097"><ele>414.0</ele><time>2026-05-01T08:11:10Z</time></trkpt><trkpt lat="40.753936681170536" lon="8.678759131121268"><ele>414.0</ele><time>2026-05-01T08:11:11Z</time></trkpt><trkpt lat="40.754120861047" lon="8.678719228658574"><ele>414.0</ele><time>2026-05-01T08:11:12Z</time></trkpt><trkpt lat="40.754300922132174" lon="8.678688615316094"><ele>414.0</ele><time>2026-05-01T08:11:13Z</time></trkpt><trkpt lat="40.754473088409554" lon="8.678657729513478"><ele>415.25</ele><time>2026-05-01T08:11:14Z</time></trkpt><trkpt lat="40.754633507612496" lon="8.678627404015382"><ele>416.5</ele><time>2026-05-01T08:11:15Z</time></trkpt><trkpt lat="40.754780765425174" lon="8.678594697835656"><ele>417.75</ele><time>2026-05-01T08:11:16Z</time></trkpt><trkpt lat="40.75491143148653" lon="8.678558006627549"><ele>419.0</ele><time>2026-05-01T08:11:17Z</time></trkpt><trkpt lat="40.755029393673105" lon="8.6785080964638"><ele>419.0</ele><time>2026-05-01T08:11:18Z</time></trkpt><trkpt lat="40.755133148644184" lon="8.67843787627718"><ele>419.0</ele><time>2026-05-01T08:11:19Z</time></trkpt><trkpt lat="40.75521653887503" lon="8.678350456405543"><ele>419.0</ele><time>2026-05-01T08:11:20Z</time></trkpt><trkpt lat="40.75528310885753" lon="8.67823228234282"><ele>419.0</ele><time>2026-05-01T08:11:21Z</time></trkpt><trkpt lat="40.75532503938655" lon="8.678084576717582"><ele>419.75</ele><time>2026-05-01T08:11:22Z</time></trkpt><trkpt lat="40.75534621913543" lon="8.677915756601818"><ele>420.5</ele><time>2026-05-01T08:11:23Z</time></trkpt><trkpt lat="40.75536214438613" lon="8.67773411608283"><ele>421.25</ele><time>2026-05-01T08:11:24Z</time></trkpt><trkpt lat="40.75537995158115" lon="8.677534023518879"><ele>422.0</ele><time>2026-05-01T08:11:25Z</time></trkpt><trkpt lat="40.75539802634827" lon="8.677334706867729"><ele>422.3333333333333</ele><time>2026-05-01T08:11:26Z</time></trkpt><trkpt lat="40.755416469786425" lon="8.677128115555618"><ele>422.66666666666663</ele><time>2026-05-01T08:11:27Z</time></trkpt><trkpt lat="40.755436912389975" lon="8.67691531137046"><ele>423.0</ele><time>2026-05-01T08:11:28Z</time></trkpt><trkpt lat="40.75545602774968" lon="8.676697767295659"><ele>424.66666666666663</ele><time>2026-05-01T08:11:29Z</time></trkpt><trkpt lat="40.75547607935525" lon="8.676473527632748"><ele>426.3333333333333</ele><time>2026-05-01T08:11:30Z</time></trkpt><trkpt lat="40.75549467554287" lon="8.676243645951384"><ele>428.0</ele><time>2026-05-01T08:11:31Z</time></trkpt><trkpt lat="40.755512281203266" lon="8.676035333086567"><ele>429.25</ele><time>2026-05-01T08:11:32Z</time></trkpt><trkpt lat="40.755526134579966" lon="8.675848828696951"><ele>430.5</ele><time>2026-05-01T08:11:33Z</time></trkpt><trkpt lat="40.755546258573446" lon="8.675678920372846"><ele>431.75</ele><time>2026-05-01T08:11:34Z</time></trkpt><trkpt lat="40.75557709861007" lon="8.675526169035184"><ele>433.0</ele><time>2026-05-01T08:11:35Z</time></trkpt><trkpt lat="40.75562380726624" lon="8.675382984414957"><ele>433.0</ele><time>2026-05-01T08:11:36Z</time></trkpt><trkpt lat="40.75570051418429" lon="8.675276496744505"><ele>433.0</ele><time>2026-05-01T08:11:37Z</time></trkpt><trkpt lat="40.75580991627087" lon="8.67519368787254"><ele>433.0</ele><time>2026-05-01T08:11:38Z</time></trkpt><trkpt lat="40.75594163985831" lon="8.675120813873653"><ele>433.0</ele><time>2026-05-01T08:11:39Z</time></trkpt><trkpt lat="40.75608281425483" lon="8.675046117181774"><ele>436.6666666666667</ele><time>2026-05-01T08:11:40Z</time></trkpt><trkpt lat="40.75623390752782" lon="8.67494927484476"><ele>440.33333333333337</ele><time>2026-05-01T08:11:41Z</time></trkpt><trkpt lat="40.75638920435094" lon="8.67485423216919"><ele>444.0</ele><time>2026-05-01T08:11:42Z</time></trkpt><trkpt lat="40.756536300814304" lon="8.674764887659569"><ele>444.0</ele><time>2026-05-01T08:11:43Z</time></trkpt><trkpt lat="40.75668135519139" lon="8.674664304906914"><ele>444.0</ele><time>2026-05-01T08:11:44Z</time></trkpt><trkpt lat="40.75683222242629" lon="8.674555174425537"><ele>444.0</ele><time>2026-05-01T08:11:45Z</time></trkpt><trkpt lat="40.75698203613299" lon="8.674438670245694"><ele>445.0</ele><time>2026-05-01T08:11:46Z</time></trkpt><trkpt lat="40.75713042374428" lon="8.674312776744213"><ele>446.0</ele><time>2026-05-01T08:11:47Z</time></trkpt><trkpt lat="40.7572820778773" lon="8.67417053288655"><ele>447.0</ele><time>2026-05-01T08:11:48Z</time></trkpt><trkpt lat="40.757429864522216" lon="8.674029470469689"><ele>447.0</ele><time>2026-05-01T08:11:49Z</time></trkpt><trkpt lat="40.75755781394785" lon="8.67390562025625"><ele>447.0</ele><time>2026-05-01T08:11:50Z</time></trkpt><trkpt lat="40.75767966255789" lon="8.673791689080103"><ele>447.0</ele><time>2026-05-01T08:11:51Z</time></trkpt><trkpt lat="40.75778942373466" lon="8.673690571334136"><ele>447.0</ele><time>2026-05-01T08:11:52Z</time></trkpt><trkpt lat="40.75788937191202" lon="8.673619227097806"><ele>449.6</ele><time>2026-05-01T08:11:53Z</time></trkpt><trkpt lat="40.757991108975894" lon="8.673598348842031"><ele>452.20000000000005</ele><time>2026-05-01T08:11:54Z</time></trkpt><trkpt lat="40.758100580718065" lon="8.673619304745896"><ele>454.8</ele><time>2026-05-01T08:11:55Z</time></trkpt><trkpt lat="40.7582004757157" lon="8.67369040082135"><ele>457.4</ele><time>2026-05-01T08:11:56Z</time></trkpt><trkpt lat="40.75828005350236" lon="8.673790011191922"><ele>460.0</ele><time>2026-05-01T08:11:57Z</time></trkpt><trkpt lat="40.75833101098649" lon="8.673916944031278"><ele>460.0</ele><time>2026-05-01T08:11:58Z</time></trkpt><trkpt lat="40.758352812981535" lon="8.674071052035401"><ele>460.0</ele><time>2026-05-01T08:11:59Z</time></trkpt><trkpt lat="40.75836912369591" lon="8.674230917264241"><ele>460.0</ele><time>2026-05-01T08:12:00Z</time></trkpt><trkpt lat="40.75839786773302" lon="8.67439553365512"><ele>460.0</ele><time>2026-05-01T08:12:01Z</time></trkpt><trkpt lat="40.75842674116035" lon="8.674565595483063"><ele>460.25</ele><time>2026-05-01T08:12:02Z</time></trkpt><trkpt lat="40.758459530843204" lon="8.674743763647182"><ele>460.5</ele><time>2026-05-01T08:12:03Z</time></trkpt><trkpt lat="40.75848707723098" lon="8.674908778263529"><ele>460.75</ele><time>2026-05-01T08:12:04Z</time></trkpt><trkpt lat="40.75852022069221" lon="8.675046111345376"><ele>461.0</ele><time>2026-05-01T08:12:05Z</time></trkpt><trkpt lat="40.75857326995174" lon="8.675166697713518"><ele>461.75</ele><time>2026-05-01T08:12:06Z</time></trkpt><trkpt lat="40.75865213831661" lon="8.675272626962265"><ele>462.5</ele><time>2026-05-01T08:12:07Z</time></trkpt><trkpt lat="40.758770156392806" lon="8.675336860187224"><ele>463.25</ele><time>2026-05-01T08:12:08Z</time></trkpt><trkpt lat="40.75890390669582" lon="8.675385715157049"><ele>464.0</ele><time>2026-05-01T08:12:09Z</time></trkpt><trkpt lat="40.75903818738937" lon="8.675442884958109"><ele>464.0</ele><time>2026-05-01T08:12:10Z</time></trkpt><trkpt lat="40.75915738317624" lon="8.675491695176024"><ele>464.0</ele><time>2026-05-01T08:12:11Z</time></trkpt><trkpt lat="40.759284361962365" lon="8.675530611326463"><ele>464.0</ele><time>2026-05-01T08:12:12Z</time></trkpt><trkpt lat="40.75942440633876" lon="8.675549718875288"><ele>464.0</ele><time>2026-05-01T08:12:13Z</time></trkpt><trkpt lat="40.759576051771866" lon="8.675553080652834"><ele>464.66666666666663</ele><time>2026-05-01T08:12:14Z</time></trkpt><trkpt lat="40.75974001514238" lon="8.675555012430678"><ele>465.33333333333337</ele><time>2026-05-01T08:12:15Z</time></trkpt><trkpt lat="40.75989491789478" lon="8.67555412197123"><ele>466.0</ele><time>2026-05-01T08:12:16Z</time></trkpt><trkpt lat="40.76005193842583" lon="8.675548775762149"><ele>466.6666666666667</ele><time>2026-05-01T08:12:17Z</time></trkpt><trkpt lat="40.760209391817355" lon="8.675545549796746"><ele>467.33333333333337</ele><time>2026-05-01T08:12:18Z</time></trkpt><trkpt lat="40.76036792781473" lon="8.67555736861875"><ele>468.0</ele><time>2026-05-01T08:12:19Z</time></trkpt><trkpt lat="40.760530848846706" lon="8.675598582002067"><ele>468.0</ele><time>2026-05-01T08:12:20Z</time></trkpt><trkpt lat="40.76069731288791" lon="8.675656999245565"><ele>468.0</ele><time>2026-05-01T08:12:21Z</time></trkpt><trkpt lat="40.76087141310048" lon="8.675726477157397"><ele>468.0</ele><time>2026-05-01T08:12:22Z</time></trkpt><trkpt lat="40.761053127785324" lon="8.675790659266532"><ele>469.0</ele><time>2026-05-01T08:12:23Z</time></trkpt><trkpt lat="40.76123853219635" lon="8.675852570991195"><ele>470.0</ele><time>2026-05-01T08:12:24Z</time></trkpt><trkpt lat="40.76141776821678" lon="8.675913789774507"><ele>471.0</ele><time>2026-05-01T08:12:25Z</time></trkpt><trkpt lat="40.761582969922856" lon="8.6759745266297"><ele>471.0</ele><time>2026-05-01T08:12:26Z</time></trkpt><trkpt lat="40.761734178201465" lon="8.676027466571838"><ele>471.0</ele><time>2026-05-01T08:12:27Z</time></trkpt><trkpt lat="40.76187566028261" lon="8.676073505967086"><ele>471.0</ele><time>2026-05-01T08:12:28Z</time></trkpt><trkpt lat="40.762014991474466" lon="8.676098700704545"><ele>471.0</ele><time>2026-05-01T08:12:29Z</time></trkpt><trkpt lat="40.76216521847238" lon="8.676097922997236"><ele>471.0</ele><time>2026-05-01T08:12:30Z</time></trkpt><trkpt lat="40.76232779239214" lon="8.676072898372704"><ele>471.0</ele><time>2026-05-01T08:12:31Z</time></trkpt><trkpt lat="40.76250084553549" lon="8.676040855727624"><ele>471.0</ele><time>2026-05-01T08:12:32Z</time></trkpt><trkpt lat="40.76268785676527" lon="8.676005013701115"><ele>470.0</ele><time>2026-05-01T08:12:33Z</time></trkpt><trkpt lat="40.76287179181906" lon="8.67596537749621"><ele>469.0</ele><time>2026-05-01T08:12:34Z</time></trkpt><trkpt lat="40.7630575206943" lon="8.675927259363306"><ele>468.0</ele><time>2026-05-01T08:12:34.999Z</time></trkpt><trkpt lat="40.76323052903992" lon="8.675891197099885"><ele>468.0</ele><time>2026-05-01T08:12:35.999Z</time></trkpt><trkpt lat="40.76339686390123" lon="8.675856134051793"><ele>468.0</ele><time>2026-05-01T08:12:36.999Z</time></trkpt><trkpt lat="40.76356107620844" lon="8.67582806073953"><ele>468.0</ele><time>2026-05-01T08:12:37.999Z</time></trkpt><trkpt lat="40.76373400819265" lon="8.675807522681373"><ele>466.66666666666663</ele><time>2026-05-01T08:12:38.999Z</time></trkpt><trkpt lat="40.76392225557684" lon="8.675802551133492"><ele>465.3333333333333</ele><time>2026-05-01T08:12:39.999Z</time></trkpt><trkpt lat="40.76412374035176" lon="8.675815797868879"><ele>464.0</ele><time>2026-05-01T08:12:40.999Z</time></trkpt><trkpt lat="40.76432269464544" lon="8.675827806220443"><ele>463.0</ele><time>2026-05-01T08:12:41.999Z</time></trkpt><trkpt lat="40.764507112887074" lon="8.675834579545024"><ele>462.0</ele><time>2026-05-01T08:12:43Z</time></trkpt><trkpt lat="40.764682364908374" lon="8.675845619082478"><ele>461.0</ele><time>2026-05-01T08:12:44Z</time></trkpt><trkpt lat="40.76484773670054" lon="8.675869976737841"><ele>461.0</ele><time>2026-05-01T08:12:45Z</time></trkpt><trkpt lat="40.76502616643101" lon="8.67591058394395"><ele>461.0</ele><time>2026-05-01T08:12:46Z</time></trkpt><trkpt lat="40.76521740436062" lon="8.675965431969717"><ele>461.0</ele><time>2026-05-01T08:12:47Z</time></trkpt><trkpt lat="40.76541715722799" lon="8.676024968005848"><ele>459.0</ele><time>2026-05-01T08:12:48Z</time></trkpt><trkpt lat="40.765615236010866" lon="8.6760815620661"><ele>457.0</ele><time>2026-05-01T08:12:49Z</time></trkpt><trkpt lat="40.765808380839076" lon="8.67613617478589"><ele>455.0</ele><time>2026-05-01T08:12:50Z</time></trkpt><trkpt lat="40.765993241268426" lon="8.676187431278839"><ele>456.3333333333333</ele><time>2026-05-01T08:12:51Z</time></trkpt><trkpt lat="40.76617486293576" lon="8.6762389986453"><ele>457.66666666666663</ele><time>2026-05-01T08:12:52Z</time></trkpt><trkpt lat="40.766348820744355" lon="8.67629390886228"><ele>459.0</ele><time>2026-05-01T08:12:53Z</time></trkpt><trkpt lat="40.76651630210685" lon="8.676345950623803"><ele>459.0</ele><time>2026-05-01T08:12:54Z</time></trkpt><trkpt lat="40.76667718889622" lon="8.676399035358072"><ele>459.0</ele><time>2026-05-01T08:12:55Z</time></trkpt><trkpt lat="40.76682778710124" lon="8.676448895517213"><ele>459.0</ele><time>2026-05-01T08:12:56Z</time></trkpt><trkpt lat="40.76696359720999" lon="8.67649584781901"><ele>455.75</ele><time>2026-05-01T08:12:57Z</time></trkpt><trkpt lat="40.76709022516249" lon="8.676546754784908"><ele>452.5</ele><time>2026-05-01T08:12:58Z</time></trkpt><trkpt lat="40.76720069094953" lon="8.676615894651752"><ele>449.25</ele><time>2026-05-01T08:12:59Z</time></trkpt><trkpt lat="40.76730025753794" lon="8.67670879673135"><ele>446.0</ele><time>2026-05-01T08:13:00Z</time></trkpt><trkpt lat="40.7673959622823" lon="8.676838322001842"><ele>448.66666666666663</ele><time>2026-05-01T08:13:01Z</time></trkpt><trkpt lat="40.767490302924756" lon="8.676988560978172"><ele>451.33333333333337</ele><time>2026-05-01T08:13:02Z</time></trkpt><trkpt lat="40.76758279123548" lon="8.677144089373368"><ele>454.0</ele><time>2026-05-01T08:13:03Z</time></trkpt><trkpt lat="40.76768376267326" lon="8.677296614408021"><ele>452.5</ele><time>2026-05-01T08:13:04Z</time></trkpt><trkpt lat="40.76777765349636" lon="8.677436798400107"><ele>451.0</ele><time>2026-05-01T08:13:05Z</time></trkpt><trkpt lat="40.7678719550071" lon="8.677560110769774"><ele>449.5</ele><time>2026-05-01T08:13:06Z</time></trkpt><trkpt lat="40.76797261788652" lon="8.677655818988832"><ele>448.0</ele><time>2026-05-01T08:13:07Z</time></trkpt><trkpt lat="40.7680749734697" lon="8.677711162927357"><ele>448.0</ele><time>2026-05-01T08:13:08Z</time></trkpt><trkpt lat="40.768188614715946" lon="8.677713871003833"><ele>448.0</ele><time>2026-05-01T08:13:09Z</time></trkpt><trkpt lat="40.76830636685501" lon="8.67767463435723"><ele>448.0</ele><time>2026-05-01T08:13:10Z</time></trkpt><trkpt lat="40.76843075436668" lon="8.677598319873374"><ele>448.0</ele><time>2026-05-01T08:13:11Z</time></trkpt><trkpt lat="40.76855101569721" lon="8.677516719497797"><ele>448.75</ele><time>2026-05-01T08:13:12Z</time></trkpt><trkpt lat="40.768671956021464" lon="8.677456277083172"><ele>449.5</ele><time>2026-05-01T08:13:13Z</time></trkpt><trkpt lat="40.76881296299729" lon="8.677433814362711"><ele>450.25</ele><time>2026-05-01T08:13:14Z</time></trkpt><trkpt lat="40.76895386783847" lon="8.677441379984986"><ele>451.0</ele><time>2026-05-01T08:13:15Z</time></trkpt><trkpt lat="40.76908092973548" lon="8.677446713253342"><ele>451.0</ele><time>2026-05-01T08:13:16Z</time></trkpt><trkpt lat="40.769195331404276" lon="8.677430965214965"><ele>451.0</ele><time>2026-05-01T08:13:17Z</time></trkpt><trkpt lat="40.7692991519717" lon="8.677392921138955"><ele>451.0</ele><time>2026-05-01T08:13:18Z</time></trkpt><trkpt lat="40.76939192990791" lon="8.677341738455203"><ele>451.0</ele><time>2026-05-01T08:13:19Z</time></trkpt><trkpt lat="40.76946826817712" lon="8.67727058907381"><ele>451.0</ele><time>2026-05-01T08:13:20Z</time></trkpt><trkpt lat="40.769526029264846" lon="8.677182181970947"><ele>450.6</ele><time>2026-05-01T08:13:21Z</time></trkpt><trkpt lat="40.769566871882205" lon="8.677080003546845"><ele>450.20000000000005</ele><time>2026-05-01T08:13:22Z</time></trkpt><trkpt lat="40.76961485088993" lon="8.676965984563967"><ele>449.79999999999995</ele><time>2026-05-01T08:13:23Z</time></trkpt><trkpt lat="40.769671386075295" lon="8.676840918217444"><ele>449.4</ele><time>2026-05-01T08:13:24Z</time></trkpt><trkpt lat="40.76973327750231" lon="8.676699327098824"><ele>449.0</ele><time>2026-05-01T08:13:25Z</time></trkpt><trkpt lat="40.76979697162456" lon="8.676555758380866"><ele>449.0</ele><time>2026-05-01T08:13:26Z</time></trkpt><trkpt lat="40.76986510380703" lon="8.676408976946501"><ele>449.0</ele><time>2026-05-01T08:13:27Z</time></trkpt><trkpt lat="40.769935074925364" lon="8.676258479634898"><ele>449.0</ele><time>2026-05-01T08:13:28Z</time></trkpt><trkpt lat="40.77000284090044" lon="8.67611983373505"><ele>449.0</ele><time>2026-05-01T08:13:29Z</time></trkpt><trkpt lat="40.770072370891164" lon="8.675994628178067"><ele>449.75</ele><time>2026-05-01T08:13:30Z</time></trkpt><trkpt lat="40.77014724236576" lon="8.675885060247898"><ele>450.5</ele><time>2026-05-01T08:13:31Z</time></trkpt><trkpt lat="40.77023695950515" lon="8.675776687394002"><ele>451.25</ele><time>2026-05-01T08:13:32Z</time></trkpt><trkpt lat="40.77034035352191" lon="8.675665747770463"><ele>452.0</ele><time>2026-05-01T08:13:33Z</time></trkpt><trkpt lat="40.770456181967454" lon="8.675549489825226"><ele>452.25</ele><time>2026-05-01T08:13:34Z</time></trkpt><trkpt lat="40.77057525936292" lon="8.675435548848741"><ele>452.5</ele><time>2026-05-01T08:13:35Z</time></trkpt><trkpt lat="40.770697975271176" lon="8.67531967714286"><ele>452.75</ele><time>2026-05-01T08:13:36Z</time></trkpt><trkpt lat="40.77081345933057" lon="8.675210964517483"><ele>453.0</ele><time>2026-05-01T08:13:37Z</time></trkpt><trkpt lat="40.77092353838246" lon="8.675105330697495"><ele>452.0</ele><time>2026-05-01T08:13:38Z</time></trkpt><trkpt lat="40.771031723113936" lon="8.675011475838845"><ele>451.0</ele><time>2026-05-01T08:13:39Z</time></trkpt><trkpt lat="40.771141492049466" lon="8.67493261713256"><ele>450.0</ele><time>2026-05-01T08:13:40Z</time></trkpt><trkpt lat="40.7712599359942" lon="8.674866502532785"><ele>449.0</ele><time>2026-05-01T08:13:41Z</time></trkpt><trkpt lat="40.77137522880863" lon="8.674806083764055"><ele>449.0</ele><time>2026-05-01T08:13:42Z</time></trkpt><trkpt lat="40.77147819253711" lon="8.674738257175147"><ele>449.0</ele><time>2026-05-01T08:13:43Z</time></trkpt><trkpt lat="40.77156728869999" lon="8.674656394537422"><ele>449.0</ele><time>2026-05-01T08:13:44Z</time></trkpt><trkpt lat="40.77163452640371" lon="8.674550217500537"><ele>449.0</ele><time>2026-05-01T08:13:45Z</time></trkpt><trkpt lat="40.77168402453959" lon="8.674432479144935"><ele>449.0</ele><time>2026-05-01T08:13:46Z</time></trkpt><trkpt lat="40.77172596332555" lon="8.674315615363426"><ele>449.3333333333333</ele><time>2026-05-01T08:13:47Z</time></trkpt><trkpt lat="40.771769158564005" lon="8.674205253492866"><ele>449.66666666666663</ele><time>2026-05-01T08:13:48Z</time></trkpt><trkpt lat="40.77181215052298" lon="8.674100767701269"><ele>450.0</ele><time>2026-05-01T08:13:49Z</time></trkpt><trkpt lat="40.771855230465256" lon="8.673999755909382"><ele>450.33333333333337</ele><time>2026-05-01T08:13:50Z</time></trkpt><trkpt lat="40.77189716983437" lon="8.673903976361977"><ele>450.6666666666667</ele><time>2026-05-01T08:13:51Z</time></trkpt><trkpt lat="40.771937811302266" lon="8.673806212809263"><ele>451.0</ele><time>2026-05-01T08:13:52Z</time></trkpt><trkpt lat="40.7719774885526" lon="8.67371824944983"><ele>451.00000000000006</ele><time>2026-05-01T08:13:53Z</time></trkpt><trkpt lat="40.7720162440378" lon="8.673634674623958"><ele>451.0</ele><time>2026-05-01T08:13:54Z</time></trkpt><trkpt lat="40.772053198364446" lon="8.673552294308863"><ele>451.0</ele><time>2026-05-01T08:13:55Z</time></trkpt><trkpt lat="40.772086691372174" lon="8.673467424872035"><ele>451.0</ele><time>2026-05-01T08:13:56Z</time></trkpt><trkpt lat="40.77212292161424" lon="8.67338290523215"><ele>451.00000000000006</ele><time>2026-05-01T08:13:57Z</time></trkpt><trkpt lat="40.7721676496253" lon="8.673278723564252"><ele>451.0</ele><time>2026-05-01T08:13:58Z</time></trkpt><trkpt lat="40.77221761898193" lon="8.673158033574149"><ele>451.0</ele><time>2026-05-01T08:13:59Z</time></trkpt><trkpt lat="40.77226298670498" lon="8.673028330098386"><ele>451.0</ele><time>2026-05-01T08:14:00Z</time></trkpt><trkpt lat="40.77229946875676" lon="8.672894689986897"><ele>451.0</ele><time>2026-05-01T08:14:01Z</time></trkpt><trkpt lat="40.772321177650596" lon="8.672749114054442"><ele>451.0</ele><time>2026-05-01T08:14:02Z</time></trkpt><trkpt lat="40.772325869583334" lon="8.672594112089286"><ele>451.0</ele><time>2026-05-01T08:14:03Z</time></trkpt><trkpt lat="40.772321443837114" lon="8.672426994413188"><ele>451.0</ele><time>2026-05-01T08:14:04Z</time></trkpt><trkpt lat="40.772317640662145" lon="8.672253493721454"><ele>451.0</ele><time>2026-05-01T08:14:05Z</time></trkpt><trkpt lat="40.77231285120324" lon="8.672071860723735"><ele>451.0</ele><time>2026-05-01T08:14:06Z</time></trkpt><trkpt lat="40.7723106459172" lon="8.671880127642199"><ele>451.0</ele><time>2026-05-01T08:14:07Z</time></trkpt><trkpt lat="40.77231073180699" lon="8.671680812276799"><ele>450.5</ele><time>2026-05-01T08:14:08Z</time></trkpt><trkpt lat="40.772311005259134" lon="8.671489542951564"><ele>450.0</ele><time>2026-05-01T08:14:09Z</time></trkpt><trkpt lat="40.77230107781094" lon="8.671315024108262"><ele>449.5</ele><time>2026-05-01T08:14:10Z</time></trkpt><trkpt lat="40.772300288359375" lon="8.671156093226884"><ele>449.0</ele><time>2026-05-01T08:14:11Z</time></trkpt><trkpt lat="40.7723029268457" lon="8.671018444655163"><ele>448.3333333333333</ele><time>2026-05-01T08:14:12Z</time></trkpt><trkpt lat="40.7723268035712" lon="8.67090010317609"><ele>447.66666666666663</ele><time>2026-05-01T08:14:13Z</time></trkpt><trkpt lat="40.77236489060696" lon="8.670805697819143"><ele>447.0</ele><time>2026-05-01T08:14:14Z</time></trkpt><trkpt lat="40.77241148265914" lon="8.670738619043739"><ele>446.33333333333337</ele><time>2026-05-01T08:14:15Z</time></trkpt><trkpt lat="40.77247962582772" lon="8.670690699321442"><ele>445.6666666666667</ele><time>2026-05-01T08:14:16Z</time></trkpt><trkpt lat="40.77254990642306" lon="8.670650402992974"><ele>445.0</ele><time>2026-05-01T08:14:17Z</time></trkpt><trkpt lat="40.772619753497764" lon="8.670602447818096"><ele>445.00000000000006</ele><time>2026-05-01T08:14:18Z</time></trkpt><trkpt lat="40.772680608715305" lon="8.670526171234021"><ele>445.0</ele><time>2026-05-01T08:14:19Z</time></trkpt><trkpt lat="40.77272850665395" lon="8.670453030761449"><ele>445.0</ele><time>2026-05-01T08:14:20Z</time></trkpt><trkpt lat="40.77275935538167" lon="8.670354045702778"><ele>445.0</ele><time>2026-05-01T08:14:21Z</time></trkpt><trkpt lat="40.77278515044466" lon="8.670246936604217"><ele>445.00000000000006</ele><time>2026-05-01T08:14:22Z</time></trkpt><trkpt lat="40.77282448966815" lon="8.670146208944509"><ele>445.0</ele><time>2026-05-01T08:14:23Z</time></trkpt><trkpt lat="40.77288117145311" lon="8.67006295985531"><ele>446.6</ele><time>2026-05-01T08:14:24Z</time></trkpt><trkpt lat="40.77295996805696" lon="8.669996572886154"><ele>448.2</ele><time>2026-05-01T08:14:25Z</time></trkpt><trkpt lat="40.773057369025" lon="8.66993966595361"><ele>449.79999999999995</ele><time>2026-05-01T08:14:26Z</time></trkpt><trkpt lat="40.7731656893986" lon="8.669886377922905"><ele>451.4</ele><time>2026-05-01T08:14:27Z</time></trkpt><trkpt lat="40.77327236219942" lon="8.669819463196712"><ele>453.0</ele><time>2026-05-01T08:14:28Z</time></trkpt><trkpt lat="40.77338060517618" lon="8.66975110466382"><ele>453.0</ele><time>2026-05-01T08:14:29Z</time></trkpt><trkpt lat="40.773494356697356" lon="8.669697610560851"><ele>453.0</ele><time>2026-05-01T08:14:30Z</time></trkpt><trkpt lat="40.77361928178019" lon="8.669658932064195"><ele>453.0</ele><time>2026-05-01T08:14:31Z</time></trkpt><trkpt lat="40.77375264182481" lon="8.669628120752478"><ele>453.0</ele><time>2026-05-01T08:14:32Z</time></trkpt><trkpt lat="40.77388482798375" lon="8.66959937706859"><ele>452.59999999999997</ele><time>2026-05-01T08:14:33Z</time></trkpt><trkpt lat="40.774004075123486" lon="8.669588596190595"><ele>452.19999999999993</ele><time>2026-05-01T08:14:34Z</time></trkpt><trkpt lat="40.774117680736374" lon="8.66957666244839"><ele>451.8</ele><time>2026-05-01T08:14:35Z</time></trkpt><trkpt lat="40.77421590508834" lon="8.669540775220625"><ele>451.4</ele><time>2026-05-01T08:14:36Z</time></trkpt><trkpt lat="40.77429371775968" lon="8.669490777197682"><ele>451.0</ele><time>2026-05-01T08:14:37Z</time></trkpt><trkpt lat="40.77435497083101" lon="8.669416530778134"><ele>451.0</ele><time>2026-05-01T08:14:38Z</time></trkpt><trkpt lat="40.77439655722382" lon="8.669313423282969"><ele>451.0</ele><time>2026-05-01T08:14:39Z</time></trkpt><trkpt lat="40.774432410275054" lon="8.669180695191388"><ele>451.0</ele><time>2026-05-01T08:14:40Z</time></trkpt><trkpt lat="40.77446457700389" lon="8.669034501700281"><ele>451.0</ele><time>2026-05-01T08:14:40.999Z</time></trkpt><trkpt lat="40.774505280953534" lon="8.668883379076178"><ele>451.0</ele><time>2026-05-01T08:14:41.999Z</time></trkpt><trkpt lat="40.7745515352968" lon="8.668725251911674"><ele>449.25</ele><time>2026-05-01T08:14:42.999Z</time></trkpt><trkpt lat="40.77459771432973" lon="8.668548300999003"><ele>447.5</ele><time>2026-05-01T08:14:43.999Z</time></trkpt><trkpt lat="40.774647186666286" lon="8.668375834692498"><ele>445.75</ele><time>2026-05-01T08:14:44.999Z</time></trkpt><trkpt lat="40.77469239618757" lon="8.668210014385856"><ele>444.0</ele><time>2026-05-01T08:14:45.999Z</time></trkpt><trkpt lat="40.77473260579284" lon="8.668045135182577"><ele>444.0</ele><time>2026-05-01T08:14:46.999Z</time></trkpt><trkpt lat="40.774772314812544" lon="8.667895930157895"><ele>444.0</ele><time>2026-05-01T08:14:47.999Z</time></trkpt><trkpt lat="40.77481474559742" lon="8.667764552637406"><ele>444.0</ele><time>2026-05-01T08:14:48.999Z</time></trkpt><trkpt lat="40.774871412853585" lon="8.66764413006639"><ele>444.0</ele><time>2026-05-01T08:14:49.999Z</time></trkpt><trkpt lat="40.77494864818241" lon="8.667537574431002"><ele>444.0</ele><time>2026-05-01T08:14:50.999Z</time></trkpt><trkpt lat="40.77503805123386" lon="8.667460642044063"><ele>441.75</ele><time>2026-05-01T08:14:51.999Z</time></trkpt><trkpt lat="40.775137675826976" lon="8.667406892767472"><ele>439.5</ele><time>2026-05-01T08:14:52.999Z</time></trkpt><trkpt lat="40.775245284570985" lon="8.667391842793489"><ele>437.25</ele><time>2026-05-01T08:14:53.999Z</time></trkpt><trkpt lat="40.775361223734514" lon="8.66741017915174"><ele>435.0</ele><time>2026-05-01T08:14:54.999Z</time></trkpt><trkpt lat="40.77548159427028" lon="8.667463337859662"><ele>433.5</ele><time>2026-05-01T08:14:55.999Z</time></trkpt><trkpt lat="40.77561080262735" lon="8.667544709509668"><ele>432.0</ele><time>2026-05-01T08:14:57Z</time></trkpt><trkpt lat="40.7757428722389" lon="8.667632563599117"><ele>430.5</ele><time>2026-05-01T08:14:58Z</time></trkpt><trkpt lat="40.775884431162865" lon="8.667719281748177"><ele>429.0</ele><time>2026-05-01T08:14:59Z</time></trkpt><trkpt lat="40.77602197728255" lon="8.667802560851074"><ele>428.25</ele><time>2026-05-01T08:15:00Z</time></trkpt><trkpt lat="40.77616050195118" lon="8.667885972534767"><ele>427.5</ele><time>2026-05-01T08:15:01Z</time></trkpt><trkpt lat="40.776293282836946" lon="8.667965448448738"><ele>426.75</ele><time>2026-05-01T08:15:02Z</time></trkpt><trkpt lat="40.77641592746588" lon="8.668056578365494"><ele>426.0</ele><time>2026-05-01T08:15:03Z</time></trkpt><trkpt lat="40.77652502183843" lon="8.668159848294641"><ele>426.0</ele><time>2026-05-01T08:15:04Z</time></trkpt><trkpt lat="40.77661895879605" lon="8.66825789239781"><ele>426.0</ele><time>2026-05-01T08:15:05Z</time></trkpt><trkpt lat="40.77669794296975" lon="8.668338082366736"><ele>426.0</ele><time>2026-05-01T08:15:06Z</time></trkpt><trkpt lat="40.77677306817827" lon="8.668392338772703"><ele>426.0</ele><time>2026-05-01T08:15:07Z</time></trkpt><trkpt lat="40.776849841333465" lon="8.668410577103103"><ele>426.0</ele><time>2026-05-01T08:15:08Z</time></trkpt><trkpt lat="40.776925709346294" lon="8.66838525593048"><ele>426.6666666666667</ele><time>2026-05-01T08:15:09Z</time></trkpt><trkpt lat="40.776991659668525" lon="8.66832787058446"><ele>427.33333333333337</ele><time>2026-05-01T08:15:10Z</time></trkpt><trkpt lat="40.77704581479596" lon="8.6682530486315"><ele>428.0</ele><time>2026-05-01T08:15:11Z</time></trkpt><trkpt lat="40.77707897659343" lon="8.6681595507058"><ele>428.6666666666667</ele><time>2026-05-01T08:15:12Z</time></trkpt><trkpt lat="40.77708340653349" lon="8.668051612890777"><ele>429.33333333333337</ele><time>2026-05-01T08:15:13Z</time></trkpt><trkpt lat="40.77706142225995" lon="8.667920645886888"><ele>430.0</ele><time>2026-05-01T08:15:14Z</time></trkpt><trkpt lat="40.77702278105313" lon="8.667762990351148"><ele>430.0</ele><time>2026-05-01T08:15:15Z</time></trkpt><trkpt lat="40.77699916994903" lon="8.667597324415524"><ele>430.0</ele><time>2026-05-01T08:15:16Z</time></trkpt><trkpt lat="40.77696215726816" lon="8.667443196980573"><ele>430.0</ele><time>2026-05-01T08:15:17Z</time></trkpt><trkpt lat="40.776928031017924" lon="8.667293017183395"><ele>430.0</ele><time>2026-05-01T08:15:18Z</time></trkpt><trkpt lat="40.776888673060604" lon="8.667159023413923"><ele>430.0</ele><time>2026-05-01T08:15:19Z</time></trkpt><trkpt lat="40.77689142053461" lon="8.667022694651598"><ele>430.0</ele><time>2026-05-01T08:15:20Z</time></trkpt><trkpt lat="40.77692743135933" lon="8.666896034394501"><ele>430.0</ele><time>2026-05-01T08:15:21Z</time></trkpt><trkpt lat="40.77699556694199" lon="8.666774121456317"><ele>430.0</ele><time>2026-05-01T08:15:22Z</time></trkpt><trkpt lat="40.77709130039938" lon="8.66665155327065"><ele>425.33333333333337</ele><time>2026-05-01T08:15:23Z</time></trkpt><trkpt lat="40.77720133149622" lon="8.666523254496571"><ele>420.66666666666663</ele><time>2026-05-01T08:15:24Z</time></trkpt><trkpt lat="40.777311443774344" lon="8.666388551267408"><ele>416.0</ele><time>2026-05-01T08:15:25Z</time></trkpt><trkpt lat="40.77742798812774" lon="8.666243587443157"><ele>413.66666666666663</ele><time>2026-05-01T08:15:26Z</time></trkpt><trkpt lat="40.777548090412196" lon="8.666102910469608"><ele>411.33333333333337</ele><time>2026-05-01T08:15:27Z</time></trkpt><trkpt lat="40.777683182060834" lon="8.665966993908121"><ele>409.0</ele><time>2026-05-01T08:15:28Z</time></trkpt><trkpt lat="40.77782608210035" lon="8.665835627300268"><ele>409.0</ele><time>2026-05-01T08:15:29Z</time></trkpt><trkpt lat="40.77796470816428" lon="8.665713426923693"><ele>409.0</ele><time>2026-05-01T08:15:30Z</time></trkpt><trkpt lat="40.77810059353467" lon="8.665594627214787"><ele>409.0</ele><time>2026-05-01T08:15:31Z</time></trkpt><trkpt lat="40.77823501915571" lon="8.665476717350208"><ele>409.0</ele><time>2026-05-01T08:15:32Z</time></trkpt><trkpt lat="40.77836721319161" lon="8.665363332977929"><ele>409.0</ele><time>2026-05-01T08:15:33Z</time></trkpt><trkpt lat="40.778498944079566" lon="8.6652530416871"><ele>409.0</ele><time>2026-05-01T08:15:34Z</time></trkpt><trkpt lat="40.77863225919235" lon="8.665157946245946"><ele>405.75</ele><time>2026-05-01T08:15:35Z</time></trkpt><trkpt lat="40.77876885603349" lon="8.6650762292498"><ele>402.5</ele><time>2026-05-01T08:15:36Z</time></trkpt><trkpt lat="40.778905756316426" lon="8.66500763777852"><ele>399.25</ele><time>2026-05-01T08:15:37Z</time></trkpt><trkpt lat="40.77904154921022" lon="8.664948388883738"><ele>396.0</ele><time>2026-05-01T08:15:38Z</time></trkpt><trkpt lat="40.77917771359591" lon="8.664895669294884"><ele>396.0</ele><time>2026-05-01T08:15:39Z</time></trkpt><trkpt lat="40.7793106011387" lon="8.664841830311959"><ele>396.0</ele><time>2026-05-01T08:15:40Z</time></trkpt><trkpt lat="40.77943061091185" lon="8.66477254508383"><ele>396.0</ele><time>2026-05-01T08:15:41Z</time></trkpt><trkpt lat="40.779535705649195" lon="8.66468483682328"><ele>396.0</ele><time>2026-05-01T08:15:42Z</time></trkpt><trkpt lat="40.77962166165709" lon="8.664561739678714"><ele>393.66666666666663</ele><time>2026-05-01T08:15:43Z</time></trkpt><trkpt lat="40.77969411445982" lon="8.664403761215455"><ele>391.3333333333333</ele><time>2026-05-01T08:15:44Z</time></trkpt><trkpt lat="40.779775638565745" lon="8.664237290659852"><ele>389.0</ele><time>2026-05-01T08:15:45Z</time></trkpt><trkpt lat="40.779880925140944" lon="8.66407260567925"><ele>389.0</ele><time>2026-05-01T08:15:46Z</time></trkpt><trkpt lat="40.779993562075" lon="8.663925913499522"><ele>389.0</ele><time>2026-05-01T08:15:47Z</time></trkpt><trkpt lat="40.78010631438863" lon="8.663786946680206"><ele>389.0</ele><time>2026-05-01T08:15:48Z</time></trkpt><trkpt lat="40.78021615223784" lon="8.663649980521498"><ele>385.25</ele><time>2026-05-01T08:15:49Z</time></trkpt><trkpt lat="40.78032305286411" lon="8.663527127919538"><ele>381.5</ele><time>2026-05-01T08:15:50Z</time></trkpt><trkpt lat="40.78043418629554" lon="8.663424739794268"><ele>377.75</ele><time>2026-05-01T08:15:51Z</time></trkpt><trkpt lat="40.78055321811848" lon="8.66335047194139"><ele>374.0</ele><time>2026-05-01T08:15:52Z</time></trkpt><trkpt lat="40.78067816835077" lon="8.66331850038213"><ele>374.0</ele><time>2026-05-01T08:15:53Z</time></trkpt><trkpt lat="40.78080469516712" lon="8.663332185712129"><ele>374.0</ele><time>2026-05-01T08:15:54Z</time></trkpt><trkpt lat="40.78092931077884" lon="8.663369800774872"><ele>374.0</ele><time>2026-05-01T08:15:55Z</time></trkpt><trkpt lat="40.781050767683745" lon="8.663395495047126"><ele>374.0</ele><time>2026-05-01T08:15:56Z</time></trkpt><trkpt lat="40.781171657881096" lon="8.66337956458302"><ele>373.75</ele><time>2026-05-01T08:15:57Z</time></trkpt><trkpt lat="40.781285919409655" lon="8.66333183162293"><ele>373.5</ele><time>2026-05-01T08:15:58Z</time></trkpt><trkpt lat="40.781386689043316" lon="8.663253667259646"><ele>373.25</ele><time>2026-05-01T08:15:59Z</time></trkpt><trkpt lat="40.78146553610121" lon="8.663145561144514"><ele>373.0</ele><time>2026-05-01T08:16:00Z</time></trkpt><trkpt lat="40.78152723498228" lon="8.66301610760928"><ele>373.0</ele><time>2026-05-01T08:16:01Z</time></trkpt><trkpt lat="40.781570511385496" lon="8.662866965371547"><ele>373.0</ele><time>2026-05-01T08:16:02Z</time></trkpt><trkpt lat="40.78158889059054" lon="8.662705772976611"><ele>373.0</ele><time>2026-05-01T08:16:03Z</time></trkpt><trkpt lat="40.781575551971585" lon="8.6625446840979"><ele>373.0</ele><time>2026-05-01T08:16:04Z</time></trkpt><trkpt lat="40.781534108963356" lon="8.662390703168628"><ele>370.66666666666663</ele><time>2026-05-01T08:16:05Z</time></trkpt><trkpt lat="40.7814643769356" lon="8.662227674167571"><ele>368.3333333333333</ele><time>2026-05-01T08:16:06Z</time></trkpt><trkpt lat="40.78139605410657" lon="8.662046924313941"><ele>366.0</ele><time>2026-05-01T08:16:07Z</time></trkpt><trkpt lat="40.781307195438146" lon="8.661866856207633"><ele>365.6666666666667</ele><time>2026-05-01T08:16:08Z</time></trkpt><trkpt lat="40.781212204036095" lon="8.661674359698232"><ele>365.33333333333337</ele><time>2026-05-01T08:16:09Z</time></trkpt><trkpt lat="40.781116458994056" lon="8.661480554111892"><ele>365.0</ele><time>2026-05-01T08:16:10Z</time></trkpt><trkpt lat="40.78101959923541" lon="8.66128701509946"><ele>362.0</ele><time>2026-05-01T08:16:11Z</time></trkpt><trkpt lat="40.78091767253758" lon="8.661083351373895"><ele>359.0</ele><time>2026-05-01T08:16:12Z</time></trkpt><trkpt lat="40.780814340865916" lon="8.660876881030442"><ele>356.0</ele><time>2026-05-01T08:16:13Z</time></trkpt><trkpt lat="40.7807093763932" lon="8.660667147028338"><ele>356.0</ele><time>2026-05-01T08:16:14Z</time></trkpt><trkpt lat="40.78060564972206" lon="8.660456783468703"><ele>356.0</ele><time>2026-05-01T08:16:15Z</time></trkpt><trkpt lat="40.78050695279305" lon="8.660255473753455"><ele>356.0</ele><time>2026-05-01T08:16:16Z</time></trkpt><trkpt lat="40.78041116081639" lon="8.660059430587117"><ele>356.6666666666667</ele><time>2026-05-01T08:16:17Z</time></trkpt><trkpt lat="40.78031756021922" lon="8.6598678720988"><ele>357.3333333333333</ele><time>2026-05-01T08:16:18Z</time></trkpt><trkpt lat="40.78022546751622" lon="8.659679399666475"><ele>358.0</ele><time>2026-05-01T08:16:19Z</time></trkpt><trkpt lat="40.780134347766186" lon="8.65949350237144"><ele>356.0</ele><time>2026-05-01T08:16:20Z</time></trkpt><trkpt lat="40.78004334062208" lon="8.659312213279621"><ele>354.0</ele><time>2026-05-01T08:16:21Z</time></trkpt><trkpt lat="40.77995259356138" lon="8.659131195834913"><ele>352.0</ele><time>2026-05-01T08:16:22Z</time></trkpt><trkpt lat="40.7798635236459" lon="8.658952320448346"><ele>352.0</ele><time>2026-05-01T08:16:23Z</time></trkpt><trkpt lat="40.779777335661635" lon="8.658773974942083"><ele>352.0</ele><time>2026-05-01T08:16:24Z</time></trkpt><trkpt lat="40.77969220954008" lon="8.658596593836434"><ele>352.0</ele><time>2026-05-01T08:16:25Z</time></trkpt><trkpt lat="40.779597870953395" lon="8.65842896978224"><ele>350.0</ele><time>2026-05-01T08:16:26Z</time></trkpt><trkpt lat="40.77953191671395" lon="8.658239709708399"><ele>348.0</ele><time>2026-05-01T08:16:27Z</time></trkpt><trkpt lat="40.779443037898574" lon="8.658069656659158"><ele>346.0</ele><time>2026-05-01T08:16:28Z</time></trkpt><trkpt lat="40.779347015887126" lon="8.657912106275312"><ele>342.3333333333333</ele><time>2026-05-01T08:16:29Z</time></trkpt><trkpt lat="40.779241897232986" lon="8.657753435282396"><ele>338.6666666666667</ele><time>2026-05-01T08:16:30Z</time></trkpt><trkpt lat="40.77913364429857" lon="8.657593631950332"><ele>335.0</ele><time>2026-05-01T08:16:31Z</time></trkpt><trkpt lat="40.77902509713612" lon="8.657433678047266"><ele>335.0</ele><time>2026-05-01T08:16:32Z</time></trkpt><trkpt lat="40.77892636679249" lon="8.65728819010547"><ele>335.0</ele><time>2026-05-01T08:16:33Z</time></trkpt><trkpt lat="40.77883338978914" lon="8.657151180220716"><ele>335.0</ele><time>2026-05-01T08:16:34Z</time></trkpt><trkpt lat="40.77875304544071" lon="8.657032938772366"><ele>335.0</ele><time>2026-05-01T08:16:35Z</time></trkpt><trkpt lat="40.77870530423471" lon="8.65689920075193"><ele>334.75</ele><time>2026-05-01T08:16:36Z</time></trkpt><trkpt lat="40.77868355844039" lon="8.656763951743804"><ele>334.5</ele><time>2026-05-01T08:16:37Z</time></trkpt><trkpt lat="40.778691185169734" lon="8.656621895200349"><ele>334.25</ele><time>2026-05-01T08:16:38Z</time></trkpt><trkpt lat="40.778712539885355" lon="8.656461764313924"><ele>334.0</ele><time>2026-05-01T08:16:39Z</time></trkpt><trkpt lat="40.778736996420704" lon="8.656300156596206"><ele>334.0</ele><time>2026-05-01T08:16:40Z</time></trkpt><trkpt lat="40.77877039693528" lon="8.656138379736197"><ele>334.0</ele><time>2026-05-01T08:16:41Z</time></trkpt><trkpt lat="40.778793144905336" lon="8.655996947971564"><ele>334.0</ele><time>2026-05-01T08:16:42Z</time></trkpt><trkpt lat="40.778797026395175" lon="8.655843507905765"><ele>334.0</ele><time>2026-05-01T08:16:43Z</time></trkpt><trkpt lat="40.77878416086696" lon="8.655673439746403"><ele>334.5</ele><time>2026-05-01T08:16:44Z</time></trkpt><trkpt lat="40.77875863467946" lon="8.655499927798104"><ele>335.0</ele><time>2026-05-01T08:16:45Z</time></trkpt><trkpt lat="40.77872536492172" lon="8.655333425120798"><ele>335.5</ele><time>2026-05-01T08:16:46Z</time></trkpt><trkpt lat="40.77870532606309" lon="8.655168954305275"><ele>336.0</ele><time>2026-05-01T08:16:46.999Z</time></trkpt><trkpt lat="40.778704872894274" lon="8.655000310715543"><ele>334.3333333333333</ele><time>2026-05-01T08:16:47.999Z</time></trkpt><trkpt lat="40.778721769873144" lon="8.654803112003826"><ele>332.66666666666663</ele><time>2026-05-01T08:16:48.999Z</time></trkpt><trkpt lat="40.77874509628482" lon="8.654601942195608"><ele>331.0</ele><time>2026-05-01T08:16:49.999Z</time></trkpt><trkpt lat="40.778772249248995" lon="8.654379146337586"><ele>329.0</ele><time>2026-05-01T08:16:50.999Z</time></trkpt><trkpt lat="40.77879524787745" lon="8.654155700779366"><ele>327.0</ele><time>2026-05-01T08:16:51.999Z</time></trkpt><trkpt lat="40.77881805625399" lon="8.653948482951371"><ele>325.0</ele><time>2026-05-01T08:16:52.999Z</time></trkpt><trkpt lat="40.77884037862563" lon="8.653743589152166"><ele>324.3333333333333</ele><time>2026-05-01T08:16:53.999Z</time></trkpt><trkpt lat="40.77886906948941" lon="8.65354048666627"><ele>323.6666666666667</ele><time>2026-05-01T08:16:54.999Z</time></trkpt><trkpt lat="40.77890741741289" lon="8.65335181106132"><ele>323.0</ele><time>2026-05-01T08:16:55.999Z</time></trkpt><trkpt lat="40.778956973388105" lon="8.653168965865449"><ele>323.0</ele><time>2026-05-01T08:16:56.999Z</time></trkpt><trkpt lat="40.779012795190106" lon="8.65299791314027"><ele>323.0</ele><time>2026-05-01T08:16:57.999Z</time></trkpt><trkpt lat="40.77907543103132" lon="8.652834299796478"><ele>323.0</ele><time>2026-05-01T08:16:58.999Z</time></trkpt><trkpt lat="40.77914143889461" lon="8.652682121884418"><ele>323.0</ele><time>2026-05-01T08:16:59.999Z</time></trkpt><trkpt lat="40.77921835085423" lon="8.652542573333314"><ele>327.5</ele><time>2026-05-01T08:17:00.999Z</time></trkpt><trkpt lat="40.77930678613888" lon="8.65241420598751"><ele>332.0</ele><time>2026-05-01T08:17:01.999Z</time></trkpt><trkpt lat="40.779409010565665" lon="8.652303216204773"><ele>336.5</ele><time>2026-05-01T08:17:02.999Z</time></trkpt><trkpt lat="40.779510318532395" lon="8.65219806385786"><ele>341.0</ele><time>2026-05-01T08:17:03.999Z</time></trkpt><trkpt lat="40.7796056198607" lon="8.652094491954308"><ele>336.0</ele><time>2026-05-01T08:17:04.999Z</time></trkpt><trkpt lat="40.77969083138578" lon="8.651983267016355"><ele>331.0</ele><time>2026-05-01T08:17:05.999Z</time></trkpt><trkpt lat="40.77976821428677" lon="8.651861997542952"><ele>326.0</ele><time>2026-05-01T08:17:06.999Z</time></trkpt><trkpt lat="40.77983661763537" lon="8.651734785563951"><ele>321.0</ele><time>2026-05-01T08:17:07.999Z</time></trkpt><trkpt lat="40.77989571555703" lon="8.651606844219899"><ele>321.0</ele><time>2026-05-01T08:17:08.999Z</time></trkpt><trkpt lat="40.77995252707793" lon="8.651485790123505"><ele>321.0</ele><time>2026-05-01T08:17:09.999Z</time></trkpt><trkpt lat="40.78001151084978" lon="8.65136677012679"><ele>321.0</ele><time>2026-05-01T08:17:11Z</time></trkpt><trkpt lat="40.78007540347916" lon="8.651261310117038"><ele>321.0</ele><time>2026-05-01T08:17:12Z</time></trkpt><trkpt lat="40.78014661970484" lon="8.65117149492976"><ele>321.0</ele><time>2026-05-01T08:17:13Z</time></trkpt><trkpt lat="40.780230585257456" lon="8.65110487368746"><ele>325.75</ele><time>2026-05-01T08:17:14Z</time></trkpt><trkpt lat="40.780326569475626" lon="8.651073922517062"><ele>330.5</ele><time>2026-05-01T08:17:15Z</time></trkpt><trkpt lat="40.78043830410605" lon="8.651065850807006"><ele>335.25</ele><time>2026-05-01T08:17:16Z</time></trkpt><trkpt lat="40.78056027375804" lon="8.651069741910593"><ele>340.0</ele><time>2026-05-01T08:17:17Z</time></trkpt><trkpt lat="40.780684908608784" lon="8.651065456396113"><ele>340.0</ele><time>2026-05-01T08:17:18Z</time></trkpt><trkpt lat="40.780803040383724" lon="8.651066754636467"><ele>340.0</ele><time>2026-05-01T08:17:19Z</time></trkpt><trkpt lat="40.78091632110823" lon="8.65106800543463"><ele>340.0</ele><time>2026-05-01T08:17:20Z</time></trkpt><trkpt lat="40.781027736618526" lon="8.651091282167581"><ele>340.0</ele><time>2026-05-01T08:17:21Z</time></trkpt><trkpt lat="40.78113958601059" lon="8.651133864741215"><ele>330.25</ele><time>2026-05-01T08:17:22Z</time></trkpt><trkpt lat="40.78125694457855" lon="8.651188934407612"><ele>320.5</ele><time>2026-05-01T08:17:23Z</time></trkpt><trkpt lat="40.78138541899671" lon="8.651240736460442"><ele>310.75</ele><time>2026-05-01T08:17:24Z</time></trkpt><trkpt lat="40.781517037015256" lon="8.65129040194856"><ele>301.0</ele><time>2026-05-01T08:17:25Z</time></trkpt><trkpt lat="40.78165034902162" lon="8.651342399888653"><ele>301.0</ele><time>2026-05-01T08:17:26Z</time></trkpt><trkpt lat="40.78177824523484" lon="8.651393301375352"><ele>301.0</ele><time>2026-05-01T08:17:27Z</time></trkpt><trkpt lat="40.78190387073188" lon="8.651445145256679"><ele>301.0</ele><time>2026-05-01T08:17:28Z</time></trkpt><trkpt lat="40.782028451394176" lon="8.65149094477942"><ele>301.0</ele><time>2026-05-01T08:17:29Z</time></trkpt><trkpt lat="40.78215114921812" lon="8.651523743566468"><ele>301.2</ele><time>2026-05-01T08:17:30Z</time></trkpt><trkpt lat="40.78226419778767" lon="8.651541678629417"><ele>301.40000000000003</ele><time>2026-05-01T08:17:31Z</time></trkpt><trkpt lat="40.78236589428833" lon="8.651563342207831"><ele>301.6</ele><time>2026-05-01T08:17:32Z</time></trkpt><trkpt lat="40.78246080758293" lon="8.651619199045587"><ele>301.8</ele><time>2026-05-01T08:17:33Z</time></trkpt><trkpt lat="40.78254009431101" lon="8.651705818341483"><ele>302.0</ele><time>2026-05-01T08:17:34Z</time></trkpt><trkpt lat="40.78260721110708" lon="8.651805058314867"><ele>302.0</ele><time>2026-05-01T08:17:35Z</time></trkpt><trkpt lat="40.78268031566633" lon="8.651887452852273"><ele>302.0</ele><time>2026-05-01T08:17:36Z</time></trkpt><trkpt lat="40.782772923746414" lon="8.651933055227644"><ele>302.0</ele><time>2026-05-01T08:17:37Z</time></trkpt><trkpt lat="40.78288066705915" lon="8.651955727524715"><ele>302.0</ele><time>2026-05-01T08:17:38Z</time></trkpt><trkpt lat="40.78299560985577" lon="8.6519588844893"><ele>302.0</ele><time>2026-05-01T08:17:39Z</time></trkpt><trkpt lat="40.78310737744634" lon="8.651948298834226"><ele>301.2</ele><time>2026-05-01T08:17:40Z</time></trkpt><trkpt lat="40.78321291955504" lon="8.651935579425293"><ele>300.4</ele><time>2026-05-01T08:17:41Z</time></trkpt><trkpt lat="40.78331486504586" lon="8.65190962380098"><ele>299.6</ele><time>2026-05-01T08:17:42Z</time></trkpt><trkpt lat="40.783411541730494" lon="8.651871830037441"><ele>298.8</ele><time>2026-05-01T08:17:43Z</time></trkpt><trkpt lat="40.78350386609353" lon="8.651826607769731"><ele>298.0</ele><time>2026-05-01T08:17:44Z</time></trkpt><trkpt lat="40.783591763413625" lon="8.651776049139702"><ele>295.0</ele><time>2026-05-01T08:17:45Z</time></trkpt><trkpt lat="40.78367452957927" lon="8.651714996292563"><ele>292.0</ele><time>2026-05-01T08:17:46Z</time></trkpt><trkpt lat="40.783753383003464" lon="8.651638016833088"><ele>289.0</ele><time>2026-05-01T08:17:47Z</time></trkpt><trkpt lat="40.78383353121247" lon="8.65153767031729"><ele>286.0</ele><time>2026-05-01T08:17:48Z</time></trkpt><trkpt lat="40.78391178143663" lon="8.651418565038563"><ele>283.0</ele><time>2026-05-01T08:17:49Z</time></trkpt><trkpt lat="40.783993554248624" lon="8.651289063105688"><ele>283.0</ele><time>2026-05-01T08:17:50Z</time></trkpt><trkpt lat="40.78407907034111" lon="8.651157262743586"><ele>283.0</ele><time>2026-05-01T08:17:51Z</time></trkpt><trkpt lat="40.784161306893246" lon="8.651033272859056"><ele>283.0</ele><time>2026-05-01T08:17:52Z</time></trkpt><trkpt lat="40.784239867858886" lon="8.650910226858208"><ele>283.0</ele><time>2026-05-01T08:17:53Z</time></trkpt><trkpt lat="40.78431543609104" lon="8.650790073082465"><ele>280.6</ele><time>2026-05-01T08:17:54Z</time></trkpt><trkpt lat="40.78438957206604" lon="8.650671947899552"><ele>278.20000000000005</ele><time>2026-05-01T08:17:55Z</time></trkpt><trkpt lat="40.784462495058435" lon="8.650559326484116"><ele>275.8</ele><time>2026-05-01T08:17:56Z</time></trkpt><trkpt lat="40.784532426076" lon="8.650451427224837"><ele>273.40000000000003</ele><time>2026-05-01T08:17:57Z</time></trkpt><trkpt lat="40.78459293510221" lon="8.650345394793222"><ele>271.0</ele><time>2026-05-01T08:17:58Z</time></trkpt><trkpt lat="40.784639931565614" lon="8.650252985244236"><ele>271.0</ele><time>2026-05-01T08:17:59Z</time></trkpt><trkpt lat="40.784667419421105" lon="8.650163897629204"><ele>271.0</ele><time>2026-05-01T08:18:00Z</time></trkpt><trkpt lat="40.784672469132374" lon="8.650073588457914"><ele>271.0</ele><time>2026-05-01T08:18:01Z</time></trkpt><trkpt lat="40.78462251886538" lon="8.64992869119338"><ele>271.0</ele><time>2026-05-01T08:18:03Z</time></trkpt><trkpt lat="40.78456545861077" lon="8.649873449039301"><ele>271.0</ele><time>2026-05-01T08:18:04Z</time></trkpt><trkpt lat="40.784486706348616" lon="8.64983789365474"><ele>271.0</ele><time>2026-05-01T08:18:05Z</time></trkpt><trkpt lat="40.78439470677926" lon="8.649806588543964"><ele>272.0</ele><time>2026-05-01T08:18:06Z</time></trkpt><trkpt lat="40.78430273383921" lon="8.649757187444202"><ele>273.0</ele><time>2026-05-01T08:18:07Z</time></trkpt><trkpt lat="40.78422446332678" lon="8.649691020888598"><ele>274.0</ele><time>2026-05-01T08:18:08Z</time></trkpt><trkpt lat="40.78416413056225" lon="8.649613060596293"><ele>275.0</ele><time>2026-05-01T08:18:09Z</time></trkpt><trkpt lat="40.78411612079653" lon="8.64952709491884"><ele>276.0</ele><time>2026-05-01T08:18:10Z</time></trkpt><trkpt lat="40.78407032205862" lon="8.64944358387728"><ele>277.0</ele><time>2026-05-01T08:18:11Z</time></trkpt><trkpt lat="40.78402960352279" lon="8.64935632578491"><ele>277.0</ele><time>2026-05-01T08:18:12Z</time></trkpt><trkpt lat="40.784005949998416" lon="8.649263882502288"><ele>277.0</ele><time>2026-05-01T08:18:13Z</time></trkpt><trkpt lat="40.78400143852042" lon="8.649176025676935"><ele>277.0</ele><time>2026-05-01T08:18:14Z</time></trkpt><trkpt lat="40.78400502553361" lon="8.649090200606468"><ele>277.0</ele><time>2026-05-01T08:18:15Z</time></trkpt><trkpt lat="40.78406313429378" lon="8.648949704352662"><ele>277.0</ele><time>2026-05-01T08:18:17Z</time></trkpt><trkpt lat="40.78411814246142" lon="8.648900655905125"><ele>277.0</ele><time>2026-05-01T08:18:18Z</time></trkpt><trkpt lat="40.78419267748267" lon="8.648864959509986"><ele>277.0</ele><time>2026-05-01T08:18:19Z</time></trkpt><trkpt lat="40.784287680129395" lon="8.648857546145186"><ele>277.0</ele><time>2026-05-01T08:18:20Z</time></trkpt><trkpt lat="40.784395241552524" lon="8.648883344752761"><ele>277.0</ele><time>2026-05-01T08:18:21Z</time></trkpt><trkpt lat="40.7845043627809" lon="8.64892072605272"><ele>277.0</ele><time>2026-05-01T08:18:22Z</time></trkpt><trkpt lat="40.7846246949189" lon="8.648960965575778"><ele>277.0</ele><time>2026-05-01T08:18:23Z</time></trkpt><trkpt lat="40.784755163388716" lon="8.649001916521181"><ele>275.75</ele><time>2026-05-01T08:18:24Z</time></trkpt><trkpt lat="40.784893862936094" lon="8.649038173020726"><ele>274.5</ele><time>2026-05-01T08:18:25Z</time></trkpt><trkpt lat="40.78502438046804" lon="8.649077352252068"><ele>273.25</ele><time>2026-05-01T08:18:26Z</time></trkpt><trkpt lat="40.785150883519236" lon="8.64911288114589"><ele>272.0</ele><time>2026-05-01T08:18:27Z</time></trkpt><trkpt lat="40.785272007340296" lon="8.649148716588364"><ele>276.0</ele><time>2026-05-01T08:18:28Z</time></trkpt><trkpt lat="40.78538421775931" lon="8.649186003840763"><ele>280.0</ele><time>2026-05-01T08:18:29Z</time></trkpt><trkpt lat="40.78547810343209" lon="8.649221677946699"><ele>284.0</ele><time>2026-05-01T08:18:30Z</time></trkpt><trkpt lat="40.785542034359" lon="8.649249060526262"><ele>288.0</ele><time>2026-05-01T08:18:31Z</time></trkpt><trkpt lat="40.78562010126985" lon="8.649324040032779"><ele>292.0</ele><time>2026-05-01T08:18:33Z</time></trkpt><trkpt lat="40.785625388244874" lon="8.64945576560814"><ele>286.0</ele><time>2026-05-01T08:18:35Z</time></trkpt><trkpt lat="40.78554981256321" lon="8.64958635204822"><ele>280.0</ele><time>2026-05-01T08:18:37Z</time></trkpt><trkpt lat="40.78547724740451" lon="8.64971105775057"><ele>274.0</ele><time>2026-05-01T08:18:39Z</time></trkpt><trkpt lat="40.78545110386436" lon="8.64987708808509"><ele>268.0</ele><time>2026-05-01T08:18:41Z</time></trkpt><trkpt lat="40.78544066062869" lon="8.64996158244285"><ele>262.0</ele><time>2026-05-01T08:18:42Z</time></trkpt><trkpt lat="40.78542381020791" lon="8.650042176367474"><ele>262.0</ele><time>2026-05-01T08:18:43Z</time></trkpt><trkpt lat="40.78541538644455" lon="8.65019173789882"><ele>262.0</ele><time>2026-05-01T08:18:45Z</time></trkpt><trkpt lat="40.78545170956444" lon="8.65031307380411"><ele>262.0</ele><time>2026-05-01T08:18:47Z</time></trkpt><trkpt lat="40.7855430973777" lon="8.650365799227314"><ele>262.0</ele><time>2026-05-01T08:18:49Z</time></trkpt><trkpt lat="40.785652052711484" lon="8.650358257991641"><ele>262.0</ele><time>2026-05-01T08:18:51Z</time></trkpt><trkpt lat="40.78575797181164" lon="8.650334818549517"><ele>259.8</ele><time>2026-05-01T08:18:52.999Z</time></trkpt><trkpt lat="40.78585621419163" lon="8.650357129735172"><ele>257.6</ele><time>2026-05-01T08:18:54.999Z</time></trkpt><trkpt lat="40.785916852109665" lon="8.650457370215696"><ele>255.40000000000003</ele><time>2026-05-01T08:18:56.999Z</time></trkpt><trkpt lat="40.78591931775393" lon="8.650589555565832"><ele>253.20000000000002</ele><time>2026-05-01T08:18:58.999Z</time></trkpt><trkpt lat="40.78586771935159" lon="8.650704335490344"><ele>251.0</ele><time>2026-05-01T08:19:00.999Z</time></trkpt><trkpt lat="40.78580088451028" lon="8.650811965321857"><ele>251.0</ele><time>2026-05-01T08:19:02.999Z</time></trkpt><trkpt lat="40.78573509942101" lon="8.650916695281222"><ele>251.00000000000003</ele><time>2026-05-01T08:19:04.999Z</time></trkpt><trkpt lat="40.785702069065955" lon="8.651041738780481"><ele>251.00000000000003</ele><time>2026-05-01T08:19:06.999Z</time></trkpt><trkpt lat="40.78573571928972" lon="8.651162725284527"><ele>251.0</ele><time>2026-05-01T08:19:08.999Z</time></trkpt><trkpt lat="40.7858460051855" lon="8.651227551029592"><ele>251.0</ele><time>2026-05-01T08:19:10.999Z</time></trkpt><trkpt lat="40.78593236653459" lon="8.651234696611857"><ele>247.0</ele><time>2026-05-01T08:19:11.999Z</time></trkpt><trkpt lat="40.786029459100654" lon="8.651229801106352"><ele>243.00000000000003</ele><time>2026-05-01T08:19:12.999Z</time></trkpt><trkpt lat="40.786123764586954" lon="8.65122091751241"><ele>239.00000000000003</ele><time>2026-05-01T08:19:13.999Z</time></trkpt><trkpt lat="40.786215658369606" lon="8.65121436228733"><ele>235.0</ele><time>2026-05-01T08:19:14.999Z</time></trkpt><trkpt lat="40.786306626492085" lon="8.651211710236716"><ele>231.0</ele><time>2026-05-01T08:19:15.999Z</time></trkpt><trkpt lat="40.78639221724322" lon="8.65123176461127"><ele>231.0</ele><time>2026-05-01T08:19:16.999Z</time></trkpt><trkpt lat="40.78647774783457" lon="8.651272010791317"><ele>231.0</ele><time>2026-05-01T08:19:17.999Z</time></trkpt><trkpt lat="40.786556798102126" lon="8.65133533462108"><ele>231.0</ele><time>2026-05-01T08:19:19Z</time></trkpt><trkpt lat="40.786632423118576" lon="8.65139800951403"><ele>231.0</ele><time>2026-05-01T08:19:20Z</time></trkpt><trkpt lat="40.78671103133668" lon="8.65144734832315"><ele>231.0</ele><time>2026-05-01T08:19:21Z</time></trkpt><trkpt lat="40.78680009177483" lon="8.651461828019388"><ele>231.0</ele><time>2026-05-01T08:19:22Z</time></trkpt><trkpt lat="40.78688968622735" lon="8.651449964848009"><ele>233.8</ele><time>2026-05-01T08:19:23Z</time></trkpt><trkpt lat="40.786980078329044" lon="8.651439003426894"><ele>236.60000000000002</ele><time>2026-05-01T08:19:24Z</time></trkpt><trkpt lat="40.78707141987997" lon="8.651452513836418"><ele>239.4</ele><time>2026-05-01T08:19:25Z</time></trkpt><trkpt lat="40.787162295745226" lon="8.651504186219436"><ele>242.2</ele><time>2026-05-01T08:19:26Z</time></trkpt><trkpt lat="40.78725854465929" lon="8.651590063421153"><ele>245.0</ele><time>2026-05-01T08:19:27Z</time></trkpt><trkpt lat="40.78735216445811" lon="8.651698416915556"><ele>245.0</ele><time>2026-05-01T08:19:28Z</time></trkpt><trkpt lat="40.787445162372094" lon="8.651802407866487"><ele>245.0</ele><time>2026-05-01T08:19:29Z</time></trkpt><trkpt lat="40.78752974775846" lon="8.651914976985411"><ele>245.0</ele><time>2026-05-01T08:19:30Z</time></trkpt><trkpt lat="40.78760854630081" lon="8.652030426163044"><ele>245.0</ele><time>2026-05-01T08:19:31Z</time></trkpt><trkpt lat="40.78767715173187" lon="8.652152297098022"><ele>246.25</ele><time>2026-05-01T08:19:32Z</time></trkpt><trkpt lat="40.78774198759222" lon="8.652276273434312"><ele>247.5</ele><time>2026-05-01T08:19:33Z</time></trkpt><trkpt lat="40.78780788824231" lon="8.652392870766194"><ele>248.75</ele><time>2026-05-01T08:19:34Z</time></trkpt><trkpt lat="40.787870345911735" lon="8.652520350269537"><ele>250.0</ele><time>2026-05-01T08:19:35Z</time></trkpt><trkpt lat="40.78793289929909" lon="8.652642123574687"><ele>250.0</ele><time>2026-05-01T08:19:36Z</time></trkpt><trkpt lat="40.78799265736287" lon="8.652762058145937"><ele>250.0</ele><time>2026-05-01T08:19:37Z</time></trkpt><trkpt lat="40.788053264472694" lon="8.652880108322664"><ele>250.0</ele><time>2026-05-01T08:19:38Z</time></trkpt><trkpt lat="40.78811234806669" lon="8.652995962024637"><ele>250.0</ele><time>2026-05-01T08:19:39Z</time></trkpt><trkpt lat="40.78817672557975" lon="8.653107904096252"><ele>250.0</ele><time>2026-05-01T08:19:40Z</time></trkpt><trkpt lat="40.788240766217925" lon="8.653219324458968"><ele>245.8</ele><time>2026-05-01T08:19:41Z</time></trkpt><trkpt lat="40.78830554269754" lon="8.653332001669277"><ele>241.6</ele><time>2026-05-01T08:19:42Z</time></trkpt><trkpt lat="40.78836983323033" lon="8.653441261714747"><ele>237.39999999999998</ele><time>2026-05-01T08:19:43Z</time></trkpt><trkpt lat="40.788438335654256" lon="8.653546602509026"><ele>233.2</ele><time>2026-05-01T08:19:44Z</time></trkpt><trkpt lat="40.788511656428454" lon="8.653649009116956"><ele>229.0</ele><time>2026-05-01T08:19:45Z</time></trkpt><trkpt lat="40.788589256813566" lon="8.653754061917615"><ele>229.0</ele><time>2026-05-01T08:19:46Z</time></trkpt><trkpt lat="40.788674586516656" lon="8.653859339048287"><ele>229.0</ele><time>2026-05-01T08:19:47Z</time></trkpt><trkpt lat="40.78876616114111" lon="8.653965063630618"><ele>229.0</ele><time>2026-05-01T08:19:48Z</time></trkpt><trkpt lat="40.78886671013233" lon="8.654066840174307"><ele>229.0</ele><time>2026-05-01T08:19:49Z</time></trkpt><trkpt lat="40.788965928038856" lon="8.654166077217296"><ele>229.0</ele><time>2026-05-01T08:19:50Z</time></trkpt><trkpt lat="40.789060078550904" lon="8.654259725658243"><ele>229.0</ele><time>2026-05-01T08:19:51Z</time></trkpt><trkpt lat="40.789154961217925" lon="8.654359438653628"><ele>229.0</ele><time>2026-05-01T08:19:52Z</time></trkpt><trkpt lat="40.78924201663783" lon="8.654462149940223"><ele>229.0</ele><time>2026-05-01T08:19:53Z</time></trkpt><trkpt lat="40.78932559538848" lon="8.65456500543924"><ele>225.39999999999998</ele><time>2026-05-01T08:19:54Z</time></trkpt><trkpt lat="40.789413068364325" lon="8.65465625250922"><ele>221.79999999999998</ele><time>2026-05-01T08:19:55Z</time></trkpt><trkpt lat="40.789501980356036" lon="8.654740840856633"><ele>218.2</ele><time>2026-05-01T08:19:56Z</time></trkpt><trkpt lat="40.789593323102416" lon="8.654821424385446"><ele>214.60000000000002</ele><time>2026-05-01T08:19:57Z</time></trkpt><trkpt lat="40.78968468691719" lon="8.654897850729572"><ele>211.0</ele><time>2026-05-01T08:19:58Z</time></trkpt><trkpt lat="40.78978497196972" lon="8.654960624010362"><ele>211.0</ele><time>2026-05-01T08:19:59Z</time></trkpt><trkpt lat="40.78989219671973" lon="8.655028484653245"><ele>211.0</ele><time>2026-05-01T08:20:00Z</time></trkpt><trkpt lat="40.790011371645576" lon="8.655098062483532"><ele>211.0</ele><time>2026-05-01T08:20:01Z</time></trkpt><trkpt lat="40.79014191411897" lon="8.655163994872435"><ele>211.0</ele><time>2026-05-01T08:20:02Z</time></trkpt><trkpt lat="40.790280480371656" lon="8.655230491966307"><ele>205.0</ele><time>2026-05-01T08:20:03Z</time></trkpt><trkpt lat="40.79041514919938" lon="8.655301319287767"><ele>199.0</ele><time>2026-05-01T08:20:04Z</time></trkpt><trkpt lat="40.790545931086285" lon="8.655370922671866"><ele>193.0</ele><time>2026-05-01T08:20:05Z</time></trkpt><trkpt lat="40.79068711149968" lon="8.655425811402218"><ele>187.0</ele><time>2026-05-01T08:20:06Z</time></trkpt><trkpt lat="40.790851328057414" lon="8.655461631018147"><ele>188.33333333333334</ele><time>2026-05-01T08:20:07Z</time></trkpt><trkpt lat="40.79100970578328" lon="8.655483384785724"><ele>189.66666666666666</ele><time>2026-05-01T08:20:08Z</time></trkpt><trkpt lat="40.791172887798986" lon="8.655498494016795"><ele>191.0</ele><time>2026-05-01T08:20:09Z</time></trkpt><trkpt lat="40.791334489231104" lon="8.655517613317475"><ele>191.0</ele><time>2026-05-01T08:20:10Z</time></trkpt><trkpt lat="40.791489768674154" lon="8.655536542251863"><ele>191.0</ele><time>2026-05-01T08:20:11Z</time></trkpt><trkpt lat="40.79163990957259" lon="8.65555375228399"><ele>191.0</ele><time>2026-05-01T08:20:12Z</time></trkpt><trkpt lat="40.79178456297603" lon="8.655579830257755"><ele>196.33333333333331</ele><time>2026-05-01T08:20:13Z</time></trkpt><trkpt lat="40.79192367285454" lon="8.655650552487572"><ele>201.66666666666666</ele><time>2026-05-01T08:20:14Z</time></trkpt><trkpt lat="40.79205952030239" lon="8.655754548063"><ele>207.0</ele><time>2026-05-01T08:20:15Z</time></trkpt><trkpt lat="40.792195176399034" lon="8.65588736765981"><ele>207.0</ele><time>2026-05-01T08:20:16Z</time></trkpt><trkpt lat="40.792323295096516" lon="8.656008089799858"><ele>207.0</ele><time>2026-05-01T08:20:17Z</time></trkpt><trkpt lat="40.79244449332666" lon="8.65612445575901"><ele>207.0</ele><time>2026-05-01T08:20:18Z</time></trkpt><trkpt lat="40.792565316839045" lon="8.656231229967107"><ele>202.5</ele><time>2026-05-01T08:20:19Z</time></trkpt><trkpt lat="40.79268791893831" lon="8.656327268038458"><ele>198.0</ele><time>2026-05-01T08:20:20Z</time></trkpt><trkpt lat="40.79281022395201" lon="8.656408452996374"><ele>193.5</ele><time>2026-05-01T08:20:21Z</time></trkpt><trkpt lat="40.79293235272813" lon="8.65647813597271"><ele>189.0</ele><time>2026-05-01T08:20:22Z</time></trkpt><trkpt lat="40.793056763912254" lon="8.656522540303252"><ele>189.0</ele><time>2026-05-01T08:20:23Z</time></trkpt><trkpt lat="40.79319478042993" lon="8.656546323775103"><ele>189.0</ele><time>2026-05-01T08:20:24Z</time></trkpt><trkpt lat="40.79333248940253" lon="8.656554618422474"><ele>189.0</ele><time>2026-05-01T08:20:25Z</time></trkpt><trkpt lat="40.79345986163558" lon="8.656558458705428"><ele>189.0</ele><time>2026-05-01T08:20:26Z</time></trkpt><trkpt lat="40.793567876061815" lon="8.656564359765696"><ele>191.79999999999998</ele><time>2026-05-01T08:20:27Z</time></trkpt><trkpt lat="40.793655436638964" lon="8.656577690848861"><ele>194.6</ele><time>2026-05-01T08:20:28Z</time></trkpt><trkpt lat="40.79372071769165" lon="8.656605712300896"><ele>197.4</ele><time>2026-05-01T08:20:29Z</time></trkpt><trkpt lat="40.793786177218465" lon="8.656731976731793"><ele>200.2</ele><time>2026-05-01T08:20:31Z</time></trkpt><trkpt lat="40.79373914999128" lon="8.656880110210691"><ele>203.0</ele><time>2026-05-01T08:20:33Z</time></trkpt><trkpt lat="40.79366984345708" lon="8.656911775022264"><ele>203.0</ele><time>2026-05-01T08:20:34Z</time></trkpt><trkpt lat="40.79357612873061" lon="8.656909391356963"><ele>203.0</ele><time>2026-05-01T08:20:35Z</time></trkpt><trkpt lat="40.793464461661" lon="8.65688269837177"><ele>203.0</ele><time>2026-05-01T08:20:36Z</time></trkpt><trkpt lat="40.79334694316799" lon="8.656854921509707"><ele>203.0</ele><time>2026-05-01T08:20:37Z</time></trkpt><trkpt lat="40.79321427047531" lon="8.656840285906158"><ele>199.5</ele><time>2026-05-01T08:20:38Z</time></trkpt><trkpt lat="40.793082633195205" lon="8.656834367474536"><ele>196.0</ele><time>2026-05-01T08:20:39Z</time></trkpt><trkpt lat="40.7929596086689" lon="8.656828330056491"><ele>192.5</ele><time>2026-05-01T08:20:40Z</time></trkpt><trkpt lat="40.79285089480371" lon="8.656823057473577"><ele>189.0</ele><time>2026-05-01T08:20:41Z</time></trkpt><trkpt lat="40.79276393090254" lon="8.656819699498609"><ele>189.0</ele><time>2026-05-01T08:20:42Z</time></trkpt><trkpt lat="40.79269205962504" lon="8.656838318880197"><ele>189.0</ele><time>2026-05-01T08:20:43Z</time></trkpt><trkpt lat="40.792605430872385" lon="8.65694681083313"><ele>189.0</ele><time>2026-05-01T08:20:45Z</time></trkpt><trkpt lat="40.79259940932082" lon="8.657039680617816"><ele>189.0</ele><time>2026-05-01T08:20:46Z</time></trkpt><trkpt lat="40.79263751520092" lon="8.657120125732561"><ele>189.0</ele><time>2026-05-01T08:20:47Z</time></trkpt><trkpt lat="40.792710498502274" lon="8.657174888843853"><ele>189.0</ele><time>2026-05-01T08:20:48Z</time></trkpt><trkpt lat="40.79281373280058" lon="8.657198137302444"><ele>182.25</ele><time>2026-05-01T08:20:49Z</time></trkpt><trkpt lat="40.792946867317255" lon="8.65721289924937"><ele>175.5</ele><time>2026-05-01T08:20:50Z</time></trkpt><trkpt lat="40.7930862059256" lon="8.657243151743767"><ele>168.75</ele><time>2026-05-01T08:20:51Z</time></trkpt><trkpt lat="40.793240995215996" lon="8.65729990120638"><ele>162.0</ele><time>2026-05-01T08:20:52Z</time></trkpt><trkpt lat="40.79340333214847" lon="8.657366950129983"><ele>165.0</ele><time>2026-05-01T08:20:53Z</time></trkpt><trkpt lat="40.79357658143895" lon="8.65744045517293"><ele>168.0</ele><time>2026-05-01T08:20:54Z</time></trkpt><trkpt lat="40.79375901119009" lon="8.657519524103625"><ele>171.0</ele><time>2026-05-01T08:20:55Z</time></trkpt><trkpt lat="40.793927738057896" lon="8.657591770456161"><ele>171.0</ele><time>2026-05-01T08:20:56Z</time></trkpt><trkpt lat="40.79409235615948" lon="8.657654512369213"><ele>171.0</ele><time>2026-05-01T08:20:57Z</time></trkpt><trkpt lat="40.79424889024459" lon="8.65771849055156"><ele>171.0</ele><time>2026-05-01T08:20:58Z</time></trkpt><trkpt lat="40.794401503646554" lon="8.657771712084779"><ele>163.75</ele><time>2026-05-01T08:20:58.999Z</time></trkpt><trkpt lat="40.794550371315935" lon="8.657811813595455"><ele>156.5</ele><time>2026-05-01T08:20:59.999Z</time></trkpt><trkpt lat="40.79469447216697" lon="8.65783617907766"><ele>149.25</ele><time>2026-05-01T08:21:00.999Z</time></trkpt><trkpt lat="40.79482541581437" lon="8.657841342656988"><ele>142.0</ele><time>2026-05-01T08:21:01.999Z</time></trkpt><trkpt lat="40.79494852446718" lon="8.657821673406078"><ele>149.25</ele><time>2026-05-01T08:21:02.999Z</time></trkpt><trkpt lat="40.79507145980159" lon="8.657762429723196"><ele>156.5</ele><time>2026-05-01T08:21:03.999Z</time></trkpt><trkpt lat="40.79519532455397" lon="8.657678640491287"><ele>163.75</ele><time>2026-05-01T08:21:04.999Z</time></trkpt><trkpt lat="40.79530302045219" lon="8.657602808147887"><ele>171.0</ele><time>2026-05-01T08:21:05.999Z</time></trkpt><trkpt lat="40.79541404090289" lon="8.657550728782446"><ele>171.0</ele><time>2026-05-01T08:21:06.999Z</time></trkpt><trkpt lat="40.79552818988242" lon="8.65753014756119"><ele>171.0</ele><time>2026-05-01T08:21:07.999Z</time></trkpt><trkpt lat="40.79565147259455" lon="8.65755963365798"><ele>171.0</ele><time>2026-05-01T08:21:08.999Z</time></trkpt><trkpt lat="40.79579392665524" lon="8.657631619269846"><ele>171.0</ele><time>2026-05-01T08:21:09.999Z</time></trkpt><trkpt lat="40.7959382295581" lon="8.657717887796773"><ele>161.33333333333334</ele><time>2026-05-01T08:21:10.999Z</time></trkpt><trkpt lat="40.79609841646523" lon="8.657806180554314"><ele>151.66666666666669</ele><time>2026-05-01T08:21:11.999Z</time></trkpt><trkpt lat="40.796264666820974" lon="8.657890724296388"><ele>142.0</ele><time>2026-05-01T08:21:12.999Z</time></trkpt><trkpt lat="40.79642176195803" lon="8.65796652520724"><ele>142.0</ele><time>2026-05-01T08:21:13.999Z</time></trkpt><trkpt lat="40.79657513926785" lon="8.6580404370666"><ele>142.0</ele><time>2026-05-01T08:21:14.999Z</time></trkpt><trkpt lat="40.796743157555355" lon="8.658097914943278"><ele>142.0</ele><time>2026-05-01T08:21:15.999Z</time></trkpt><trkpt lat="40.796925290930886" lon="8.658151624307054"><ele>145.0</ele><time>2026-05-01T08:21:16.999Z</time></trkpt><trkpt lat="40.79710469951916" lon="8.658198111303761"><ele>148.0</ele><time>2026-05-01T08:21:17.999Z</time></trkpt><trkpt lat="40.797282146802395" lon="8.6582468357463"><ele>151.0</ele><time>2026-05-01T08:21:18.999Z</time></trkpt><trkpt lat="40.79744851083447" lon="8.658291604609488"><ele>151.0</ele><time>2026-05-01T08:21:19.999Z</time></trkpt><trkpt lat="40.797606528767524" lon="8.658344019371823"><ele>151.0</ele><time>2026-05-01T08:21:21Z</time></trkpt><trkpt lat="40.79775587035327" lon="8.65840884449376"><ele>151.0</ele><time>2026-05-01T08:21:22Z</time></trkpt><trkpt lat="40.79790000976371" lon="8.658480330506121"><ele>153.25</ele><time>2026-05-01T08:21:23Z</time></trkpt><trkpt lat="40.79803227887139" lon="8.658555775003629"><ele>155.5</ele><time>2026-05-01T08:21:24Z</time></trkpt><trkpt lat="40.79815550278549" lon="8.658625405373828"><ele>157.75</ele><time>2026-05-01T08:21:25Z</time></trkpt><trkpt lat="40.79827185571633" lon="8.658695879576971"><ele>160.0</ele><time>2026-05-01T08:21:26Z</time></trkpt><trkpt lat="40.79838545509271" lon="8.658760600490671"><ele>152.0</ele><time>2026-05-01T08:21:27Z</time></trkpt><trkpt lat="40.79849957850847" lon="8.658812887929582"><ele>144.0</ele><time>2026-05-01T08:21:28Z</time></trkpt><trkpt lat="40.79861334198403" lon="8.658862901747694"><ele>136.0</ele><time>2026-05-01T08:21:29Z</time></trkpt><trkpt lat="40.798727758631564" lon="8.658911675840661"><ele>128.0</ele><time>2026-05-01T08:21:30Z</time></trkpt><trkpt lat="40.79885141370991" lon="8.658951667392646"><ele>128.0</ele><time>2026-05-01T08:21:31Z</time></trkpt><trkpt lat="40.798980302660766" lon="8.658993852755518"><ele>128.0</ele><time>2026-05-01T08:21:32Z</time></trkpt><trkpt lat="40.79911585476904" lon="8.659025774313744"><ele>128.0</ele><time>2026-05-01T08:21:33Z</time></trkpt><trkpt lat="40.79925813521843" lon="8.659045589306206"><ele>128.0</ele><time>2026-05-01T08:21:34Z</time></trkpt><trkpt lat="40.79941080472032" lon="8.659052878863587"><ele>126.33333333333333</ele><time>2026-05-01T08:21:35Z</time></trkpt><trkpt lat="40.79957397518716" lon="8.659064381659999"><ele>124.66666666666666</ele><time>2026-05-01T08:21:36Z</time></trkpt><trkpt lat="40.79973622318462" lon="8.659086500987419"><ele>123.0</ele><time>2026-05-01T08:21:37Z</time></trkpt><trkpt lat="40.799909831413025" lon="8.659104241470722"><ele>123.0</ele><time>2026-05-01T08:21:38Z</time></trkpt><trkpt lat="40.8000861410992" lon="8.659120066458533"><ele>123.0</ele><time>2026-05-01T08:21:39Z</time></trkpt><trkpt lat="40.800256601127394" lon="8.659127820647136"><ele>123.0</ele><time>2026-05-01T08:21:40Z</time></trkpt><trkpt lat="40.80041982553367" lon="8.659140172701507"><ele>122.66666666666666</ele><time>2026-05-01T08:21:41Z</time></trkpt><trkpt lat="40.80057881033908" lon="8.659151945468228"><ele>122.33333333333333</ele><time>2026-05-01T08:21:42Z</time></trkpt><trkpt lat="40.80073230996508" lon="8.659164184223966"><ele>122.0</ele><time>2026-05-01T08:21:43Z</time></trkpt><trkpt lat="40.80088007774785" lon="8.659180036832705"><ele>121.5</ele><time>2026-05-01T08:21:44Z</time></trkpt><trkpt lat="40.80102410031207" lon="8.659200049989442"><ele>121.0</ele><time>2026-05-01T08:21:45Z</time></trkpt><trkpt lat="40.801167196446" lon="8.659228124794808"><ele>120.5</ele><time>2026-05-01T08:21:46Z</time></trkpt><trkpt lat="40.80130531343013" lon="8.659261496905712"><ele>120.0</ele><time>2026-05-01T08:21:47Z</time></trkpt><trkpt lat="40.80144363872064" lon="8.659295660132054"><ele>120.0</ele><time>2026-05-01T08:21:48Z</time></trkpt><trkpt lat="40.80158036112858" lon="8.659331623288674"><ele>120.0</ele><time>2026-05-01T08:21:49Z</time></trkpt><trkpt lat="40.80171622936654" lon="8.659371109761631"><ele>120.0</ele><time>2026-05-01T08:21:50Z</time></trkpt><trkpt lat="40.80185206250861" lon="8.659397318862428"><ele>120.0</ele><time>2026-05-01T08:21:51Z</time></trkpt><trkpt lat="40.801987254076884" lon="8.659406396042662"><ele>116.5</ele><time>2026-05-01T08:21:52Z</time></trkpt><trkpt lat="40.802119522241995" lon="8.659396523509379"><ele>113.0</ele><time>2026-05-01T08:21:53Z</time></trkpt><trkpt lat="40.80224789611132" lon="8.659365497992036"><ele>109.5</ele><time>2026-05-01T08:21:54Z</time></trkpt><trkpt lat="40.80237177527898" lon="8.659316109419196"><ele>106.0</ele><time>2026-05-01T08:21:55Z</time></trkpt><trkpt lat="40.80248855457631" lon="8.659252976048766"><ele>106.0</ele><time>2026-05-01T08:21:56Z</time></trkpt><trkpt lat="40.80259665283847" lon="8.6591703873797"><ele>106.0</ele><time>2026-05-01T08:21:57Z</time></trkpt><trkpt lat="40.80270657848248" lon="8.659062185766913"><ele>106.0</ele><time>2026-05-01T08:21:58Z</time></trkpt><trkpt lat="40.80281203270322" lon="8.658925296783758"><ele>106.0</ele><time>2026-05-01T08:21:59Z</time></trkpt><trkpt lat="40.802916381964046" lon="8.65876164235401"><ele>101.0</ele><time>2026-05-01T08:22:00Z</time></trkpt><trkpt lat="40.803021823519025" lon="8.658592304673812"><ele>96.0</ele><time>2026-05-01T08:22:01Z</time></trkpt><trkpt lat="40.80313785819064" lon="8.65840892227684"><ele>91.0</ele><time>2026-05-01T08:22:02Z</time></trkpt><trkpt lat="40.80324718122174" lon="8.658238002785907"><ele>91.0</ele><time>2026-05-01T08:22:03Z</time></trkpt><trkpt lat="40.80335677693292" lon="8.658060490021677"><ele>91.0</ele><time>2026-05-01T08:22:04Z</time></trkpt><trkpt lat="40.803465820310855" lon="8.657888545435341"><ele>91.0</ele><time>2026-05-01T08:22:05Z</time></trkpt><trkpt lat="40.803581466758715" lon="8.65773061201973"><ele>88.33333333333333</ele><time>2026-05-01T08:22:06Z</time></trkpt><trkpt lat="40.803702908241064" lon="8.657596205660063"><ele>85.66666666666667</ele><time>2026-05-01T08:22:07Z</time></trkpt><trkpt lat="40.803837083470725" lon="8.657480323153807"><ele>83.0</ele><time>2026-05-01T08:22:08Z</time></trkpt><trkpt lat="40.80397998086057" lon="8.657364877015183"><ele>83.0</ele><time>2026-05-01T08:22:09Z</time></trkpt><trkpt lat="40.804128030258596" lon="8.657253263077564"><ele>83.0</ele><time>2026-05-01T08:22:10Z</time></trkpt><trkpt lat="40.80426240270947" lon="8.657135267726526"><ele>83.0</ele><time>2026-05-01T08:22:11Z</time></trkpt><trkpt lat="40.80438808988231" lon="8.657014454068689"><ele>80.5</ele><time>2026-05-01T08:22:12Z</time></trkpt><trkpt lat="40.8045000964884" lon="8.656884589865482"><ele>78.0</ele><time>2026-05-01T08:22:13Z</time></trkpt><trkpt lat="40.80459888700747" lon="8.656741827612812"><ele>75.5</ele><time>2026-05-01T08:22:14Z</time></trkpt><trkpt lat="40.80468464281555" lon="8.656589127184121"><ele>73.0</ele><time>2026-05-01T08:22:15Z</time></trkpt><trkpt lat="40.8047570188366" lon="8.656429436939423"><ele>73.0</ele><time>2026-05-01T08:22:16Z</time></trkpt><trkpt lat="40.80481716336738" lon="8.656248647483613"><ele>73.0</ele><time>2026-05-01T08:22:17Z</time></trkpt><trkpt lat="40.80486523693251" lon="8.656045414648649"><ele>73.0</ele><time>2026-05-01T08:22:18Z</time></trkpt><trkpt lat="40.80491465370106" lon="8.655846714992025"><ele>73.75</ele><time>2026-05-01T08:22:19Z</time></trkpt><trkpt lat="40.804968936575385" lon="8.655670565921909"><ele>74.5</ele><time>2026-05-01T08:22:20Z</time></trkpt><trkpt lat="40.80503547293892" lon="8.655486411151394"><ele>75.25</ele><time>2026-05-01T08:22:21Z</time></trkpt><trkpt lat="40.80510634521061" lon="8.65531766570589"><ele>76.0</ele><time>2026-05-01T08:22:22Z</time></trkpt><trkpt lat="40.80518412648996" lon="8.655156029086875"><ele>73.25</ele><time>2026-05-01T08:22:23Z</time></trkpt><trkpt lat="40.80525769275477" lon="8.655000049599282"><ele>70.5</ele><time>2026-05-01T08:22:24Z</time></trkpt><trkpt lat="40.80532013713265" lon="8.654841792697965"><ele>67.75</ele><time>2026-05-01T08:22:25Z</time></trkpt><trkpt lat="40.80537746044685" lon="8.654681990469768"><ele>65.0</ele><time>2026-05-01T08:22:26Z</time></trkpt><trkpt lat="40.80542100164958" lon="8.654518248457606"><ele>65.66666666666667</ele><time>2026-05-01T08:22:27Z</time></trkpt><trkpt lat="40.805450046809845" lon="8.65433370211009"><ele>66.33333333333333</ele><time>2026-05-01T08:22:28Z</time></trkpt><trkpt lat="40.805463282018145" lon="8.654126757893566"><ele>67.0</ele><time>2026-05-01T08:22:29Z</time></trkpt><trkpt lat="40.805470467941085" lon="8.653900064025185"><ele>67.0</ele><time>2026-05-01T08:22:30Z</time></trkpt><trkpt lat="40.8054775835422" lon="8.653660892838888"><ele>67.0</ele><time>2026-05-01T08:22:31Z</time></trkpt><trkpt lat="40.8054851429101" lon="8.65343177420549"><ele>67.0</ele><time>2026-05-01T08:22:32Z</time></trkpt><trkpt lat="40.80549242283938" lon="8.653193732213719"><ele>66.66666666666666</ele><time>2026-05-01T08:22:33Z</time></trkpt><trkpt lat="40.80549992401715" lon="8.652947694693989"><ele>66.33333333333333</ele><time>2026-05-01T08:22:34Z</time></trkpt><trkpt lat="40.805510870935905" lon="8.652695218278234"><ele>66.0</ele><time>2026-05-01T08:22:35Z</time></trkpt><trkpt lat="40.80551852601574" lon="8.65243821315141"><ele>65.66666666666667</ele><time>2026-05-01T08:22:36Z</time></trkpt><trkpt lat="40.80552528086739" lon="8.65219057177593"><ele>65.33333333333334</ele><time>2026-05-01T08:22:37Z</time></trkpt><trkpt lat="40.805533196849574" lon="8.651957409561078"><ele>65.0</ele><time>2026-05-01T08:22:38Z</time></trkpt><trkpt lat="40.805542334453044" lon="8.651729865639378"><ele>65.0</ele><time>2026-05-01T08:22:39Z</time></trkpt><trkpt lat="40.805557120334804" lon="8.651497656885695"><ele>65.0</ele><time>2026-05-01T08:22:40Z</time></trkpt><trkpt lat="40.80558871171337" lon="8.651265900707097"><ele>65.0</ele><time>2026-05-01T08:22:41Z</time></trkpt><trkpt lat="40.80563515474375" lon="8.651027974716207"><ele>65.66666666666667</ele><time>2026-05-01T08:22:42Z</time></trkpt><trkpt lat="40.80568054104396" lon="8.650803205881033"><ele>66.33333333333333</ele><time>2026-05-01T08:22:43Z</time></trkpt><trkpt lat="40.805720899295025" lon="8.650595687346337"><ele>67.0</ele><time>2026-05-01T08:22:44Z</time></trkpt><trkpt lat="40.80575137430989" lon="8.65039644121408"><ele>66.0</ele><time>2026-05-01T08:22:45Z</time></trkpt><trkpt lat="40.805765233265184" lon="8.650196973081732"><ele>65.0</ele><time>2026-05-01T08:22:46Z</time></trkpt><trkpt lat="40.80575988034457" lon="8.64997862323587"><ele>64.0</ele><time>2026-05-01T08:22:47Z</time></trkpt><trkpt lat="40.80574104906869" lon="8.649746131714078"><ele>64.0</ele><time>2026-05-01T08:22:48Z</time></trkpt><trkpt lat="40.80572517966269" lon="8.649510830844298"><ele>64.0</ele><time>2026-05-01T08:22:49Z</time></trkpt><trkpt lat="40.805710460029864" lon="8.649292341052004"><ele>64.0</ele><time>2026-05-01T08:22:50Z</time></trkpt><trkpt lat="40.80569745258124" lon="8.649083008404238"><ele>64.33333333333333</ele><time>2026-05-01T08:22:51Z</time></trkpt><trkpt lat="40.80569632344215" lon="8.648872251142263"><ele>64.66666666666667</ele><time>2026-05-01T08:22:52Z</time></trkpt><trkpt lat="40.805713162111495" lon="8.648648708352567"><ele>65.0</ele><time>2026-05-01T08:22:53Z</time></trkpt><trkpt lat="40.805755484422555" lon="8.648413745248948"><ele>65.0</ele><time>2026-05-01T08:22:54Z</time></trkpt><trkpt lat="40.80581000501428" lon="8.648169711333114"><ele>65.0</ele><time>2026-05-01T08:22:55Z</time></trkpt><trkpt lat="40.80586915396299" lon="8.647906076074543"><ele>65.0</ele><time>2026-05-01T08:22:56Z</time></trkpt><trkpt lat="40.8059275317129" lon="8.647637197422885"><ele>64.0</ele><time>2026-05-01T08:22:57Z</time></trkpt><trkpt lat="40.805981118417535" lon="8.647367204012985"><ele>63.0</ele><time>2026-05-01T08:22:58Z</time></trkpt><trkpt lat="40.8060373085139" lon="8.647100835248645"><ele>62.0</ele><time>2026-05-01T08:22:59Z</time></trkpt><trkpt lat="40.80609364844657" lon="8.646854615851858"><ele>62.0</ele><time>2026-05-01T08:23:00Z</time></trkpt><trkpt lat="40.806156702363936" lon="8.646613371111954"><ele>62.0</ele><time>2026-05-01T08:23:01Z</time></trkpt><trkpt lat="40.80623372964501" lon="8.646375051401485"><ele>62.0</ele><time>2026-05-01T08:23:02Z</time></trkpt><trkpt lat="40.80631363345118" lon="8.64615860642078"><ele>63.333333333333336</ele><time>2026-05-01T08:23:03Z</time></trkpt><trkpt lat="40.80639316615244" lon="8.645957227188001"><ele>64.66666666666667</ele><time>2026-05-01T08:23:04Z</time></trkpt><trkpt lat="40.806485438766565" lon="8.6457676234036"><ele>66.0</ele><time>2026-05-01T08:23:04.999Z</time></trkpt><trkpt lat="40.80659628041936" lon="8.645580667751688"><ele>66.0</ele><time>2026-05-01T08:23:05.999Z</time></trkpt><trkpt lat="40.806729859253124" lon="8.645399297921118"><ele>66.0</ele><time>2026-05-01T08:23:06.999Z</time></trkpt><trkpt lat="40.806870535508665" lon="8.645222606161031"><ele>66.0</ele><time>2026-05-01T08:23:07.999Z</time></trkpt><trkpt lat="40.80699796776506" lon="8.645056851337813"><ele>64.33333333333333</ele><time>2026-05-01T08:23:08.999Z</time></trkpt><trkpt lat="40.807112787167846" lon="8.644889008972703"><ele>62.666666666666664</ele><time>2026-05-01T08:23:09.999Z</time></trkpt><trkpt lat="40.80721663024711" lon="8.644707254734781"><ele>61.0</ele><time>2026-05-01T08:23:10.999Z</time></trkpt><trkpt lat="40.80731294395538" lon="8.6444936641456"><ele>62.33333333333333</ele><time>2026-05-01T08:23:11.999Z</time></trkpt><trkpt lat="40.80739482740082" lon="8.644260185602299"><ele>63.66666666666667</ele><time>2026-05-01T08:23:12.999Z</time></trkpt><trkpt lat="40.807469110310514" lon="8.644034045916147"><ele>65.0</ele><time>2026-05-01T08:23:13.999Z</time></trkpt><trkpt lat="40.80754390015894" lon="8.6438173598599"><ele>66.0</ele><time>2026-05-01T08:23:14.999Z</time></trkpt><trkpt lat="40.8076289436605" lon="8.643619786289355"><ele>67.0</ele><time>2026-05-01T08:23:15.999Z</time></trkpt><trkpt lat="40.807727192086574" lon="8.643426822133566"><ele>68.0</ele><time>2026-05-01T08:23:16.999Z</time></trkpt><trkpt lat="40.80783791266198" lon="8.64322796856876"><ele>65.0</ele><time>2026-05-01T08:23:17.999Z</time></trkpt><trkpt lat="40.8079589231937" lon="8.643016938153943"><ele>62.0</ele><time>2026-05-01T08:23:18.999Z</time></trkpt><trkpt lat="40.80808800228743" lon="8.64279827148332"><ele>59.0</ele><time>2026-05-01T08:23:19.999Z</time></trkpt><trkpt lat="40.80822041561669" lon="8.642570667729595"><ele>59.0</ele><time>2026-05-01T08:23:20.999Z</time></trkpt><trkpt lat="40.808363102103854" lon="8.64233379587798"><ele>59.0</ele><time>2026-05-01T08:23:21.999Z</time></trkpt><trkpt lat="40.8085030166819" lon="8.642104962293736"><ele>57.0</ele><time>2026-05-01T08:23:22.999Z</time></trkpt><trkpt lat="40.80863499241718" lon="8.641885814489475"><ele>55.0</ele><time>2026-05-01T08:23:24Z</time></trkpt><trkpt lat="40.80876166255392" lon="8.641675329128088"><ele>53.0</ele><time>2026-05-01T08:23:25Z</time></trkpt><trkpt lat="40.80888344829098" lon="8.641473451516616"><ele>53.0</ele><time>2026-05-01T08:23:26Z</time></trkpt><trkpt lat="40.8089989685974" lon="8.641279043665632"><ele>53.0</ele><time>2026-05-01T08:23:27Z</time></trkpt><trkpt lat="40.8091084982192" lon="8.64109053708807"><ele>53.0</ele><time>2026-05-01T08:23:28Z</time></trkpt><trkpt lat="40.809217330857344" lon="8.640914309903863"><ele>52.333333333333336</ele><time>2026-05-01T08:23:29Z</time></trkpt><trkpt lat="40.8093250810574" lon="8.6407503607377"><ele>51.66666666666667</ele><time>2026-05-01T08:23:30Z</time></trkpt><trkpt lat="40.80943619130186" lon="8.640593909957184"><ele>51.0</ele><time>2026-05-01T08:23:31Z</time></trkpt><trkpt lat="40.809564582335625" lon="8.640445648653804"><ele>51.0</ele><time>2026-05-01T08:23:32Z</time></trkpt><trkpt lat="40.809709308438684" lon="8.64030392913468"><ele>51.0</ele><time>2026-05-01T08:23:33Z</time></trkpt><trkpt lat="40.809864370527244" lon="8.640170041175145"><ele>51.0</ele><time>2026-05-01T08:23:34Z</time></trkpt><trkpt lat="40.81002572812923" lon="8.64004340299746"><ele>50.33333333333333</ele><time>2026-05-01T08:23:35Z</time></trkpt><trkpt lat="40.81018034256383" lon="8.639924256005695"><ele>49.666666666666664</ele><time>2026-05-01T08:23:36Z</time></trkpt><trkpt lat="40.81032863885439" lon="8.639806948999814"><ele>49.0</ele><time>2026-05-01T08:23:37Z</time></trkpt><trkpt lat="40.81046457791118" lon="8.639692090125505"><ele>49.0</ele><time>2026-05-01T08:23:38Z</time></trkpt><trkpt lat="40.81059254704951" lon="8.639574521654922"><ele>49.0</ele><time>2026-05-01T08:23:39Z</time></trkpt><trkpt lat="40.810706427847705" lon="8.639442343412"><ele>49.0</ele><time>2026-05-01T08:23:40Z</time></trkpt><trkpt lat="40.81081261262268" lon="8.639284059371262"><ele>48.666666666666664</ele><time>2026-05-01T08:23:41Z</time></trkpt><trkpt lat="40.810900161283335" lon="8.639104418427344"><ele>48.33333333333333</ele><time>2026-05-01T08:23:42Z</time></trkpt><trkpt lat="40.810969240786086" lon="8.63891248970587"><ele>48.0</ele><time>2026-05-01T08:23:43Z</time></trkpt><trkpt lat="40.81101870843439" lon="8.638719464720317"><ele>48.0</ele><time>2026-05-01T08:23:44Z</time></trkpt><trkpt lat="40.81104057335374" lon="8.638535365044394"><ele>48.0</ele><time>2026-05-01T08:23:45Z</time></trkpt><trkpt lat="40.81104450688593" lon="8.63834889375436"><ele>48.0</ele><time>2026-05-01T08:23:46Z</time></trkpt><trkpt lat="40.811035269198584" lon="8.638147394855451"><ele>48.0</ele><time>2026-05-01T08:23:47Z</time></trkpt><trkpt lat="40.81101637252206" lon="8.637934683580582"><ele>48.0</ele><time>2026-05-01T08:23:48Z</time></trkpt><trkpt lat="40.81100059094044" lon="8.637699379728582"><ele>48.0</ele><time>2026-05-01T08:23:49Z</time></trkpt><trkpt lat="40.81098278376024" lon="8.637454968572662"><ele>48.0</ele><time>2026-05-01T08:23:50Z</time></trkpt><trkpt lat="40.81096420275851" lon="8.637209045912519"><ele>53.33333333333333</ele><time>2026-05-01T08:23:51Z</time></trkpt><trkpt lat="40.81094277331999" lon="8.636959729954917"><ele>58.666666666666664</ele><time>2026-05-01T08:23:52Z</time></trkpt><trkpt lat="40.81091980061638" lon="8.63670040394923"><ele>64.0</ele><time>2026-05-01T08:23:53Z</time></trkpt><trkpt lat="40.810896043873974" lon="8.636435551244151"><ele>64.0</ele><time>2026-05-01T08:23:54Z</time></trkpt><trkpt lat="40.81087412002528" lon="8.636171821848297"><ele>64.0</ele><time>2026-05-01T08:23:55Z</time></trkpt><trkpt lat="40.810853435575495" lon="8.63591970584629"><ele>64.0</ele><time>2026-05-01T08:23:56Z</time></trkpt><trkpt lat="40.81082877344864" lon="8.635672733669889"><ele>63.33333333333333</ele><time>2026-05-01T08:23:57Z</time></trkpt><trkpt lat="40.81080729734232" lon="8.635422775020384"><ele>62.66666666666667</ele><time>2026-05-01T08:23:58Z</time></trkpt><trkpt lat="40.81078905717692" lon="8.635163585629028"><ele>62.0</ele><time>2026-05-01T08:23:59Z</time></trkpt><trkpt lat="40.81077216269967" lon="8.634887502116424"><ele>61.0</ele><time>2026-05-01T08:24:00Z</time></trkpt><trkpt lat="40.810761043884796" lon="8.634602323970784"><ele>60.0</ele><time>2026-05-01T08:24:01Z</time></trkpt><trkpt lat="40.81075072538004" lon="8.634315225858728"><ele>59.0</ele><time>2026-05-01T08:24:02Z</time></trkpt><trkpt lat="40.81073876415268" lon="8.634039896016116"><ele>58.66666666666667</ele><time>2026-05-01T08:24:03Z</time></trkpt><trkpt lat="40.81072744452887" lon="8.633775242148502"><ele>58.33333333333333</ele><time>2026-05-01T08:24:04Z</time></trkpt><trkpt lat="40.81072542647451" lon="8.63352464633559"><ele>58.0</ele><time>2026-05-01T08:24:05Z</time></trkpt><trkpt lat="40.810735029549605" lon="8.633297109504516"><ele>59.0</ele><time>2026-05-01T08:24:06Z</time></trkpt><trkpt lat="40.8107679144238" lon="8.633084125162396"><ele>60.0</ele><time>2026-05-01T08:24:07Z</time></trkpt><trkpt lat="40.810837895994176" lon="8.632876355733172"><ele>61.0</ele><time>2026-05-01T08:24:08Z</time></trkpt><trkpt lat="40.81091611569148" lon="8.632660860608064"><ele>61.0</ele><time>2026-05-01T08:24:09Z</time></trkpt><trkpt lat="40.81099063096625" lon="8.632436121640117"><ele>61.0</ele><time>2026-05-01T08:24:10Z</time></trkpt><trkpt lat="40.811042242330146" lon="8.632192805658047"><ele>61.0</ele><time>2026-05-01T08:24:11Z</time></trkpt><trkpt lat="40.811074191761634" lon="8.631931153987003"><ele>56.666666666666664</ele><time>2026-05-01T08:24:12Z</time></trkpt><trkpt lat="40.81109214030511" lon="8.631678165559887"><ele>52.33333333333333</ele><time>2026-05-01T08:24:13Z</time></trkpt><trkpt lat="40.81111456781897" lon="8.631441216966321"><ele>48.0</ele><time>2026-05-01T08:24:14Z</time></trkpt><trkpt lat="40.81114856177498" lon="8.631211530101435"><ele>49.0</ele><time>2026-05-01T08:24:15Z</time></trkpt><trkpt lat="40.811196221222616" lon="8.630969115194167"><ele>50.0</ele><time>2026-05-01T08:24:16Z</time></trkpt><trkpt lat="40.81127662348655" lon="8.630723851698873"><ele>51.0</ele><time>2026-05-01T08:24:17Z</time></trkpt><trkpt lat="40.811379497772634" lon="8.630475290718072"><ele>52.0</ele><time>2026-05-01T08:24:18Z</time></trkpt><trkpt lat="40.81148123517125" lon="8.630230587182917"><ele>53.0</ele><time>2026-05-01T08:24:19Z</time></trkpt><trkpt lat="40.81158952069248" lon="8.629979691420717"><ele>54.0</ele><time>2026-05-01T08:24:20Z</time></trkpt><trkpt lat="40.81169796077786" lon="8.629719473466254"><ele>54.66666666666667</ele><time>2026-05-01T08:24:21Z</time></trkpt><trkpt lat="40.811806217207895" lon="8.629459245006416"><ele>55.333333333333336</ele><time>2026-05-01T08:24:22Z</time></trkpt><trkpt lat="40.81190865778901" lon="8.629213528209167"><ele>56.0</ele><time>2026-05-01T08:24:23Z</time></trkpt><trkpt lat="40.81201023609546" lon="8.628973224987938"><ele>53.0</ele><time>2026-05-01T08:24:24Z</time></trkpt><trkpt lat="40.81210735713081" lon="8.628741989345173"><ele>50.0</ele><time>2026-05-01T08:24:25Z</time></trkpt><trkpt lat="40.81220200138087" lon="8.628517873290047"><ele>47.0</ele><time>2026-05-01T08:24:26Z</time></trkpt><trkpt lat="40.81229218161652" lon="8.62829820777275"><ele>46.666666666666664</ele><time>2026-05-01T08:24:27Z</time></trkpt><trkpt lat="40.812371238887536" lon="8.628082353807542"><ele>46.333333333333336</ele><time>2026-05-01T08:24:28Z</time></trkpt><trkpt lat="40.81243562682548" lon="8.627867398410336"><ele>46.0</ele><time>2026-05-01T08:24:29Z</time></trkpt><trkpt lat="40.81248266497413" lon="8.627651820966797"><ele>46.0</ele><time>2026-05-01T08:24:30Z</time></trkpt><trkpt lat="40.812501985082484" lon="8.627419292441418"><ele>46.0</ele><time>2026-05-01T08:24:31Z</time></trkpt><trkpt lat="40.81250456118281" lon="8.627169590591892"><ele>46.0</ele><time>2026-05-01T08:24:32Z</time></trkpt><trkpt lat="40.812512167813246" lon="8.626921930711179"><ele>45.66666666666667</ele><time>2026-05-01T08:24:33Z</time></trkpt><trkpt lat="40.81252759396089" lon="8.626686337615837"><ele>45.333333333333336</ele><time>2026-05-01T08:24:34Z</time></trkpt><trkpt lat="40.81255587955923" lon="8.626461513177818"><ele>45.0</ele><time>2026-05-01T08:24:35Z</time></trkpt><trkpt lat="40.81260132300907" lon="8.626252640890584"><ele>44.333333333333336</ele><time>2026-05-01T08:24:36Z</time></trkpt><trkpt lat="40.8126680000072" lon="8.626048098730793"><ele>43.66666666666667</ele><time>2026-05-01T08:24:37Z</time></trkpt><trkpt lat="40.81273614387221" lon="8.625858421560634"><ele>43.0</ele><time>2026-05-01T08:24:38Z</time></trkpt><trkpt lat="40.81278595052134" lon="8.625682246951909"><ele>43.0</ele><time>2026-05-01T08:24:39Z</time></trkpt><trkpt lat="40.81281198305458" lon="8.625506116897014"><ele>43.0</ele><time>2026-05-01T08:24:40Z</time></trkpt><trkpt lat="40.81281780676757" lon="8.625317476643318"><ele>43.0</ele><time>2026-05-01T08:24:41Z</time></trkpt><trkpt lat="40.812796277605045" lon="8.625116173558881"><ele>43.0</ele><time>2026-05-01T08:24:42Z</time></trkpt><trkpt lat="40.812742148324304" lon="8.624903177520107"><ele>42.66666666666667</ele><time>2026-05-01T08:24:43Z</time></trkpt><trkpt lat="40.812660692822064" lon="8.624684329871958"><ele>42.333333333333336</ele><time>2026-05-01T08:24:44Z</time></trkpt><trkpt lat="40.81257051092599" lon="8.624458127163777"><ele>42.0</ele><time>2026-05-01T08:24:45Z</time></trkpt><trkpt lat="40.81248081016396" lon="8.624222643766982"><ele>45.0</ele><time>2026-05-01T08:24:46Z</time></trkpt><trkpt lat="40.8123983356219" lon="8.623998182840122"><ele>48.0</ele><time>2026-05-01T08:24:47Z</time></trkpt><trkpt lat="40.81231239048758" lon="8.62376465445046"><ele>51.0</ele><time>2026-05-01T08:24:48Z</time></trkpt><trkpt lat="40.81222480337846" lon="8.62353341854678"><ele>53.0</ele><time>2026-05-01T08:24:49Z</time></trkpt><trkpt lat="40.812122467870594" lon="8.623312911067918"><ele>55.0</ele><time>2026-05-01T08:24:50Z</time></trkpt><trkpt lat="40.812002158875416" lon="8.623100839942667"><ele>57.0</ele><time>2026-05-01T08:24:51Z</time></trkpt><trkpt lat="40.81186625155002" lon="8.622898231150424"><ele>59.33333333333333</ele><time>2026-05-01T08:24:52Z</time></trkpt><trkpt lat="40.81172986687436" lon="8.622697679293958"><ele>61.666666666666664</ele><time>2026-05-01T08:24:53Z</time></trkpt><trkpt lat="40.81159098815977" lon="8.62249246637664"><ele>64.0</ele><time>2026-05-01T08:24:54Z</time></trkpt><trkpt lat="40.81145967244007" lon="8.622282734401292"><ele>64.0</ele><time>2026-05-01T08:24:55Z</time></trkpt><trkpt lat="40.81134182934938" lon="8.622076914169472"><ele>64.0</ele><time>2026-05-01T08:24:56Z</time></trkpt><trkpt lat="40.811232600582606" lon="8.621877992049019"><ele>64.0</ele><time>2026-05-01T08:24:57Z</time></trkpt><trkpt lat="40.81114055148791" lon="8.6216893343763"><ele>65.25</ele><time>2026-05-01T08:24:58Z</time></trkpt><trkpt lat="40.81104834528169" lon="8.621522979237298"><ele>66.5</ele><time>2026-05-01T08:24:59Z</time></trkpt><trkpt lat="40.81095098335761" lon="8.621384561369721"><ele>67.75</ele><time>2026-05-01T08:25:00Z</time></trkpt><trkpt lat="40.81084197685216" lon="8.621280890579488"><ele>69.0</ele><time>2026-05-01T08:25:01Z</time></trkpt><trkpt lat="40.810722174148424" lon="8.621214695943134"><ele>69.0</ele><time>2026-05-01T08:25:02Z</time></trkpt><trkpt lat="40.81058477503552" lon="8.62117506646024"><ele>69.0</ele><time>2026-05-01T08:25:03Z</time></trkpt><trkpt lat="40.810434117695074" lon="8.621177804089337"><ele>69.0</ele><time>2026-05-01T08:25:04Z</time></trkpt><trkpt lat="40.810275118159915" lon="8.621201244823927"><ele>69.66666666666667</ele><time>2026-05-01T08:25:05.001Z</time></trkpt><trkpt lat="40.810107745244586" lon="8.621217178709266"><ele>70.33333333333334</ele><time>2026-05-01T08:25:06.001Z</time></trkpt><trkpt lat="40.80994607322968" lon="8.621230045092387"><ele>71.0</ele><time>2026-05-01T08:25:07.001Z</time></trkpt><trkpt lat="40.809784988877894" lon="8.62123087694376"><ele>71.0</ele><time>2026-05-01T08:25:08.001Z</time></trkpt><trkpt lat="40.80961946170088" lon="8.62120429701242"><ele>71.0</ele><time>2026-05-01T08:25:09.001Z</time></trkpt><trkpt lat="40.80944392949283" lon="8.621141659637583"><ele>71.0</ele><time>2026-05-01T08:25:10.001Z</time></trkpt><trkpt lat="40.80925674416267" lon="8.621061486044859"><ele>74.0</ele><time>2026-05-01T08:25:10.999Z</time></trkpt><trkpt lat="40.809063096246916" lon="8.620979439765334"><ele>77.0</ele><time>2026-05-01T08:25:11.999Z</time></trkpt><trkpt lat="40.80887568666595" lon="8.62089008541627"><ele>80.0</ele><time>2026-05-01T08:25:12.999Z</time></trkpt><trkpt lat="40.80869666748288" lon="8.620794178205559"><ele>80.0</ele><time>2026-05-01T08:25:13.999Z</time></trkpt><trkpt lat="40.808518455838" lon="8.620697774803235"><ele>80.0</ele><time>2026-05-01T08:25:14.999Z</time></trkpt><trkpt lat="40.80834865299263" lon="8.62060496849611"><ele>80.0</ele><time>2026-05-01T08:25:15.999Z</time></trkpt><trkpt lat="40.808182345955835" lon="8.620519984842169"><ele>79.0</ele><time>2026-05-01T08:25:16.999Z</time></trkpt><trkpt lat="40.80799992426808" lon="8.620459489308477"><ele>78.0</ele><time>2026-05-01T08:25:17.999Z</time></trkpt><trkpt lat="40.80780640082382" lon="8.620418197280182"><ele>77.0</ele><time>2026-05-01T08:25:18.999Z</time></trkpt><trkpt lat="40.80761373793938" lon="8.620377108065282"><ele>76.33333333333334</ele><time>2026-05-01T08:25:19.999Z</time></trkpt><trkpt lat="40.80743738408912" lon="8.62033777362456"><ele>75.66666666666667</ele><time>2026-05-01T08:25:20.999Z</time></trkpt><trkpt lat="40.80727104843798" lon="8.620294685379333"><ele>75.0</ele><time>2026-05-01T08:25:21.999Z</time></trkpt><trkpt lat="40.807112660778515" lon="8.620226157892564"><ele>78.0</ele><time>2026-05-01T08:25:22.999Z</time></trkpt><trkpt lat="40.80695684710587" lon="8.620118905438135"><ele>81.0</ele><time>2026-05-01T08:25:23.999Z</time></trkpt><trkpt lat="40.80680949567723" lon="8.619974027640966"><ele>84.0</ele><time>2026-05-01T08:25:24.999Z</time></trkpt><trkpt lat="40.806663696447146" lon="8.619800362612738"><ele>84.0</ele><time>2026-05-01T08:25:25.999Z</time></trkpt><trkpt lat="40.80651127780583" lon="8.619621078502986"><ele>84.0</ele><time>2026-05-01T08:25:26.999Z</time></trkpt><trkpt lat="40.8063620164932" lon="8.619448653273155"><ele>84.0</ele><time>2026-05-01T08:25:27.999Z</time></trkpt><trkpt lat="40.80622762489816" lon="8.61929088813196"><ele>86.0</ele><time>2026-05-01T08:25:28.999Z</time></trkpt><trkpt lat="40.80609836640693" lon="8.619151206323627"><ele>88.0</ele><time>2026-05-01T08:25:29.999Z</time></trkpt><trkpt lat="40.80596471995461" lon="8.61903871430323"><ele>90.0</ele><time>2026-05-01T08:25:30.999Z</time></trkpt><trkpt lat="40.805832820447186" lon="8.61893772674974"><ele>90.0</ele><time>2026-05-01T08:25:31.999Z</time></trkpt><trkpt lat="40.80570294917394" lon="8.618873842950046"><ele>90.0</ele><time>2026-05-01T08:25:33Z</time></trkpt><trkpt lat="40.805563159336174" lon="8.618831277442695"><ele>90.0</ele><time>2026-05-01T08:25:34Z</time></trkpt><trkpt lat="40.80541407916499" lon="8.618767760026264"><ele>90.0</ele><time>2026-05-01T08:25:35Z</time></trkpt><trkpt lat="40.80526903210801" lon="8.618688786873305"><ele>92.66666666666666</ele><time>2026-05-01T08:25:36Z</time></trkpt><trkpt lat="40.80512497128126" lon="8.618590671229788"><ele>95.33333333333333</ele><time>2026-05-01T08:25:37Z</time></trkpt><trkpt lat="40.80498287243303" lon="8.618470066927712"><ele>98.0</ele><time>2026-05-01T08:25:38Z</time></trkpt><trkpt lat="40.8048454482953" lon="8.618331569399091"><ele>98.0</ele><time>2026-05-01T08:25:39Z</time></trkpt><trkpt lat="40.80471014964966" lon="8.618182121126134"><ele>98.0</ele><time>2026-05-01T08:25:40Z</time></trkpt><trkpt lat="40.80457266033761" lon="8.618040466083812"><ele>98.0</ele><time>2026-05-01T08:25:41Z</time></trkpt><trkpt lat="40.80441998543182" lon="8.617910078339591"><ele>100.66666666666666</ele><time>2026-05-01T08:25:42Z</time></trkpt><trkpt lat="40.80425013367624" lon="8.617792923761181"><ele>103.33333333333334</ele><time>2026-05-01T08:25:43Z</time></trkpt><trkpt lat="40.804076525348655" lon="8.617678537247391"><ele>106.0</ele><time>2026-05-01T08:25:44Z</time></trkpt><trkpt lat="40.80389971509759" lon="8.617573214794133"><ele>106.0</ele><time>2026-05-01T08:25:45Z</time></trkpt><trkpt lat="40.80371919225728" lon="8.61746434221369"><ele>106.0</ele><time>2026-05-01T08:25:46Z</time></trkpt><trkpt lat="40.8035356526159" lon="8.617357143983776"><ele>106.0</ele><time>2026-05-01T08:25:47Z</time></trkpt><trkpt lat="40.803351130843666" lon="8.61724586338962"><ele>107.66666666666667</ele><time>2026-05-01T08:25:48Z</time></trkpt><trkpt lat="40.80316822174689" lon="8.617135106367217"><ele>109.33333333333334</ele><time>2026-05-01T08:25:49Z</time></trkpt><trkpt lat="40.80298409108706" lon="8.617026352740789"><ele>111.0</ele><time>2026-05-01T08:25:50Z</time></trkpt><trkpt lat="40.80279849250421" lon="8.616907208045934"><ele>110.33333333333334</ele><time>2026-05-01T08:25:51Z</time></trkpt><trkpt lat="40.802620666856136" lon="8.616781501282526"><ele>109.66666666666667</ele><time>2026-05-01T08:25:52Z</time></trkpt><trkpt lat="40.80244426754683" lon="8.616649282914459"><ele>109.0</ele><time>2026-05-01T08:25:53Z</time></trkpt><trkpt lat="40.80226987765456" lon="8.616510587978311"><ele>109.0</ele><time>2026-05-01T08:25:54Z</time></trkpt><trkpt lat="40.80210012924387" lon="8.616372414354577"><ele>109.0</ele><time>2026-05-01T08:25:55Z</time></trkpt><trkpt lat="40.8019352876369" lon="8.616237237241211"><ele>109.0</ele><time>2026-05-01T08:25:56Z</time></trkpt><trkpt lat="40.80177975234653" lon="8.616109104392226"><ele>113.33333333333334</ele><time>2026-05-01T08:25:57Z</time></trkpt><trkpt lat="40.80163960831689" lon="8.61597707331289"><ele>117.66666666666666</ele><time>2026-05-01T08:25:58Z</time></trkpt><trkpt lat="40.80151894391038" lon="8.615848245778766"><ele>122.0</ele><time>2026-05-01T08:25:59Z</time></trkpt><trkpt lat="40.80141370077007" lon="8.615703012190092"><ele>122.0</ele><time>2026-05-01T08:26:00Z</time></trkpt><trkpt lat="40.801326901211766" lon="8.615524927970778"><ele>122.0</ele><time>2026-05-01T08:26:01Z</time></trkpt><trkpt lat="40.80125706741035" lon="8.615325698148974"><ele>122.0</ele><time>2026-05-01T08:26:02Z</time></trkpt><trkpt lat="40.80118208097964" lon="8.615123494613234"><ele>120.66666666666666</ele><time>2026-05-01T08:26:03Z</time></trkpt><trkpt lat="40.8010794068777" lon="8.614925365206739"><ele>119.33333333333334</ele><time>2026-05-01T08:26:04Z</time></trkpt><trkpt lat="40.800964736609316" lon="8.614723953319922"><ele>118.0</ele><time>2026-05-01T08:26:05Z</time></trkpt><trkpt lat="40.80084487192288" lon="8.6145134661575"><ele>123.66666666666667</ele><time>2026-05-01T08:26:06Z</time></trkpt><trkpt lat="40.800729004170144" lon="8.614311049870839"><ele>129.33333333333334</ele><time>2026-05-01T08:26:07Z</time></trkpt><trkpt lat="40.80062052866284" lon="8.614125945422945"><ele>135.0</ele><time>2026-05-01T08:26:08Z</time></trkpt><trkpt lat="40.80052124897431" lon="8.613950929352892"><ele>135.0</ele><time>2026-05-01T08:26:09Z</time></trkpt><trkpt lat="40.80044639737322" lon="8.61379210826715"><ele>135.0</ele><time>2026-05-01T08:26:10Z</time></trkpt><trkpt lat="40.80037182550194" lon="8.613661005142234"><ele>135.0</ele><time>2026-05-01T08:26:11Z</time></trkpt><trkpt lat="40.80031875800563" lon="8.613555605153346"><ele>135.0</ele><time>2026-05-01T08:26:12Z</time></trkpt><trkpt lat="40.80029959857979" lon="8.613455417113327"><ele>135.0</ele><time>2026-05-01T08:26:13Z</time></trkpt><trkpt lat="40.800310436374275" lon="8.613370508377129"><ele>137.66666666666666</ele><time>2026-05-01T08:26:14Z</time></trkpt><trkpt lat="40.80035675717814" lon="8.613300954647379"><ele>140.33333333333334</ele><time>2026-05-01T08:26:15Z</time></trkpt><trkpt lat="40.80042945233786" lon="8.613261389343679"><ele>143.0</ele><time>2026-05-01T08:26:16Z</time></trkpt><trkpt lat="40.800511719856196" lon="8.613278108220126"><ele>145.66666666666669</ele><time>2026-05-01T08:26:17Z</time></trkpt><trkpt lat="40.80058304164706" lon="8.613353025875588"><ele>148.33333333333334</ele><time>2026-05-01T08:26:18Z</time></trkpt><trkpt lat="40.80063672024884" lon="8.613477902836784"><ele>151.0</ele><time>2026-05-01T08:26:19Z</time></trkpt><trkpt lat="40.80067158232282" lon="8.613641139291248"><ele>147.0</ele><time>2026-05-01T08:26:20Z</time></trkpt><trkpt lat="40.8007152734436" lon="8.613810394561158"><ele>143.0</ele><time>2026-05-01T08:26:21Z</time></trkpt><trkpt lat="40.80077384853635" lon="8.613963793306423"><ele>139.0</ele><time>2026-05-01T08:26:22Z</time></trkpt><trkpt lat="40.800857569424004" lon="8.61411056783251"><ele>135.0</ele><time>2026-05-01T08:26:23Z</time></trkpt><trkpt lat="40.80097430626078" lon="8.614262836640455"><ele>138.66666666666666</ele><time>2026-05-01T08:26:24Z</time></trkpt><trkpt lat="40.80111388912419" lon="8.614409366137657"><ele>142.33333333333331</ele><time>2026-05-01T08:26:25Z</time></trkpt><trkpt lat="40.80125080839673" lon="8.614552277711503"><ele>146.0</ele><time>2026-05-01T08:26:26Z</time></trkpt><trkpt lat="40.8013907610613" lon="8.61470972548914"><ele>146.0</ele><time>2026-05-01T08:26:27Z</time></trkpt><trkpt lat="40.801524104441555" lon="8.61488179007386"><ele>146.0</ele><time>2026-05-01T08:26:28Z</time></trkpt><trkpt lat="40.80164348224729" lon="8.615035771546658"><ele>146.0</ele><time>2026-05-01T08:26:29Z</time></trkpt><trkpt lat="40.801770844525386" lon="8.615169670190255"><ele>147.66666666666666</ele><time>2026-05-01T08:26:30Z</time></trkpt><trkpt lat="40.80191608081117" lon="8.615291289355552"><ele>149.33333333333334</ele><time>2026-05-01T08:26:31Z</time></trkpt><trkpt lat="40.80206978474263" lon="8.6153932136296"><ele>151.0</ele><time>2026-05-01T08:26:32Z</time></trkpt><trkpt lat="40.802215343473804" lon="8.615477455897556"><ele>148.4</ele><time>2026-05-01T08:26:33Z</time></trkpt><trkpt lat="40.80234128165569" lon="8.615551856780984"><ele>145.8</ele><time>2026-05-01T08:26:34Z</time></trkpt><trkpt lat="40.80244432172529" lon="8.615582612781534"><ele>143.20000000000002</ele><time>2026-05-01T08:26:35Z</time></trkpt><trkpt lat="40.802540045132666" lon="8.615571951530418"><ele>140.6</ele><time>2026-05-01T08:26:36Z</time></trkpt><trkpt lat="40.802619295536374" lon="8.61551472386675"><ele>138.0</ele><time>2026-05-01T08:26:37Z</time></trkpt><trkpt lat="40.80267564587229" lon="8.615425287953856"><ele>137.20000000000002</ele><time>2026-05-01T08:26:38Z</time></trkpt><trkpt lat="40.8027098558565" lon="8.615309419240598"><ele>136.4</ele><time>2026-05-01T08:26:39Z</time></trkpt><trkpt lat="40.80271109324898" lon="8.615184191887685"><ele>135.60000000000002</ele><time>2026-05-01T08:26:40Z</time></trkpt><trkpt lat="40.8026773282823" lon="8.615054781387128"><ele>134.8</ele><time>2026-05-01T08:26:41Z</time></trkpt><trkpt lat="40.80260000681602" lon="8.614947689782188"><ele>134.0</ele><time>2026-05-01T08:26:42Z</time></trkpt><trkpt lat="40.802495268879234" lon="8.614871141498064"><ele>138.25</ele><time>2026-05-01T08:26:43Z</time></trkpt><trkpt lat="40.80237368072968" lon="8.614811794889453"><ele>142.5</ele><time>2026-05-01T08:26:44Z</time></trkpt><trkpt lat="40.80224864697667" lon="8.614731879303674"><ele>146.75</ele><time>2026-05-01T08:26:45Z</time></trkpt><trkpt lat="40.802122978258026" lon="8.614625107498028"><ele>151.0</ele><time>2026-05-01T08:26:46Z</time></trkpt><trkpt lat="40.8020022986731" lon="8.614491938580253"><ele>153.33333333333334</ele><time>2026-05-01T08:26:47Z</time></trkpt><trkpt lat="40.80188815441641" lon="8.614329078478878"><ele>155.66666666666666</ele><time>2026-05-01T08:26:48Z</time></trkpt><trkpt lat="40.80178505150852" lon="8.614158042279135"><ele>158.0</ele><time>2026-05-01T08:26:49Z</time></trkpt><trkpt lat="40.80168069058463" lon="8.61397513673175"><ele>158.33333333333331</ele><time>2026-05-01T08:26:50Z</time></trkpt><trkpt lat="40.80158302683728" lon="8.613792222340013"><ele>158.66666666666666</ele><time>2026-05-01T08:26:51Z</time></trkpt><trkpt lat="40.80150186652354" lon="8.61361364827291"><ele>159.0</ele><time>2026-05-01T08:26:52Z</time></trkpt><trkpt lat="40.80143404924222" lon="8.613417160622891"><ele>162.66666666666666</ele><time>2026-05-01T08:26:53.001Z</time></trkpt><trkpt lat="40.80138788573134" lon="8.613196715701797"><ele>166.33333333333331</ele><time>2026-05-01T08:26:54.001Z</time></trkpt><trkpt lat="40.80136222204516" lon="8.612989750408143"><ele>170.0</ele><time>2026-05-01T08:26:55.001Z</time></trkpt><trkpt lat="40.80132524134695" lon="8.612803864837547"><ele>173.33333333333331</ele><time>2026-05-01T08:26:56.001Z</time></trkpt><trkpt lat="40.80125807446473" lon="8.61262260172949"><ele>176.66666666666666</ele><time>2026-05-01T08:26:57.001Z</time></trkpt><trkpt lat="40.8011673678769" lon="8.61244973138479"><ele>180.0</ele><time>2026-05-01T08:26:58.001Z</time></trkpt><trkpt lat="40.80105633712652" lon="8.612298478430485"><ele>180.0</ele><time>2026-05-01T08:26:59.001Z</time></trkpt><trkpt lat="40.80093523993961" lon="8.612192736176972"><ele>180.0</ele><time>2026-05-01T08:27:00.001Z</time></trkpt><trkpt lat="40.800826906871166" lon="8.612104961399018"><ele>180.0</ele><time>2026-05-01T08:27:01.001Z</time></trkpt><trkpt lat="40.80074769806172" lon="8.612001782411296"><ele>180.0</ele><time>2026-05-01T08:27:02.001Z</time></trkpt><trkpt lat="40.8007138747031" lon="8.611889060184588"><ele>180.0</ele><time>2026-05-01T08:27:03.001Z</time></trkpt><trkpt lat="40.800725715309206" lon="8.61177789298029"><ele>180.0</ele><time>2026-05-01T08:27:04.001Z</time></trkpt><trkpt lat="40.80077534604195" lon="8.611674931152512"><ele>180.0</ele><time>2026-05-01T08:27:05.001Z</time></trkpt><trkpt lat="40.800862595912164" lon="8.611608180909931"><ele>180.0</ele><time>2026-05-01T08:27:06.001Z</time></trkpt><trkpt lat="40.80096595607273" lon="8.61159114268063"><ele>180.0</ele><time>2026-05-01T08:27:07.001Z</time></trkpt><trkpt lat="40.80107484879954" lon="8.61162758578701"><ele>182.5</ele><time>2026-05-01T08:27:08.001Z</time></trkpt><trkpt lat="40.80118371548798" lon="8.61170568897304"><ele>185.0</ele><time>2026-05-01T08:27:09.001Z</time></trkpt><trkpt lat="40.80128761304971" lon="8.61179931671335"><ele>187.5</ele><time>2026-05-01T08:27:10.001Z</time></trkpt><trkpt lat="40.80138212578205" lon="8.611854634072197"><ele>190.0</ele><time>2026-05-01T08:27:11.001Z</time></trkpt><trkpt lat="40.80148107456466" lon="8.611876968987241"><ele>190.0</ele><time>2026-05-01T08:27:12.001Z</time></trkpt><trkpt lat="40.80158548038168" lon="8.611858530891086"><ele>190.0</ele><time>2026-05-01T08:27:13.001Z</time></trkpt><trkpt lat="40.80167868856226" lon="8.611789779486289"><ele>190.0</ele><time>2026-05-01T08:27:14.001Z</time></trkpt><trkpt lat="40.80174505912808" lon="8.611683195666263"><ele>190.0</ele><time>2026-05-01T08:27:15.001Z</time></trkpt><trkpt lat="40.801775461635934" lon="8.611551820653409"><ele>190.0</ele><time>2026-05-01T08:27:16.001Z</time></trkpt><trkpt lat="40.801767196247354" lon="8.611417367612983"><ele>190.0</ele><time>2026-05-01T08:27:16.999Z</time></trkpt><trkpt lat="40.80171951260167" lon="8.61129135479889"><ele>190.0</ele><time>2026-05-01T08:27:17.999Z</time></trkpt><trkpt lat="40.80163596884425" lon="8.611188684717568"><ele>190.0</ele><time>2026-05-01T08:27:18.999Z</time></trkpt><trkpt lat="40.80151638844258" lon="8.611107456900612"><ele>190.0</ele><time>2026-05-01T08:27:19.999Z</time></trkpt><trkpt lat="40.801392624313415" lon="8.61103147872672"><ele>191.6</ele><time>2026-05-01T08:27:20.999Z</time></trkpt><trkpt lat="40.8012836888687" lon="8.610946597521652"><ele>193.2</ele><time>2026-05-01T08:27:21.999Z</time></trkpt><trkpt lat="40.80119397272925" lon="8.61085184145026"><ele>194.8</ele><time>2026-05-01T08:27:22.999Z</time></trkpt><trkpt lat="40.80113041315796" lon="8.610752482540509"><ele>196.4</ele><time>2026-05-01T08:27:23.999Z</time></trkpt><trkpt lat="40.80109342681794" lon="8.610641859909505"><ele>198.0</ele><time>2026-05-01T08:27:24.999Z</time></trkpt><trkpt lat="40.80108277765176" lon="8.61051005502214"><ele>198.0</ele><time>2026-05-01T08:27:25.999Z</time></trkpt><trkpt lat="40.80110306884944" lon="8.610354704850186"><ele>198.0</ele><time>2026-05-01T08:27:26.999Z</time></trkpt><trkpt lat="40.801147663483505" lon="8.61015899890915"><ele>198.0</ele><time>2026-05-01T08:27:27.999Z</time></trkpt><trkpt lat="40.80120510714112" lon="8.609951740717587"><ele>198.0</ele><time>2026-05-01T08:27:28.999Z</time></trkpt><trkpt lat="40.80124977355762" lon="8.609758671257056"><ele>199.5</ele><time>2026-05-01T08:27:29.999Z</time></trkpt><trkpt lat="40.80127684689787" lon="8.609565738500521"><ele>201.0</ele><time>2026-05-01T08:27:30.999Z</time></trkpt><trkpt lat="40.80128482862812" lon="8.609373139181228"><ele>202.5</ele><time>2026-05-01T08:27:31.999Z</time></trkpt><trkpt lat="40.80127822413489" lon="8.609190419830293"><ele>204.0</ele><time>2026-05-01T08:27:32.999Z</time></trkpt><trkpt lat="40.80126040411028" lon="8.609015528014512"><ele>204.25</ele><time>2026-05-01T08:27:33.999Z</time></trkpt><trkpt lat="40.801232230069516" lon="8.608844365083145"><ele>204.5</ele><time>2026-05-01T08:27:34.999Z</time></trkpt><trkpt lat="40.80118667349872" lon="8.60866341921981"><ele>204.75</ele><time>2026-05-01T08:27:35.999Z</time></trkpt><trkpt lat="40.80111546700156" lon="8.608459644127885"><ele>205.0</ele><time>2026-05-01T08:27:36.999Z</time></trkpt><trkpt lat="40.80102089371383" lon="8.608241410061966"><ele>205.66666666666666</ele><time>2026-05-01T08:27:37.999Z</time></trkpt><trkpt lat="40.80092045651454" lon="8.608035974603563"><ele>206.33333333333331</ele><time>2026-05-01T08:27:38.999Z</time></trkpt><trkpt lat="40.80082683825863" lon="8.607830178823884"><ele>207.0</ele><time>2026-05-01T08:27:40Z</time></trkpt><trkpt lat="40.80073359565357" lon="8.607626977937468"><ele>205.66666666666669</ele><time>2026-05-01T08:27:41Z</time></trkpt><trkpt lat="40.80063840004885" lon="8.607429485851819"><ele>204.33333333333334</ele><time>2026-05-01T08:27:42Z</time></trkpt><trkpt lat="40.800544077639174" lon="8.607232955704266"><ele>203.0</ele><time>2026-05-01T08:27:43Z</time></trkpt><trkpt lat="40.80044960238393" lon="8.607036818389648"><ele>203.0</ele><time>2026-05-01T08:27:44Z</time></trkpt><trkpt lat="40.800355479004544" lon="8.606840361881341"><ele>203.0</ele><time>2026-05-01T08:27:45Z</time></trkpt><trkpt lat="40.80026379157579" lon="8.606643228626188"><ele>203.0</ele><time>2026-05-01T08:27:46Z</time></trkpt><trkpt lat="40.80017248276691" lon="8.606445461495953"><ele>204.66666666666669</ele><time>2026-05-01T08:27:47Z</time></trkpt><trkpt lat="40.8000778864365" lon="8.606252052729"><ele>206.33333333333331</ele><time>2026-05-01T08:27:48Z</time></trkpt><trkpt lat="40.79998421056869" lon="8.606056589316163"><ele>208.0</ele><time>2026-05-01T08:27:49Z</time></trkpt><trkpt lat="40.79988818736948" lon="8.60585217161274"><ele>208.33333333333331</ele><time>2026-05-01T08:27:50Z</time></trkpt><trkpt lat="40.79978713997442" lon="8.605635587506779"><ele>208.66666666666669</ele><time>2026-05-01T08:27:51Z</time></trkpt><trkpt lat="40.79968578095614" lon="8.605418331477408"><ele>209.0</ele><time>2026-05-01T08:27:52Z</time></trkpt><trkpt lat="40.79959238920252" lon="8.605217492094726"><ele>209.0</ele><time>2026-05-01T08:27:53Z</time></trkpt><trkpt lat="40.7995069877492" lon="8.605031082340618"><ele>209.0</ele><time>2026-05-01T08:27:54Z</time></trkpt><trkpt lat="40.799426899424134" lon="8.604864595784008"><ele>209.0</ele><time>2026-05-01T08:27:55Z</time></trkpt><trkpt lat="40.799341023715975" lon="8.604716721181218"><ele>211.5</ele><time>2026-05-01T08:27:56Z</time></trkpt><trkpt lat="40.79923837344509" lon="8.6045842306465"><ele>214.0</ele><time>2026-05-01T08:27:57Z</time></trkpt><trkpt lat="40.79912520546976" lon="8.604450657729627"><ele>216.5</ele><time>2026-05-01T08:27:58Z</time></trkpt><trkpt lat="40.798991383695544" lon="8.60435811676148"><ele>219.0</ele><time>2026-05-01T08:27:59Z</time></trkpt><trkpt lat="40.79883339105878" lon="8.604328737529135"><ele>220.5</ele><time>2026-05-01T08:28:00Z</time></trkpt><trkpt lat="40.798696724697756" lon="8.604301625088889"><ele>222.0</ele><time>2026-05-01T08:28:01Z</time></trkpt><trkpt lat="40.798579364022736" lon="8.604276253300698"><ele>223.5</ele><time>2026-05-01T08:28:02Z</time></trkpt><trkpt lat="40.79847583750133" lon="8.604222572378793"><ele>225.0</ele><time>2026-05-01T08:28:03Z</time></trkpt><trkpt lat="40.798383034773245" lon="8.604126229202459"><ele>226.5</ele><time>2026-05-01T08:28:04Z</time></trkpt><trkpt lat="40.79831720240219" lon="8.603994098935859"><ele>228.0</ele><time>2026-05-01T08:28:05Z</time></trkpt><trkpt lat="40.7982962425609" lon="8.603824760086487"><ele>229.5</ele><time>2026-05-01T08:28:06Z</time></trkpt><trkpt lat="40.79826692223595" lon="8.603647814463887"><ele>231.0</ele><time>2026-05-01T08:28:07Z</time></trkpt><trkpt lat="40.798239955325805" lon="8.6034583751522"><ele>232.0</ele><time>2026-05-01T08:28:08Z</time></trkpt><trkpt lat="40.79819946273349" lon="8.603289649569435"><ele>233.0</ele><time>2026-05-01T08:28:09Z</time></trkpt><trkpt lat="40.79816845982329" lon="8.60314195447871"><ele>234.0</ele><time>2026-05-01T08:28:10Z</time></trkpt><trkpt lat="40.7981206827839" lon="8.603013644889534"><ele>235.0</ele><time>2026-05-01T08:28:11Z</time></trkpt><trkpt lat="40.79806310550438" lon="8.602891421720425"><ele>236.0</ele><time>2026-05-01T08:28:12Z</time></trkpt><trkpt lat="40.797958437021364" lon="8.602810062388759"><ele>237.0</ele><time>2026-05-01T08:28:13Z</time></trkpt><trkpt lat="40.797831346846195" lon="8.602767203359345"><ele>238.0</ele><time>2026-05-01T08:28:14Z</time></trkpt><trkpt lat="40.79769556319967" lon="8.602800230321614"><ele>239.0</ele><time>2026-05-01T08:28:15Z</time></trkpt><trkpt lat="40.79756061170098" lon="8.60282276583978"><ele>241.5</ele><time>2026-05-01T08:28:16Z</time></trkpt><trkpt lat="40.797426218739574" lon="8.602790388577988"><ele>244.0</ele><time>2026-05-01T08:28:17Z</time></trkpt><trkpt lat="40.79729534597948" lon="8.602732536442051"><ele>246.5</ele><time>2026-05-01T08:28:18Z</time></trkpt><trkpt lat="40.797169279166305" lon="8.60264190954798"><ele>249.0</ele><time>2026-05-01T08:28:19Z</time></trkpt><trkpt lat="40.79703708934324" lon="8.602518513103233"><ele>249.0</ele><time>2026-05-01T08:28:20Z</time></trkpt><trkpt lat="40.79690133060759" lon="8.60239141891482"><ele>249.0</ele><time>2026-05-01T08:28:21Z</time></trkpt><trkpt lat="40.79677687774571" lon="8.602274225918471"><ele>249.0</ele><time>2026-05-01T08:28:22Z</time></trkpt><trkpt lat="40.79665712882165" lon="8.602173614484133"><ele>249.33333333333331</ele><time>2026-05-01T08:28:23Z</time></trkpt><trkpt lat="40.796511909050096" lon="8.602081731168234"><ele>249.66666666666666</ele><time>2026-05-01T08:28:24Z</time></trkpt><trkpt lat="40.79635740902355" lon="8.602016054873351"><ele>250.0</ele><time>2026-05-01T08:28:25Z</time></trkpt><trkpt lat="40.79619889643726" lon="8.601962222759266"><ele>254.25</ele><time>2026-05-01T08:28:26Z</time></trkpt><trkpt lat="40.796049138904024" lon="8.6019147859188"><ele>258.5</ele><time>2026-05-01T08:28:27Z</time></trkpt><trkpt lat="40.795916556060476" lon="8.60185603605975"><ele>262.75</ele><time>2026-05-01T08:28:28Z</time></trkpt><trkpt lat="40.7957849806443" lon="8.60176243796818"><ele>267.0</ele><time>2026-05-01T08:28:29Z</time></trkpt><trkpt lat="40.795658388278255" lon="8.601640284902373"><ele>267.0</ele><time>2026-05-01T08:28:30Z</time></trkpt><trkpt lat="40.79553466858379" lon="8.60149410089386"><ele>267.0</ele><time>2026-05-01T08:28:31Z</time></trkpt><trkpt lat="40.79539710831852" lon="8.601358550692703"><ele>267.0</ele><time>2026-05-01T08:28:32Z</time></trkpt><trkpt lat="40.795276444240834" lon="8.601229530896374"><ele>269.75</ele><time>2026-05-01T08:28:33Z</time></trkpt><trkpt lat="40.795174430861806" lon="8.601103504718509"><ele>272.5</ele><time>2026-05-01T08:28:34Z</time></trkpt><trkpt lat="40.795071850890835" lon="8.601015638270855"><ele>275.25</ele><time>2026-05-01T08:28:35Z</time></trkpt><trkpt lat="40.7949742983117" lon="8.600934503108968"><ele>278.0</ele><time>2026-05-01T08:28:36Z</time></trkpt><trkpt lat="40.79486659628023" lon="8.600870622634352"><ele>278.0</ele><time>2026-05-01T08:28:37Z</time></trkpt><trkpt lat="40.79478005029174" lon="8.60080406373642"><ele>278.0</ele><time>2026-05-01T08:28:38Z</time></trkpt><trkpt lat="40.79471697296954" lon="8.600733258384134"><ele>278.0</ele><time>2026-05-01T08:28:39Z</time></trkpt><trkpt lat="40.79465982724041" lon="8.60068877723336"><ele>278.0</ele><time>2026-05-01T08:28:40.001Z</time></trkpt><trkpt lat="40.79459091760447" lon="8.600662997389469"><ele>278.0</ele><time>2026-05-01T08:28:42.001Z</time></trkpt><trkpt lat="40.794483747907805" lon="8.60099748480766"><ele>278.0</ele><time>2026-05-01T08:28:43.001Z</time></trkpt><trkpt lat="40.794392766979975" lon="8.601094018273592"><ele>278.0</ele><time>2026-05-01T08:28:44.001Z</time></trkpt><trkpt lat="40.79429424624306" lon="8.60121882637364"><ele>278.0</ele><time>2026-05-01T08:28:45.001Z</time></trkpt><trkpt lat="40.794170007125196" lon="8.601320635438658"><ele>278.0</ele><time>2026-05-01T08:28:46.001Z</time></trkpt><trkpt lat="40.794027454003725" lon="8.601378121689518"><ele>277.6666666666667</ele><time>2026-05-01T08:28:47.001Z</time></trkpt><trkpt lat="40.79387782028799" lon="8.601455554260534"><ele>277.3333333333333</ele><time>2026-05-01T08:28:48.001Z</time></trkpt><trkpt lat="40.79371862277066" lon="8.601537935891683"><ele>277.0</ele><time>2026-05-01T08:28:49.001Z</time></trkpt><trkpt lat="40.79355206773921" lon="8.601622980313289"><ele>280.66666666666663</ele><time>2026-05-01T08:28:50.001Z</time></trkpt><trkpt lat="40.79337928079145" lon="8.601710581343584"><ele>284.3333333333333</ele><time>2026-05-01T08:28:51.001Z</time></trkpt><trkpt lat="40.79322012596431" lon="8.60181087246823"><ele>288.0</ele><time>2026-05-01T08:28:52.001Z</time></trkpt><trkpt lat="40.79306793843813" lon="8.601881384753016"><ele>288.0</ele><time>2026-05-01T08:28:53.001Z</time></trkpt><trkpt lat="40.79293193335611" lon="8.601952543381223"><ele>288.0</ele><time>2026-05-01T08:28:54.001Z</time></trkpt><trkpt lat="40.792810884283064" lon="8.602024696028403"><ele>288.0</ele><time>2026-05-01T08:28:55.001Z</time></trkpt><trkpt lat="40.79269567274946" lon="8.602109624045957"><ele>288.0</ele><time>2026-05-01T08:28:56.001Z</time></trkpt><trkpt lat="40.79258635965117" lon="8.60221807675944"><ele>288.6666666666667</ele><time>2026-05-01T08:28:57.001Z</time></trkpt><trkpt lat="40.792487236580094" lon="8.602352963638172"><ele>289.33333333333337</ele><time>2026-05-01T08:28:58.001Z</time></trkpt><trkpt lat="40.792399930574625" lon="8.602517530813017"><ele>290.0</ele><time>2026-05-01T08:28:59.001Z</time></trkpt><trkpt lat="40.79232043477622" lon="8.60271941685778"><ele>290.33333333333337</ele><time>2026-05-01T08:29:00.001Z</time></trkpt><trkpt lat="40.792245950368276" lon="8.60293679921498"><ele>290.6666666666667</ele><time>2026-05-01T08:29:01.001Z</time></trkpt><trkpt lat="40.79217354138727" lon="8.603158504941263"><ele>291.0</ele><time>2026-05-01T08:29:02.001Z</time></trkpt><trkpt lat="40.792094952223785" lon="8.60339788507346"><ele>291.0</ele><time>2026-05-01T08:29:03.001Z</time></trkpt><trkpt lat="40.79201367195855" lon="8.603641824597291"><ele>291.0</ele><time>2026-05-01T08:29:04.001Z</time></trkpt><trkpt lat="40.79192860365928" lon="8.603889434275736"><ele>291.0</ele><time>2026-05-01T08:29:05.001Z</time></trkpt><trkpt lat="40.7918520748387" lon="8.604111846110115"><ele>297.6666666666667</ele><time>2026-05-01T08:29:06.001Z</time></trkpt><trkpt lat="40.791777594859866" lon="8.604314398506556"><ele>304.33333333333337</ele><time>2026-05-01T08:29:07.001Z</time></trkpt><trkpt lat="40.79170266919253" lon="8.604493478441132"><ele>311.0</ele><time>2026-05-01T08:29:08.001Z</time></trkpt><trkpt lat="40.79161214673884" lon="8.604664615006087"><ele>312.5</ele><time>2026-05-01T08:29:09.001Z</time></trkpt><trkpt lat="40.79150848674563" lon="8.604813354688208"><ele>314.0</ele><time>2026-05-01T08:29:10.001Z</time></trkpt><trkpt lat="40.79140302412523" lon="8.604923666945815"><ele>315.5</ele><time>2026-05-01T08:29:11.001Z</time></trkpt><trkpt lat="40.79127244448794" lon="8.604989796542128"><ele>317.0</ele><time>2026-05-01T08:29:12.001Z</time></trkpt><trkpt lat="40.79114090474856" lon="8.605051242024931"><ele>317.0</ele><time>2026-05-01T08:29:13.001Z</time></trkpt><trkpt lat="40.791009373346704" lon="8.605083666708794"><ele>317.0</ele><time>2026-05-01T08:29:14.001Z</time></trkpt><trkpt lat="40.79087384464979" lon="8.605098297136022"><ele>317.0</ele><time>2026-05-01T08:29:15.001Z</time></trkpt><trkpt lat="40.79073541500726" lon="8.605076535931419"><ele>317.0</ele><time>2026-05-01T08:29:16.001Z</time></trkpt><trkpt lat="40.790597092731375" lon="8.605037609616577"><ele>319.0</ele><time>2026-05-01T08:29:17.001Z</time></trkpt><trkpt lat="40.79045372280274" lon="8.605002455716312"><ele>321.0</ele><time>2026-05-01T08:29:18.001Z</time></trkpt><trkpt lat="40.79033706696601" lon="8.604911980389106"><ele>323.0</ele><time>2026-05-01T08:29:19.001Z</time></trkpt><trkpt lat="40.790219162763265" lon="8.604819850850461"><ele>325.0</ele><time>2026-05-01T08:29:20.001Z</time></trkpt><trkpt lat="40.79012257125281" lon="8.60470339880671"><ele>325.25</ele><time>2026-05-01T08:29:21.001Z</time></trkpt><trkpt lat="40.790035753736724" lon="8.604566290697317"><ele>325.5</ele><time>2026-05-01T08:29:22.001Z</time></trkpt><trkpt lat="40.78996916937954" lon="8.604414063470205"><ele>325.75</ele><time>2026-05-01T08:29:22.999Z</time></trkpt><trkpt lat="40.78991666187743" lon="8.604273602610023"><ele>326.0</ele><time>2026-05-01T08:29:23.999Z</time></trkpt><trkpt lat="40.78988615700601" lon="8.60414206542244"><ele>326.0</ele><time>2026-05-01T08:29:24.999Z</time></trkpt><trkpt lat="40.78986494482056" lon="8.603975674438566"><ele>326.0</ele><time>2026-05-01T08:29:25.999Z</time></trkpt><trkpt lat="40.78984259706616" lon="8.6037693025004"><ele>326.0</ele><time>2026-05-01T08:29:26.999Z</time></trkpt><trkpt lat="40.78980645640757" lon="8.603547634319007"><ele>327.0</ele><time>2026-05-01T08:29:27.999Z</time></trkpt><trkpt lat="40.789787735249064" lon="8.603335300314829"><ele>328.0</ele><time>2026-05-01T08:29:28.999Z</time></trkpt><trkpt lat="40.78976605204214" lon="8.603126509581095"><ele>329.0</ele><time>2026-05-01T08:29:29.999Z</time></trkpt><trkpt lat="40.78973986411707" lon="8.602918876938299"><ele>330.0</ele><time>2026-05-01T08:29:30.999Z</time></trkpt><trkpt lat="40.78970009364865" lon="8.602716829813394"><ele>331.0</ele><time>2026-05-01T08:29:31.999Z</time></trkpt><trkpt lat="40.789646401291584" lon="8.602521633896528"><ele>332.0</ele><time>2026-05-01T08:29:32.999Z</time></trkpt><trkpt lat="40.789575636067255" lon="8.60232986034049"><ele>332.0</ele><time>2026-05-01T08:29:33.999Z</time></trkpt><trkpt lat="40.78949382348296" lon="8.602141761893135"><ele>332.0</ele><time>2026-05-01T08:29:34.999Z</time></trkpt><trkpt lat="40.78940282387037" lon="8.601962425263116"><ele>332.0</ele><time>2026-05-01T08:29:35.999Z</time></trkpt><trkpt lat="40.78930028137146" lon="8.601798670619178"><ele>334.0</ele><time>2026-05-01T08:29:36.999Z</time></trkpt><trkpt lat="40.78918377211739" lon="8.601655958766838"><ele>336.0</ele><time>2026-05-01T08:29:37.999Z</time></trkpt><trkpt lat="40.78905474939144" lon="8.601534418346592"><ele>338.0</ele><time>2026-05-01T08:29:38.999Z</time></trkpt><trkpt lat="40.78891488678717" lon="8.601431328500311"><ele>338.0</ele><time>2026-05-01T08:29:39.999Z</time></trkpt><trkpt lat="40.78876432790183" lon="8.601338996538244"><ele>338.0</ele><time>2026-05-01T08:29:40.999Z</time></trkpt><trkpt lat="40.78860839682041" lon="8.60125502069699"><ele>338.0</ele><time>2026-05-01T08:29:41.999Z</time></trkpt><trkpt lat="40.78844904498878" lon="8.601180463004562"><ele>337.6666666666667</ele><time>2026-05-01T08:29:42.999Z</time></trkpt><trkpt lat="40.78829637317133" lon="8.601123780028917"><ele>337.3333333333333</ele><time>2026-05-01T08:29:43.999Z</time></trkpt><trkpt lat="40.788152239237704" lon="8.60108605690487"><ele>337.0</ele><time>2026-05-01T08:29:44.999Z</time></trkpt><trkpt lat="40.788007099568034" lon="8.601069777747638"><ele>337.0</ele><time>2026-05-01T08:29:45.999Z</time></trkpt><trkpt lat="40.78785157826901" lon="8.601067437025593"><ele>337.0</ele><time>2026-05-01T08:29:46.999Z</time></trkpt><trkpt lat="40.78768433786712" lon="8.601070616207442"><ele>337.0</ele><time>2026-05-01T08:29:47.999Z</time></trkpt><trkpt lat="40.78750516057736" lon="8.601070204750881"><ele>338.3333333333333</ele><time>2026-05-01T08:29:48.999Z</time></trkpt><trkpt lat="40.78731081813195" lon="8.601064145851247"><ele>339.6666666666667</ele><time>2026-05-01T08:29:49.999Z</time></trkpt><trkpt lat="40.787103969620716" lon="8.601060383073262"><ele>341.0</ele><time>2026-05-01T08:29:50.999Z</time></trkpt><trkpt lat="40.786894283468555" lon="8.601055784818541"><ele>342.6666666666667</ele><time>2026-05-01T08:29:52Z</time></trkpt><trkpt lat="40.786674305909685" lon="8.60104891704954"><ele>344.3333333333333</ele><time>2026-05-01T08:29:53Z</time></trkpt><trkpt lat="40.78644743140887" lon="8.601044377750458"><ele>346.0</ele><time>2026-05-01T08:29:54Z</time></trkpt><trkpt lat="40.78623608353806" lon="8.601038737545766"><ele>346.0</ele><time>2026-05-01T08:29:55Z</time></trkpt><trkpt lat="40.78603532723134" lon="8.6010266531108"><ele>346.0</ele><time>2026-05-01T08:29:56Z</time></trkpt><trkpt lat="40.78583819115343" lon="8.601008564142676"><ele>346.0</ele><time>2026-05-01T08:29:57Z</time></trkpt><trkpt lat="40.7856322866267" lon="8.600974711087693"><ele>345.0</ele><time>2026-05-01T08:29:58Z</time></trkpt><trkpt lat="40.785420161978735" lon="8.600918492224233"><ele>344.0</ele><time>2026-05-01T08:29:59Z</time></trkpt><trkpt lat="40.78521086994548" lon="8.600827534063434"><ele>343.0</ele><time>2026-05-01T08:30:00Z</time></trkpt><trkpt lat="40.78500350486668" lon="8.600743371930117"><ele>341.66666666666663</ele><time>2026-05-01T08:30:01Z</time></trkpt><trkpt lat="40.78479761685501" lon="8.60065150371811"><ele>340.3333333333333</ele><time>2026-05-01T08:30:02Z</time></trkpt><trkpt lat="40.78460145103063" lon="8.600554581594109"><ele>339.0</ele><time>2026-05-01T08:30:03Z</time></trkpt><trkpt lat="40.784412781530406" lon="8.600449441899993"><ele>342.6666666666667</ele><time>2026-05-01T08:30:04Z</time></trkpt><trkpt lat="40.78423042090566" lon="8.60032909951792"><ele>346.33333333333337</ele><time>2026-05-01T08:30:05Z</time></trkpt><trkpt lat="40.7840532362791" lon="8.600201975570204"><ele>350.0</ele><time>2026-05-01T08:30:06Z</time></trkpt><trkpt lat="40.78387963235873" lon="8.60006583221957"><ele>350.0</ele><time>2026-05-01T08:30:07Z</time></trkpt><trkpt lat="40.78370946770825" lon="8.599921709659855"><ele>350.0</ele><time>2026-05-01T08:30:08Z</time></trkpt><trkpt lat="40.783544942799104" lon="8.599765269399471"><ele>350.0</ele><time>2026-05-01T08:30:09Z</time></trkpt><trkpt lat="40.78338101160189" lon="8.599591327475482"><ele>352.33333333333337</ele><time>2026-05-01T08:30:10Z</time></trkpt><trkpt lat="40.78322228731166" lon="8.599409096222645"><ele>354.6666666666667</ele><time>2026-05-01T08:30:11Z</time></trkpt><trkpt lat="40.783067013435335" lon="8.599219737840215"><ele>357.0</ele><time>2026-05-01T08:30:12Z</time></trkpt><trkpt lat="40.78290743729485" lon="8.599025132765385"><ele>357.0</ele><time>2026-05-01T08:30:13Z</time></trkpt><trkpt lat="40.782753528408776" lon="8.598837439059555"><ele>357.0</ele><time>2026-05-01T08:30:14Z</time></trkpt><trkpt lat="40.782607007573674" lon="8.598658754984305"><ele>357.0</ele><time>2026-05-01T08:30:15Z</time></trkpt><trkpt lat="40.78246617503013" lon="8.598487008073672"><ele>354.6666666666667</ele><time>2026-05-01T08:30:16Z</time></trkpt><trkpt lat="40.78233228623473" lon="8.598321050982038"><ele>352.33333333333337</ele><time>2026-05-01T08:30:17Z</time></trkpt><trkpt lat="40.78220444486303" lon="8.598160311515416"><ele>350.0</ele><time>2026-05-01T08:30:18Z</time></trkpt><trkpt lat="40.78207308097503" lon="8.598016980533144"><ele>350.0</ele><time>2026-05-01T08:30:19Z</time></trkpt><trkpt lat="40.78196267667285" lon="8.597855849134437"><ele>350.0</ele><time>2026-05-01T08:30:20Z</time></trkpt><trkpt lat="40.78187647170584" lon="8.597679750261285"><ele>350.0</ele><time>2026-05-01T08:30:21Z</time></trkpt><trkpt lat="40.78179162765634" lon="8.597510979280285"><ele>349.0</ele><time>2026-05-01T08:30:22Z</time></trkpt><trkpt lat="40.781696506045435" lon="8.59733118541019"><ele>348.0</ele><time>2026-05-01T08:30:23Z</time></trkpt><trkpt lat="40.78162024560101" lon="8.5971247125572"><ele>347.0</ele><time>2026-05-01T08:30:24Z</time></trkpt><trkpt lat="40.78154873581323" lon="8.596909552725466"><ele>345.0</ele><time>2026-05-01T08:30:25Z</time></trkpt><trkpt lat="40.781488296952475" lon="8.596700318354566"><ele>343.0</ele><time>2026-05-01T08:30:26Z</time></trkpt><trkpt lat="40.781434040896535" lon="8.596488254577073"><ele>341.0</ele><time>2026-05-01T08:30:27Z</time></trkpt><trkpt lat="40.781376432195394" lon="8.596284594534934"><ele>340.6666666666667</ele><time>2026-05-01T08:30:28Z</time></trkpt><trkpt lat="40.78131388735339" lon="8.596081946183203"><ele>340.3333333333333</ele><time>2026-05-01T08:30:29Z</time></trkpt><trkpt lat="40.781245856617346" lon="8.595892277412668"><ele>340.0</ele><time>2026-05-01T08:30:30Z</time></trkpt><trkpt lat="40.78117443173695" lon="8.59570406410177"><ele>340.0</ele><time>2026-05-01T08:30:31Z</time></trkpt><trkpt lat="40.78110133653116" lon="8.595518727727969"><ele>340.0</ele><time>2026-05-01T08:30:32Z</time></trkpt><trkpt lat="40.781025955917436" lon="8.595335571785203"><ele>340.0</ele><time>2026-05-01T08:30:33Z</time></trkpt><trkpt lat="40.780960763079754" lon="8.595145662042368"><ele>339.3333333333333</ele><time>2026-05-01T08:30:34Z</time></trkpt><trkpt lat="40.78087869725359" lon="8.594969053772965"><ele>338.6666666666667</ele><time>2026-05-01T08:30:35Z</time></trkpt><trkpt lat="40.78079665450944" lon="8.594797519170061"><ele>338.0</ele><time>2026-05-01T08:30:36Z</time></trkpt><trkpt lat="40.78071356223478" lon="8.594625510102352"><ele>335.0</ele><time>2026-05-01T08:30:37Z</time></trkpt><trkpt lat="40.78062022060606" lon="8.594467075086321"><ele>332.0</ele><time>2026-05-01T08:30:38Z</time></trkpt><trkpt lat="40.780540898580234" lon="8.594295422134593"><ele>329.0</ele><time>2026-05-01T08:30:39Z</time></trkpt><trkpt lat="40.78045774970025" lon="8.594128972526129"><ele>329.0</ele><time>2026-05-01T08:30:40Z</time></trkpt><trkpt lat="40.780376115341724" lon="8.59396312702435"><ele>329.0</ele><time>2026-05-01T08:30:41Z</time></trkpt><trkpt lat="40.780309180178435" lon="8.593786439793725"><ele>329.0</ele><time>2026-05-01T08:30:42Z</time></trkpt><trkpt lat="40.78022995605337" lon="8.593622136072787"><ele>329.0</ele><time>2026-05-01T08:30:43Z</time></trkpt><trkpt lat="40.780151345716305" lon="8.593459105393194"><ele>328.5</ele><time>2026-05-01T08:30:44Z</time></trkpt><trkpt lat="40.7800749970685" lon="8.593298113448434"><ele>328.0</ele><time>2026-05-01T08:30:45Z</time></trkpt><trkpt lat="40.77999734817466" lon="8.59313863929139"><ele>327.5</ele><time>2026-05-01T08:30:46Z</time></trkpt><trkpt lat="40.77995292972243" lon="8.592957013434473"><ele>327.0</ele><time>2026-05-01T08:30:47Z</time></trkpt><trkpt lat="40.77992711296534" lon="8.592769743074022"><ele>325.5</ele><time>2026-05-01T08:30:48Z</time></trkpt><trkpt lat="40.77992106466279" lon="8.592586063380274"><ele>324.0</ele><time>2026-05-01T08:30:49Z</time></trkpt><trkpt lat="40.77993577854813" lon="8.592396955924167"><ele>322.5</ele><time>2026-05-01T08:30:50.001Z</time></trkpt><trkpt lat="40.77997163771427" lon="8.592222026637891"><ele>321.0</ele><time>2026-05-01T08:30:51.001Z</time></trkpt><trkpt lat="40.78002672400777" lon="8.592054854340773"><ele>319.25</ele><time>2026-05-01T08:30:52.001Z</time></trkpt><trkpt lat="40.78009706177556" lon="8.591903640399046"><ele>317.5</ele><time>2026-05-01T08:30:53.001Z</time></trkpt><trkpt lat="40.78018187639703" lon="8.591767962116142"><ele>315.75</ele><time>2026-05-01T08:30:54.001Z</time></trkpt><trkpt lat="40.78028562423404" lon="8.591635048682786"><ele>314.0</ele><time>2026-05-01T08:30:55.001Z</time></trkpt><trkpt lat="40.780403201307216" lon="8.591517227940397"><ele>314.0</ele><time>2026-05-01T08:30:56.001Z</time></trkpt><trkpt lat="40.780535029680685" lon="8.591401885529358"><ele>314.0</ele><time>2026-05-01T08:30:57.001Z</time></trkpt><trkpt lat="40.7806704444617" lon="8.59128463825835"><ele>314.0</ele><time>2026-05-01T08:30:58.001Z</time></trkpt><trkpt lat="40.78080239486878" lon="8.591171318626863"><ele>311.33333333333337</ele><time>2026-05-01T08:30:59.001Z</time></trkpt><trkpt lat="40.78093289301501" lon="8.591060856329923"><ele>308.6666666666667</ele><time>2026-05-01T08:31:00.001Z</time></trkpt><trkpt lat="40.78106172304898" lon="8.59095218173553"><ele>306.0</ele><time>2026-05-01T08:31:01.001Z</time></trkpt><trkpt lat="40.781187365502994" lon="8.59084350150298"><ele>305.75</ele><time>2026-05-01T08:31:02.001Z</time></trkpt><trkpt lat="40.78131024202195" lon="8.590732148641285"><ele>305.5</ele><time>2026-05-01T08:31:03.001Z</time></trkpt><trkpt lat="40.781432639839835" lon="8.590625058949252"><ele>305.25</ele><time>2026-05-01T08:31:04.001Z</time></trkpt><trkpt lat="40.781553099196046" lon="8.59052041223583"><ele>305.0</ele><time>2026-05-01T08:31:05.001Z</time></trkpt><trkpt lat="40.78167047559476" lon="8.590413089051294"><ele>303.5</ele><time>2026-05-01T08:31:06.001Z</time></trkpt><trkpt lat="40.781785386406035" lon="8.590308966627312"><ele>302.0</ele><time>2026-05-01T08:31:07.001Z</time></trkpt><trkpt lat="40.78189177946748" lon="8.590194633863733"><ele>300.5</ele><time>2026-05-01T08:31:08.001Z</time></trkpt><trkpt lat="40.781988236774005" lon="8.590068147330223"><ele>299.0</ele><time>2026-05-01T08:31:09.001Z</time></trkpt><trkpt lat="40.782075359278444" lon="8.589931560096357"><ele>298.0</ele><time>2026-05-01T08:31:10.001Z</time></trkpt><trkpt lat="40.78215409598507" lon="8.589789269876132"><ele>297.0</ele><time>2026-05-01T08:31:11.001Z</time></trkpt><trkpt lat="40.78222539465201" lon="8.58964223457484"><ele>296.0</ele><time>2026-05-01T08:31:12.001Z</time></trkpt><trkpt lat="40.78229156180195" lon="8.58949193480318"><ele>295.0</ele><time>2026-05-01T08:31:13.001Z</time></trkpt><trkpt lat="40.78235206424159" lon="8.589338561388116"><ele>294.25</ele><time>2026-05-01T08:31:14.001Z</time></trkpt><trkpt lat="40.782405232157984" lon="8.58917798741772"><ele>293.5</ele><time>2026-05-01T08:31:15.001Z</time></trkpt><trkpt lat="40.78244491004844" lon="8.589015920663204"><ele>292.75</ele><time>2026-05-01T08:31:16.001Z</time></trkpt><trkpt lat="40.78247444451862" lon="8.588850075004059"><ele>292.0</ele><time>2026-05-01T08:31:17.001Z</time></trkpt><trkpt lat="40.78249137563864" lon="8.588681779793195"><ele>290.75</ele><time>2026-05-01T08:31:18.001Z</time></trkpt><trkpt lat="40.782502692705606" lon="8.588517879982914"><ele>289.5</ele><time>2026-05-01T08:31:19.001Z</time></trkpt><trkpt lat="40.78250679716304" lon="8.58835044075232"><ele>288.25</ele><time>2026-05-01T08:31:20.001Z</time></trkpt><trkpt lat="40.782498630996756" lon="8.588182798008141"><ele>287.0</ele><time>2026-05-01T08:31:21.001Z</time></trkpt><trkpt lat="40.78247891803252" lon="8.588020454638738"><ele>287.0</ele><time>2026-05-01T08:31:22.001Z</time></trkpt><trkpt lat="40.782470187363394" lon="8.587853338513845"><ele>287.0</ele><time>2026-05-01T08:31:23.001Z</time></trkpt><trkpt lat="40.78241813264661" lon="8.587701187375368"><ele>287.0</ele><time>2026-05-01T08:31:24.001Z</time></trkpt><trkpt lat="40.782392857824675" lon="8.587541918540248"><ele>287.0</ele><time>2026-05-01T08:31:25.001Z</time></trkpt><trkpt lat="40.78234238631123" lon="8.587392468046874"><ele>286.0</ele><time>2026-05-01T08:31:26.001Z</time></trkpt><trkpt lat="40.78227626034743" lon="8.587236805262847"><ele>285.0</ele><time>2026-05-01T08:31:27.001Z</time></trkpt><trkpt lat="40.78219427473324" lon="8.58707550223807"><ele>284.0</ele><time>2026-05-01T08:31:28.001Z</time></trkpt><trkpt lat="40.78210420317632" lon="8.586927880258092"><ele>283.0</ele><time>2026-05-01T08:31:28.999Z</time></trkpt><trkpt lat="40.78200495809793" lon="8.586791025937302"><ele>282.2</ele><time>2026-05-01T08:31:29.999Z</time></trkpt><trkpt lat="40.781903252458164" lon="8.586677963913374"><ele>281.4</ele><time>2026-05-01T08:31:30.999Z</time></trkpt><trkpt lat="40.78181037089874" lon="8.586577815063404"><ele>280.59999999999997</ele><time>2026-05-01T08:31:31.999Z</time></trkpt><trkpt lat="40.781731775989655" lon="8.586494954652956"><ele>279.8</ele><time>2026-05-01T08:31:32.999Z</time></trkpt><trkpt lat="40.78171817493851" lon="8.586371956858"><ele>279.0</ele><time>2026-05-01T08:31:33.999Z</time></trkpt><trkpt lat="40.78168193013418" lon="8.586277409989126"><ele>278.71428571428567</ele><time>2026-05-01T08:31:34.999Z</time></trkpt><trkpt lat="40.78166014034772" lon="8.58618478338415"><ele>278.42857142857144</ele><time>2026-05-01T08:31:35.999Z</time></trkpt><trkpt lat="40.781674898149866" lon="8.586084080330165"><ele>278.1428571428571</ele><time>2026-05-01T08:31:36.999Z</time></trkpt><trkpt lat="40.78168725246238" lon="8.585990072288318"><ele>277.85714285714283</ele><time>2026-05-01T08:31:37.999Z</time></trkpt><trkpt lat="40.78167530730228" lon="8.585901042069823"><ele>277.57142857142856</ele><time>2026-05-01T08:31:38.999Z</time></trkpt><trkpt lat="40.78164159401478" lon="8.58582346312059"><ele>277.2857142857143</ele><time>2026-05-01T08:31:39.999Z</time></trkpt><trkpt lat="40.781581263861895" lon="8.585784544115036"><ele>277.0</ele><time>2026-05-01T08:31:40.999Z</time></trkpt><trkpt lat="40.78151039544092" lon="8.585787584507388"><ele>275.5</ele><time>2026-05-01T08:31:41.999Z</time></trkpt><trkpt lat="40.78144084898981" lon="8.585832709731841"><ele>274.0</ele><time>2026-05-01T08:31:42.999Z</time></trkpt><trkpt lat="40.78137560005326" lon="8.585911828207553"><ele>272.5</ele><time>2026-05-01T08:31:43.999Z</time></trkpt><trkpt lat="40.78130472052842" lon="8.585971084835153"><ele>271.0</ele><time>2026-05-01T08:31:44.999Z</time></trkpt><trkpt lat="40.78121268969994" lon="8.585988743478392"><ele>269.5</ele><time>2026-05-01T08:31:45.999Z</time></trkpt><trkpt lat="40.78111578680095" lon="8.585936666332243"><ele>268.0</ele><time>2026-05-01T08:31:46.999Z</time></trkpt><trkpt lat="40.78100197803866" lon="8.585881160788512"><ele>268.0</ele><time>2026-05-01T08:31:47.999Z</time></trkpt><trkpt lat="40.78087939725722" lon="8.585821378655929"><ele>268.0</ele><time>2026-05-01T08:31:48.999Z</time></trkpt><trkpt lat="40.78075948833607" lon="8.585770580014287"><ele>268.0</ele><time>2026-05-01T08:31:49.999Z</time></trkpt><trkpt lat="40.78062223572446" lon="8.58576859134735"><ele>268.0</ele><time>2026-05-01T08:31:50.999Z</time></trkpt><trkpt lat="40.7804667430152" lon="8.585760081257973"><ele>268.0</ele><time>2026-05-01T08:31:51.999Z</time></trkpt><trkpt lat="40.78028829082708" lon="8.585766452470663"><ele>268.0</ele><time>2026-05-01T08:31:52.999Z</time></trkpt><trkpt lat="40.78011116705348" lon="8.585762706605268"><ele>268.0</ele><time>2026-05-01T08:31:53.999Z</time></trkpt><trkpt lat="40.779927962147475" lon="8.585785650103679"><ele>267.3333333333333</ele><time>2026-05-01T08:31:54.999Z</time></trkpt><trkpt lat="40.77973686690998" lon="8.585811230265099"><ele>266.6666666666667</ele><time>2026-05-01T08:31:56Z</time></trkpt><trkpt lat="40.77954185482663" lon="8.585846082433314"><ele>266.0</ele><time>2026-05-01T08:31:57Z</time></trkpt><trkpt lat="40.77933979635721" lon="8.58589098199624"><ele>265.6666666666667</ele><time>2026-05-01T08:31:58Z</time></trkpt><trkpt lat="40.77913817265404" lon="8.585943308099655"><ele>265.3333333333333</ele><time>2026-05-01T08:31:59Z</time></trkpt><trkpt lat="40.77894842729989" lon="8.585996565574908"><ele>265.0</ele><time>2026-05-01T08:32:00Z</time></trkpt><trkpt lat="40.77876680354316" lon="8.586048928885544"><ele>265.0</ele><time>2026-05-01T08:32:01Z</time></trkpt><trkpt lat="40.778590784172174" lon="8.586098359653365"><ele>265.0</ele><time>2026-05-01T08:32:02Z</time></trkpt><trkpt lat="40.77842093547273" lon="8.586136345400627"><ele>265.0</ele><time>2026-05-01T08:32:03Z</time></trkpt><trkpt lat="40.77824024127789" lon="8.586164885244392"><ele>269.3333333333333</ele><time>2026-05-01T08:32:04Z</time></trkpt><trkpt lat="40.77805223775328" lon="8.586181938381849"><ele>273.6666666666667</ele><time>2026-05-01T08:32:05Z</time></trkpt><trkpt lat="40.777860318782736" lon="8.586180822392285"><ele>278.0</ele><time>2026-05-01T08:32:06Z</time></trkpt><trkpt lat="40.777664803631204" lon="8.58615576315957"><ele>269.33333333333337</ele><time>2026-05-01T08:32:07Z</time></trkpt><trkpt lat="40.777462345667004" lon="8.58610880766101"><ele>260.6666666666667</ele><time>2026-05-01T08:32:08Z</time></trkpt><trkpt lat="40.77725965431533" lon="8.586036656804264"><ele>252.0</ele><time>2026-05-01T08:32:09Z</time></trkpt><trkpt lat="40.777066376987236" lon="8.585951332944012"><ele>252.0</ele><time>2026-05-01T08:32:10Z</time></trkpt><trkpt lat="40.7768745070427" lon="8.585848898187209"><ele>252.0</ele><time>2026-05-01T08:32:11Z</time></trkpt><trkpt lat="40.77668956247189" lon="8.585726738455023"><ele>252.0</ele><time>2026-05-01T08:32:12Z</time></trkpt><trkpt lat="40.77651146334672" lon="8.58558910767357"><ele>252.66666666666669</ele><time>2026-05-01T08:32:13Z</time></trkpt><trkpt lat="40.77635275277638" lon="8.585419122315027"><ele>253.33333333333334</ele><time>2026-05-01T08:32:14Z</time></trkpt><trkpt lat="40.776187764840586" lon="8.585232651209767"><ele>254.0</ele><time>2026-05-01T08:32:15Z</time></trkpt><trkpt lat="40.77602153896096" lon="8.585034068366802"><ele>255.0</ele><time>2026-05-01T08:32:16Z</time></trkpt><trkpt lat="40.77586584691699" lon="8.584817126892547"><ele>256.0</ele><time>2026-05-01T08:32:17Z</time></trkpt><trkpt lat="40.77572204651033" lon="8.584613685031105"><ele>257.0</ele><time>2026-05-01T08:32:18Z</time></trkpt><trkpt lat="40.77558749478274" lon="8.584423939670877"><ele>255.0</ele><time>2026-05-01T08:32:19Z</time></trkpt><trkpt lat="40.77546169643125" lon="8.584246536976702"><ele>253.0</ele><time>2026-05-01T08:32:20Z</time></trkpt><trkpt lat="40.77532778711251" lon="8.584068433788937"><ele>251.0</ele><time>2026-05-01T08:32:21Z</time></trkpt><trkpt lat="40.77518589679222" lon="8.583897581900791"><ele>254.66666666666669</ele><time>2026-05-01T08:32:22Z</time></trkpt><trkpt lat="40.775045335607544" lon="8.583749385125852"><ele>258.3333333333333</ele><time>2026-05-01T08:32:23Z</time></trkpt><trkpt lat="40.7749078406282" lon="8.583613936587824"><ele>262.0</ele><time>2026-05-01T08:32:24Z</time></trkpt><trkpt lat="40.77475666459552" lon="8.583489522317711"><ele>262.0</ele><time>2026-05-01T08:32:25Z</time></trkpt><trkpt lat="40.77459332660935" lon="8.583372279949637"><ele>262.0</ele><time>2026-05-01T08:32:26Z</time></trkpt><trkpt lat="40.77441465724979" lon="8.583260635953721"><ele>262.0</ele><time>2026-05-01T08:32:27Z</time></trkpt><trkpt lat="40.774227315232075" lon="8.58314810722132"><ele>261.66666666666663</ele><time>2026-05-01T08:32:28Z</time></trkpt><trkpt lat="40.77403304450398" lon="8.583033852483497"><ele>261.3333333333333</ele><time>2026-05-01T08:32:29Z</time></trkpt><trkpt lat="40.77382825237632" lon="8.582913841880812"><ele>261.0</ele><time>2026-05-01T08:32:30Z</time></trkpt><trkpt lat="40.773638266232396" lon="8.582802507250571"><ele>259.3333333333333</ele><time>2026-05-01T08:32:31Z</time></trkpt><trkpt lat="40.773453537210806" lon="8.582694782705826"><ele>257.66666666666663</ele><time>2026-05-01T08:32:32Z</time></trkpt><trkpt lat="40.77327109660035" lon="8.582588297474459"><ele>256.0</ele><time>2026-05-01T08:32:33Z</time></trkpt><trkpt lat="40.77309244248004" lon="8.582484022348693"><ele>256.0</ele><time>2026-05-01T08:32:34Z</time></trkpt><trkpt lat="40.77291710314431" lon="8.58238168192996"><ele>256.0</ele><time>2026-05-01T08:32:35Z</time></trkpt><trkpt lat="40.77274594784931" lon="8.582281306139556"><ele>256.0</ele><time>2026-05-01T08:32:36Z</time></trkpt><trkpt lat="40.77257933670747" lon="8.582183383162738"><ele>255.0</ele><time>2026-05-01T08:32:37Z</time></trkpt><trkpt lat="40.77241323328419" lon="8.582085995915223"><ele>254.0</ele><time>2026-05-01T08:32:38Z</time></trkpt><trkpt lat="40.77225149319508" lon="8.581993262794294"><ele>253.0</ele><time>2026-05-01T08:32:39Z</time></trkpt><trkpt lat="40.77210360383108" lon="8.581907272318524"><ele>252.25</ele><time>2026-05-01T08:32:40Z</time></trkpt><trkpt lat="40.771976612764036" lon="8.581833322319724"><ele>251.5</ele><time>2026-05-01T08:32:41Z</time></trkpt><trkpt lat="40.77185139053965" lon="8.581781804118288"><ele>250.75</ele><time>2026-05-01T08:32:42Z</time></trkpt><trkpt lat="40.771738829368324" lon="8.581773467621057"><ele>250.0</ele><time>2026-05-01T08:32:43Z</time></trkpt><trkpt lat="40.77163396973756" lon="8.581837674705987"><ele>250.25</ele><time>2026-05-01T08:32:44Z</time></trkpt><trkpt lat="40.7715294478205" lon="8.581922550903894"><ele>250.5</ele><time>2026-05-01T08:32:45.001Z</time></trkpt><trkpt lat="40.77141738366576" lon="8.58202224392913"><ele>250.75</ele><time>2026-05-01T08:32:46.001Z</time></trkpt><trkpt lat="40.77130726297562" lon="8.582145618762507"><ele>251.0</ele><time>2026-05-01T08:32:47.001Z</time></trkpt><trkpt lat="40.77120646986212" lon="8.582254026969707"><ele>251.0</ele><time>2026-05-01T08:32:48.001Z</time></trkpt><trkpt lat="40.77111090901243" lon="8.582346647035601"><ele>251.00000000000003</ele><time>2026-05-01T08:32:49.001Z</time></trkpt><trkpt lat="40.77102482720136" lon="8.5824123978626"><ele>251.00000000000003</ele><time>2026-05-01T08:32:50.001Z</time></trkpt><trkpt lat="40.770925497068" lon="8.582401886068626"><ele>251.0</ele><time>2026-05-01T08:32:51.001Z</time></trkpt><trkpt lat="40.77083353343338" lon="8.582335739624938"><ele>251.0</ele><time>2026-05-01T08:32:52.001Z</time></trkpt><trkpt lat="40.77075250264878" lon="8.58223051441037"><ele>250.5</ele><time>2026-05-01T08:32:53.001Z</time></trkpt><trkpt lat="40.77069641338292" lon="8.582090730615313"><ele>250.0</ele><time>2026-05-01T08:32:54.001Z</time></trkpt><trkpt lat="40.77065684485949" lon="8.581922075499387"><ele>249.5</ele><time>2026-05-01T08:32:55.001Z</time></trkpt><trkpt lat="40.770625171310655" lon="8.581736362919525"><ele>249.0</ele><time>2026-05-01T08:32:56.001Z</time></trkpt><trkpt lat="40.770565053977" lon="8.58153551962372"><ele>247.33333333333331</ele><time>2026-05-01T08:32:57.001Z</time></trkpt><trkpt lat="40.77050869484891" lon="8.581331310442428"><ele>245.66666666666666</ele><time>2026-05-01T08:32:58.001Z</time></trkpt><trkpt lat="40.770445968310774" lon="8.581140263576888"><ele>244.0</ele><time>2026-05-01T08:32:59.001Z</time></trkpt><trkpt lat="40.77039996747111" lon="8.580939827134301"><ele>246.0</ele><time>2026-05-01T08:33:00.001Z</time></trkpt><trkpt lat="40.77034673004638" lon="8.580765643618305"><ele>248.0</ele><time>2026-05-01T08:33:01.001Z</time></trkpt><trkpt lat="40.77027334527315" lon="8.580602534264003"><ele>250.0</ele><time>2026-05-01T08:33:02.001Z</time></trkpt><trkpt lat="40.77017593948001" lon="8.580421222275854"><ele>249.33333333333331</ele><time>2026-05-01T08:33:03.001Z</time></trkpt><trkpt lat="40.77005185758537" lon="8.58026758334414"><ele>248.66666666666669</ele><time>2026-05-01T08:33:04.001Z</time></trkpt><trkpt lat="40.7699171495951" lon="8.5801186335673"><ele>248.0</ele><time>2026-05-01T08:33:05.001Z</time></trkpt><trkpt lat="40.76977762634084" lon="8.579959737682337"><ele>248.0</ele><time>2026-05-01T08:33:06.001Z</time></trkpt><trkpt lat="40.769641899529276" lon="8.57980924862691"><ele>248.0</ele><time>2026-05-01T08:33:07.001Z</time></trkpt><trkpt lat="40.76948883251938" lon="8.579663547469893"><ele>248.0</ele><time>2026-05-01T08:33:08.001Z</time></trkpt><trkpt lat="40.76931601249352" lon="8.579527970120122"><ele>248.0</ele><time>2026-05-01T08:33:09.001Z</time></trkpt><trkpt lat="40.76914111874934" lon="8.579391524357913"><ele>248.0</ele><time>2026-05-01T08:33:10.001Z</time></trkpt><trkpt lat="40.76896255738552" lon="8.579252217276467"><ele>248.0</ele><time>2026-05-01T08:33:11.001Z</time></trkpt><trkpt lat="40.76879406202716" lon="8.579120763123095"><ele>248.0</ele><time>2026-05-01T08:33:12.001Z</time></trkpt><trkpt lat="40.76863231413718" lon="8.578997360437087"><ele>248.0</ele><time>2026-05-01T08:33:13.001Z</time></trkpt><trkpt lat="40.76847872988158" lon="8.578870196719926"><ele>248.0</ele><time>2026-05-01T08:33:14.001Z</time></trkpt><trkpt lat="40.768340195994554" lon="8.57873309050906"><ele>247.0</ele><time>2026-05-01T08:33:15.001Z</time></trkpt><trkpt lat="40.768210459910385" lon="8.578591331639545"><ele>246.0</ele><time>2026-05-01T08:33:16.001Z</time></trkpt><trkpt lat="40.76808550589238" lon="8.578451401822903"><ele>245.0</ele><time>2026-05-01T08:33:17.001Z</time></trkpt><trkpt lat="40.76797055100462" lon="8.578309797817168"><ele>245.0</ele><time>2026-05-01T08:33:18.001Z</time></trkpt><trkpt lat="40.7678655928945" lon="8.578155873282933"><ele>245.0</ele><time>2026-05-01T08:33:19.001Z</time></trkpt><trkpt lat="40.767774782896375" lon="8.577967892266525"><ele>245.0</ele><time>2026-05-01T08:33:20.001Z</time></trkpt><trkpt lat="40.76768767103543" lon="8.57775785952876"><ele>245.0</ele><time>2026-05-01T08:33:21.001Z</time></trkpt><trkpt lat="40.767600269383884" lon="8.577533352515475"><ele>245.0</ele><time>2026-05-01T08:33:22.001Z</time></trkpt><trkpt lat="40.767507813930315" lon="8.57729586412139"><ele>245.0</ele><time>2026-05-01T08:33:23.001Z</time></trkpt><trkpt lat="40.76741862920908" lon="8.577069316719939"><ele>244.0</ele><time>2026-05-01T08:33:24.001Z</time></trkpt><trkpt lat="40.76733320007931" lon="8.576855868568014"><ele>243.0</ele><time>2026-05-01T08:33:25.001Z</time></trkpt><trkpt lat="40.76725041731093" lon="8.576649362903492"><ele>242.0</ele><time>2026-05-01T08:33:26.001Z</time></trkpt><trkpt lat="40.76715550267591" lon="8.576457199029859"><ele>242.0</ele><time>2026-05-01T08:33:27.001Z</time></trkpt><trkpt lat="40.767079849029216" lon="8.576265941657221"><ele>242.0</ele><time>2026-05-01T08:33:28.001Z</time></trkpt><trkpt lat="40.76699748933068" lon="8.576063504217084"><ele>242.0</ele><time>2026-05-01T08:33:29.001Z</time></trkpt><trkpt lat="40.76691153346262" lon="8.575841150012787"><ele>242.0</ele><time>2026-05-01T08:33:30.001Z</time></trkpt><trkpt lat="40.76682243976681" lon="8.575606148938007"><ele>242.0</ele><time>2026-05-01T08:33:31.001Z</time></trkpt><trkpt lat="40.76672992819029" lon="8.575363416464754"><ele>242.0</ele><time>2026-05-01T08:33:32.001Z</time></trkpt><trkpt lat="40.76664008528101" lon="8.575125517952115"><ele>241.33333333333334</ele><time>2026-05-01T08:33:33.001Z</time></trkpt><trkpt lat="40.76654431535842" lon="8.574893981852876"><ele>240.66666666666669</ele><time>2026-05-01T08:33:34.001Z</time></trkpt><trkpt lat="40.76643707822127" lon="8.574664521147232"><ele>240.0</ele><time>2026-05-01T08:33:34.999Z</time></trkpt><trkpt lat="40.766346744218936" lon="8.574428484090047"><ele>239.66666666666669</ele><time>2026-05-01T08:33:35.999Z</time></trkpt><trkpt lat="40.76625086088036" lon="8.57420748032128"><ele>239.33333333333334</ele><time>2026-05-01T08:33:36.999Z</time></trkpt><trkpt lat="40.76615570839982" lon="8.573986500628992"><ele>239.0</ele><time>2026-05-01T08:33:37.999Z</time></trkpt><trkpt lat="40.76606202336461" lon="8.573769443483153"><ele>237.0</ele><time>2026-05-01T08:33:38.999Z</time></trkpt><trkpt lat="40.765971146129104" lon="8.573558891705504"><ele>235.0</ele><time>2026-05-01T08:33:39.999Z</time></trkpt><trkpt lat="40.765881672136196" lon="8.573351591657715"><ele>233.0</ele><time>2026-05-01T08:33:40.999Z</time></trkpt><trkpt lat="40.76579325432368" lon="8.57314657204311"><ele>233.0</ele><time>2026-05-01T08:33:41.999Z</time></trkpt><trkpt lat="40.76570611641359" lon="8.572943965186974"><ele>233.0</ele><time>2026-05-01T08:33:42.999Z</time></trkpt><trkpt lat="40.76562326058463" lon="8.57275131482764"><ele>233.0</ele><time>2026-05-01T08:33:43.999Z</time></trkpt><trkpt lat="40.765548161813285" lon="8.57257762444621"><ele>232.5</ele><time>2026-05-01T08:33:44.999Z</time></trkpt><trkpt lat="40.765478873920934" lon="8.57241909397599"><ele>232.0</ele><time>2026-05-01T08:33:45.999Z</time></trkpt><trkpt lat="40.76541295370553" lon="8.57229346281878"><ele>231.5</ele><time>2026-05-01T08:33:46.999Z</time></trkpt><trkpt lat="40.765312536615355" lon="8.572195736358852"><ele>231.0</ele><time>2026-05-01T08:33:47.999Z</time></trkpt><trkpt lat="40.76518994537512" lon="8.572144197485747"><ele>228.33333333333331</ele><time>2026-05-01T08:33:48.999Z</time></trkpt><trkpt lat="40.765054775209016" lon="8.572066848686964"><ele>225.66666666666666</ele><time>2026-05-01T08:33:49.999Z</time></trkpt><trkpt lat="40.76490228706277" lon="8.571995560676745"><ele>223.0</ele><time>2026-05-01T08:33:50.999Z</time></trkpt><trkpt lat="40.76476194769634" lon="8.571931896085914"><ele>223.0</ele><time>2026-05-01T08:33:51.999Z</time></trkpt><trkpt lat="40.76463164212799" lon="8.57187596924304"><ele>223.0</ele><time>2026-05-01T08:33:52.999Z</time></trkpt><trkpt lat="40.76451383721495" lon="8.571814267468124"><ele>223.0</ele><time>2026-05-01T08:33:53.999Z</time></trkpt><trkpt lat="40.76441233610009" lon="8.571743657798324"><ele>223.0</ele><time>2026-05-01T08:33:54.999Z</time></trkpt><trkpt lat="40.764351913666744" lon="8.571619988237023"><ele>223.0</ele><time>2026-05-01T08:33:55.999Z</time></trkpt><trkpt lat="40.76432906915336" lon="8.57145107062698"><ele>223.0</ele><time>2026-05-01T08:33:56.999Z</time></trkpt><trkpt lat="40.76432354883911" lon="8.571260574377197"><ele>223.0</ele><time>2026-05-01T08:33:58Z</time></trkpt><trkpt lat="40.76430328284323" lon="8.571074958828154"><ele>223.0</ele><time>2026-05-01T08:33:59Z</time></trkpt><trkpt lat="40.76425765670305" lon="8.570902932469822"><ele>222.0</ele><time>2026-05-01T08:34:00Z</time></trkpt><trkpt lat="40.764185660552265" lon="8.570739427834022"><ele>221.0</ele><time>2026-05-01T08:34:01Z</time></trkpt><trkpt lat="40.76408904509708" lon="8.570584889307327"><ele>220.0</ele><time>2026-05-01T08:34:02Z</time></trkpt><trkpt lat="40.76397407646693" lon="8.570455469318027"><ele>219.0</ele><time>2026-05-01T08:34:03Z</time></trkpt><trkpt lat="40.76383770184429" lon="8.570362382214888"><ele>219.0</ele><time>2026-05-01T08:34:04Z</time></trkpt><trkpt lat="40.76368051578389" lon="8.57029722852761"><ele>219.0</ele><time>2026-05-01T08:34:05Z</time></trkpt><trkpt lat="40.763498870255106" lon="8.570239635539345"><ele>219.0</ele><time>2026-05-01T08:34:06Z</time></trkpt><trkpt lat="40.76329976262261" lon="8.57017279043623"><ele>219.0</ele><time>2026-05-01T08:34:07Z</time></trkpt><trkpt lat="40.76311592786887" lon="8.570105713030939"><ele>219.0</ele><time>2026-05-01T08:34:08Z</time></trkpt><trkpt lat="40.76293231827743" lon="8.570039410730427"><ele>219.0</ele><time>2026-05-01T08:34:09Z</time></trkpt><trkpt lat="40.76275411109366" lon="8.569952487555865"><ele>219.33333333333331</ele><time>2026-05-01T08:34:10Z</time></trkpt><trkpt lat="40.76256948224773" lon="8.569884980284538"><ele>219.66666666666666</ele><time>2026-05-01T08:34:11Z</time></trkpt><trkpt lat="40.76237020163507" lon="8.569812313514538"><ele>220.0</ele><time>2026-05-01T08:34:12Z</time></trkpt><trkpt lat="40.76215989917793" lon="8.56973562771857"><ele>220.0</ele><time>2026-05-01T08:34:13Z</time></trkpt><trkpt lat="40.76196336588538" lon="8.569663962280693"><ele>220.0</ele><time>2026-05-01T08:34:14Z</time></trkpt><trkpt lat="40.761771663112484" lon="8.569594257344473"><ele>220.0</ele><time>2026-05-01T08:34:15Z</time></trkpt><trkpt lat="40.76157618020798" lon="8.569523360169848"><ele>218.33333333333331</ele><time>2026-05-01T08:34:16Z</time></trkpt><trkpt lat="40.761378489553636" lon="8.569452013853947"><ele>216.66666666666669</ele><time>2026-05-01T08:34:17Z</time></trkpt><trkpt lat="40.761181966464385" lon="8.569381090428825"><ele>215.0</ele><time>2026-05-01T08:34:18Z</time></trkpt><trkpt lat="40.7609872240612" lon="8.569310835048569"><ele>214.0</ele><time>2026-05-01T08:34:19Z</time></trkpt><trkpt lat="40.760793501300824" lon="8.569241396147602"><ele>213.0</ele><time>2026-05-01T08:34:20Z</time></trkpt><trkpt lat="40.76059954675935" lon="8.569171874157043"><ele>212.0</ele><time>2026-05-01T08:34:21Z</time></trkpt><trkpt lat="40.76041461933517" lon="8.569105587904632"><ele>212.0</ele><time>2026-05-01T08:34:22Z</time></trkpt><trkpt lat="40.7602381872307" lon="8.569042334915428"><ele>212.0</ele><time>2026-05-01T08:34:23Z</time></trkpt><trkpt lat="40.760068609308085" lon="8.568981560779713"><ele>212.0</ele><time>2026-05-01T08:34:24Z</time></trkpt><trkpt lat="40.7599056326187" lon="8.56892334271189"><ele>212.33333333333334</ele><time>2026-05-01T08:34:25Z</time></trkpt><trkpt lat="40.75975007030892" lon="8.568867773023872"><ele>212.66666666666669</ele><time>2026-05-01T08:34:26Z</time></trkpt><trkpt lat="40.75960019791465" lon="8.56881423601694"><ele>213.0</ele><time>2026-05-01T08:34:27Z</time></trkpt><trkpt lat="40.75945730756429" lon="8.568763128689389"><ele>213.25</ele><time>2026-05-01T08:34:28Z</time></trkpt><trkpt lat="40.75932015754796" lon="8.56871090490034"><ele>213.5</ele><time>2026-05-01T08:34:29Z</time></trkpt><trkpt lat="40.759193314228995" lon="8.568649210775636"><ele>213.75</ele><time>2026-05-01T08:34:30Z</time></trkpt><trkpt lat="40.75906511421542" lon="8.56859335588894"><ele>214.0</ele><time>2026-05-01T08:34:31Z</time></trkpt><trkpt lat="40.75895321303553" lon="8.568464344795153"><ele>213.0</ele><time>2026-05-01T08:34:32Z</time></trkpt><trkpt lat="40.75882605706271" lon="8.568343698851622"><ele>212.0</ele><time>2026-05-01T08:34:33Z</time></trkpt><trkpt lat="40.758690905636584" lon="8.568207681080349"><ele>211.0</ele><time>2026-05-01T08:34:34Z</time></trkpt><trkpt lat="40.75855007709805" lon="8.568064669561691"><ele>210.33333333333331</ele><time>2026-05-01T08:34:35Z</time></trkpt><trkpt lat="40.75841046655204" lon="8.567922523103595"><ele>209.66666666666669</ele><time>2026-05-01T08:34:36Z</time></trkpt><trkpt lat="40.75827641529412" lon="8.567785925572426"><ele>209.0</ele><time>2026-05-01T08:34:37.001Z</time></trkpt><trkpt lat="40.758142745556036" lon="8.567649716905617"><ele>207.66666666666669</ele><time>2026-05-01T08:34:38.001Z</time></trkpt><trkpt lat="40.758014083252725" lon="8.56751861074244"><ele>206.33333333333331</ele><time>2026-05-01T08:34:39.001Z</time></trkpt><trkpt lat="40.75788530483694" lon="8.56739581588269"><ele>205.0</ele><time>2026-05-01T08:34:40.001Z</time></trkpt><trkpt lat="40.757742227883504" lon="8.567300159669381"><ele>203.66666666666666</ele><time>2026-05-01T08:34:41.001Z</time></trkpt><trkpt lat="40.75758581699286" lon="8.567221666095493"><ele>202.33333333333331</ele><time>2026-05-01T08:34:42.001Z</time></trkpt><trkpt lat="40.75742493953332" lon="8.567141895899816"><ele>201.0</ele><time>2026-05-01T08:34:43.001Z</time></trkpt><trkpt lat="40.75726798009963" lon="8.567064068395403"><ele>200.66666666666669</ele><time>2026-05-01T08:34:44.001Z</time></trkpt><trkpt lat="40.757117203116145" lon="8.566989053303077"><ele>200.33333333333334</ele><time>2026-05-01T08:34:45.001Z</time></trkpt><trkpt lat="40.75696795175843" lon="8.566914683802326"><ele>200.0</ele><time>2026-05-01T08:34:46.001Z</time></trkpt><trkpt lat="40.756824198859476" lon="8.566843166166569"><ele>198.66666666666669</ele><time>2026-05-01T08:34:47.001Z</time></trkpt><trkpt lat="40.756679200840416" lon="8.566771029146429"><ele>197.33333333333331</ele><time>2026-05-01T08:34:48.001Z</time></trkpt><trkpt lat="40.756539146364545" lon="8.5667003659669"><ele>196.0</ele><time>2026-05-01T08:34:49.001Z</time></trkpt><trkpt lat="40.75640626860398" lon="8.566624835873375"><ele>196.0</ele><time>2026-05-01T08:34:50.001Z</time></trkpt><trkpt lat="40.75628638331285" lon="8.566526685922588"><ele>196.0</ele><time>2026-05-01T08:34:51.001Z</time></trkpt><trkpt lat="40.75617598753336" lon="8.566416024076275"><ele>196.0</ele><time>2026-05-01T08:34:52.001Z</time></trkpt><trkpt lat="40.756083462266666" lon="8.566282480978474"><ele>196.0</ele><time>2026-05-01T08:34:53.001Z</time></trkpt><trkpt lat="40.75600744609468" lon="8.5661394120289"><ele>194.60000000000002</ele><time>2026-05-01T08:34:54.001Z</time></trkpt><trkpt lat="40.75594821147461" lon="8.565986573240794"><ele>193.2</ele><time>2026-05-01T08:34:55.001Z</time></trkpt><trkpt lat="40.7558787802859" lon="8.565862918380711"><ele>191.8</ele><time>2026-05-01T08:34:56.001Z</time></trkpt><trkpt lat="40.75581922125391" lon="8.565763276833357"><ele>190.39999999999998</ele><time>2026-05-01T08:34:57.001Z</time></trkpt><trkpt lat="40.75575037008628" lon="8.565679533765897"><ele>189.0</ele><time>2026-05-01T08:34:58.001Z</time></trkpt><trkpt lat="40.755650223923446" lon="8.565638096862672"><ele>189.0</ele><time>2026-05-01T08:34:59.001Z</time></trkpt><trkpt lat="40.755533576693225" lon="8.565640887319226"><ele>189.0</ele><time>2026-05-01T08:35:00.001Z</time></trkpt><trkpt lat="40.755412166918354" lon="8.56564986460442"><ele>189.0</ele><time>2026-05-01T08:35:01.001Z</time></trkpt><trkpt lat="40.75528584260095" lon="8.565659205253011"><ele>189.0</ele><time>2026-05-01T08:35:02.001Z</time></trkpt><trkpt lat="40.75515211873998" lon="8.565669093056947"><ele>187.0</ele><time>2026-05-01T08:35:03.001Z</time></trkpt><trkpt lat="40.7550070636519" lon="8.565679818709404"><ele>185.0</ele><time>2026-05-01T08:35:04.001Z</time></trkpt><trkpt lat="40.754858864658225" lon="8.565691931692616"><ele>183.0</ele><time>2026-05-01T08:35:05.001Z</time></trkpt><trkpt lat="40.75471441402744" lon="8.565703715581028"><ele>181.0</ele><time>2026-05-01T08:35:06.001Z</time></trkpt><trkpt lat="40.75456116229302" lon="8.565704318090118"><ele>181.0</ele><time>2026-05-01T08:35:07.001Z</time></trkpt><trkpt lat="40.75440126413405" lon="8.565688651435112"><ele>181.0</ele><time>2026-05-01T08:35:08.001Z</time></trkpt><trkpt lat="40.75424140152778" lon="8.565671644779618"><ele>181.0</ele><time>2026-05-01T08:35:09.001Z</time></trkpt><trkpt lat="40.75408958498558" lon="8.565683660866268"><ele>178.25</ele><time>2026-05-01T08:35:10.001Z</time></trkpt><trkpt lat="40.75394290970118" lon="8.565662966404137"><ele>175.5</ele><time>2026-05-01T08:35:11.001Z</time></trkpt><trkpt lat="40.75380896995823" lon="8.565639119267058"><ele>172.75</ele><time>2026-05-01T08:35:12.001Z</time></trkpt><trkpt lat="40.753687706155844" lon="8.565601446412016"><ele>170.0</ele><time>2026-05-01T08:35:13.001Z</time></trkpt><trkpt lat="40.75357855367661" lon="8.565512347048596"><ele>169.75</ele><time>2026-05-01T08:35:14.001Z</time></trkpt><trkpt lat="40.75347140798038" lon="8.56540038117192"><ele>169.5</ele><time>2026-05-01T08:35:15.001Z</time></trkpt><trkpt lat="40.75336171293101" lon="8.565271005738282"><ele>169.25</ele><time>2026-05-01T08:35:16.001Z</time></trkpt><trkpt lat="40.75325709201489" lon="8.565139282288394"><ele>169.0</ele><time>2026-05-01T08:35:17.001Z</time></trkpt><trkpt lat="40.75316524326487" lon="8.565006706766045"><ele>169.0</ele><time>2026-05-01T08:35:18.001Z</time></trkpt><trkpt lat="40.75308706708946" lon="8.564865659735085"><ele>169.0</ele><time>2026-05-01T08:35:19.001Z</time></trkpt><trkpt lat="40.753028881060814" lon="8.564713833161353"><ele>169.0</ele><time>2026-05-01T08:35:20.001Z</time></trkpt><trkpt lat="40.75298393883978" lon="8.564539757705113"><ele>169.0</ele><time>2026-05-01T08:35:21.001Z</time></trkpt><trkpt lat="40.752930587828594" lon="8.5643609132771"><ele>170.5</ele><time>2026-05-01T08:35:22.001Z</time></trkpt><trkpt lat="40.752902988527126" lon="8.564160047093706"><ele>172.0</ele><time>2026-05-01T08:35:23.001Z</time></trkpt><trkpt lat="40.75289028916427" lon="8.563967166600735"><ele>173.5</ele><time>2026-05-01T08:35:24.001Z</time></trkpt><trkpt lat="40.75288840100912" lon="8.563784510760833"><ele>175.0</ele><time>2026-05-01T08:35:25.001Z</time></trkpt><trkpt lat="40.75289214692418" lon="8.563599489110475"><ele>175.0</ele><time>2026-05-01T08:35:26.001Z</time></trkpt><trkpt lat="40.75288567574123" lon="8.563417311562652"><ele>175.0</ele><time>2026-05-01T08:35:27.001Z</time></trkpt><trkpt lat="40.75284193197876" lon="8.563258425275627"><ele>175.0</ele><time>2026-05-01T08:35:28.001Z</time></trkpt><trkpt lat="40.75277133482133" lon="8.563109164830935"><ele>175.0</ele><time>2026-05-01T08:35:29.002Z</time></trkpt><trkpt lat="40.75267304088027" lon="8.56297867372794"><ele>171.33333333333334</ele><time>2026-05-01T08:35:30.002Z</time></trkpt><trkpt lat="40.75256197198347" lon="8.562846169334367"><ele>167.66666666666666</ele><time>2026-05-01T08:35:31.002Z</time></trkpt><trkpt lat="40.75242753417929" lon="8.562712343823414"><ele>164.0</ele><time>2026-05-01T08:35:32.002Z</time></trkpt><trkpt lat="40.7522742875023" lon="8.56258146294466"><ele>164.0</ele><time>2026-05-01T08:35:33.002Z</time></trkpt><trkpt lat="40.75210935450417" lon="8.56245393104292"><ele>164.0</ele><time>2026-05-01T08:35:34.002Z</time></trkpt><trkpt lat="40.75191627822076" lon="8.56231894579487"><ele>164.0</ele><time>2026-05-01T08:35:35.002Z</time></trkpt><trkpt lat="40.751730584354796" lon="8.562176517858052"><ele>162.66666666666666</ele><time>2026-05-01T08:35:36.002Z</time></trkpt><trkpt lat="40.7515526011018" lon="8.562043341445117"><ele>161.33333333333334</ele><time>2026-05-01T08:35:37.002Z</time></trkpt><trkpt lat="40.751381922695124" lon="8.56190674152179"><ele>160.0</ele><time>2026-05-01T08:35:38.002Z</time></trkpt><trkpt lat="40.75122289772404" lon="8.561788706776271"><ele>160.0</ele><time>2026-05-01T08:35:39.002Z</time></trkpt><trkpt lat="40.75108090731513" lon="8.561690572163613"><ele>160.0</ele><time>2026-05-01T08:35:39.999Z</time></trkpt><trkpt lat="40.75093825121281" lon="8.56162149796783"><ele>160.0</ele><time>2026-05-01T08:35:40.999Z</time></trkpt><trkpt lat="40.750793667329475" lon="8.56159532716081"><ele>154.75</ele><time>2026-05-01T08:35:41.999Z</time></trkpt><trkpt lat="40.7506512921656" lon="8.561626688248237"><ele>149.5</ele><time>2026-05-01T08:35:42.999Z</time></trkpt><trkpt lat="40.750502899911424" lon="8.561672789221586"><ele>144.25</ele><time>2026-05-01T08:35:43.999Z</time></trkpt><trkpt lat="40.75035825831073" lon="8.561716569863629"><ele>139.0</ele><time>2026-05-01T08:35:44.999Z</time></trkpt><trkpt lat="40.750222789676336" lon="8.561745209823039"><ele>138.8</ele><time>2026-05-01T08:35:45.999Z</time></trkpt><trkpt lat="40.750100773469676" lon="8.561779240782567"><ele>138.60000000000002</ele><time>2026-05-01T08:35:46.999Z</time></trkpt><trkpt lat="40.749991791618015" lon="8.56178354581025"><ele>138.4</ele><time>2026-05-01T08:35:47.999Z</time></trkpt><trkpt lat="40.74990549471892" lon="8.561806582413023"><ele>138.20000000000002</ele><time>2026-05-01T08:35:48.999Z</time></trkpt><trkpt lat="40.74983548146545" lon="8.561766204670404"><ele>138.0</ele><time>2026-05-01T08:35:49.999Z</time></trkpt><trkpt lat="40.74978044749021" lon="8.5616918470015"><ele>138.0</ele><time>2026-05-01T08:35:50.999Z</time></trkpt><trkpt lat="40.749743782811514" lon="8.561575686407346"><ele>138.0</ele><time>2026-05-01T08:35:51.999Z</time></trkpt><trkpt lat="40.74973182275332" lon="8.561425466200324"><ele>138.0</ele><time>2026-05-01T08:35:52.999Z</time></trkpt><trkpt lat="40.74972880560574" lon="8.561243717765084"><ele>138.0</ele><time>2026-05-01T08:35:53.999Z</time></trkpt><trkpt lat="40.749719210894774" lon="8.561072403833396"><ele>138.66666666666666</ele><time>2026-05-01T08:35:54.999Z</time></trkpt><trkpt lat="40.749704477625954" lon="8.560878315181515"><ele>139.33333333333331</ele><time>2026-05-01T08:35:55.999Z</time></trkpt><trkpt lat="40.7497107226216" lon="8.5606581247436"><ele>140.0</ele><time>2026-05-01T08:35:56.999Z</time></trkpt><trkpt lat="40.74968482265352" lon="8.56043212995206"><ele>139.75</ele><time>2026-05-01T08:35:57.999Z</time></trkpt><trkpt lat="40.74967163680621" lon="8.560240006448238"><ele>139.5</ele><time>2026-05-01T08:35:59Z</time></trkpt><trkpt lat="40.74966358306653" lon="8.560062618241263"><ele>139.25</ele><time>2026-05-01T08:36:00Z</time></trkpt><trkpt lat="40.74965659991711" lon="8.55990226932545"><ele>139.0</ele><time>2026-05-01T08:36:01Z</time></trkpt><trkpt lat="40.749647822402245" lon="8.559760844680444"><ele>139.0</ele><time>2026-05-01T08:36:02Z</time></trkpt><trkpt lat="40.7496327263126" lon="8.559633709098696"><ele>139.0</ele><time>2026-05-01T08:36:03Z</time></trkpt><trkpt lat="40.74963195410957" lon="8.55951658949388"><ele>139.0</ele><time>2026-05-01T08:36:04Z</time></trkpt><trkpt lat="40.749608613872425" lon="8.55941832110578"><ele>139.0</ele><time>2026-05-01T08:36:05Z</time></trkpt><trkpt lat="40.74956196695121" lon="8.559329074775965"><ele>139.0</ele><time>2026-05-01T08:36:06Z</time></trkpt><trkpt lat="40.749477111159635" lon="8.55930227129617"><ele>139.0</ele><time>2026-05-01T08:36:07Z</time></trkpt><trkpt lat="40.74939832636848" lon="8.559272041493253"><ele>141.8</ele><time>2026-05-01T08:36:08Z</time></trkpt><trkpt lat="40.74930032111253" lon="8.559293343115192"><ele>144.60000000000002</ele><time>2026-05-01T08:36:09Z</time></trkpt><trkpt lat="40.7492126022735" lon="8.55934945049119"><ele>147.4</ele><time>2026-05-01T08:36:10Z</time></trkpt><trkpt lat="40.749135338503145" lon="8.559419945184954"><ele>150.20000000000002</ele><time>2026-05-01T08:36:11Z</time></trkpt><trkpt lat="40.749072013225295" lon="8.559512051127198"><ele>153.0</ele><time>2026-05-01T08:36:12Z</time></trkpt><trkpt lat="40.74900551084974" lon="8.55960580484602"><ele>156.66666666666666</ele><time>2026-05-01T08:36:13Z</time></trkpt><trkpt lat="40.74890938834612" lon="8.559710619036208"><ele>160.33333333333331</ele><time>2026-05-01T08:36:14Z</time></trkpt><trkpt lat="40.74880059535177" lon="8.559856727724789"><ele>164.0</ele><time>2026-05-01T08:36:15Z</time></trkpt><trkpt lat="40.74868088584161" lon="8.560017377710786"><ele>164.0</ele><time>2026-05-01T08:36:16Z</time></trkpt><trkpt lat="40.74855762237497" lon="8.560179311424216"><ele>164.0</ele><time>2026-05-01T08:36:17Z</time></trkpt><trkpt lat="40.74847068891016" lon="8.560322896149755"><ele>164.0</ele><time>2026-05-01T08:36:18Z</time></trkpt><trkpt lat="40.74838380210949" lon="8.560423836885853"><ele>164.0</ele><time>2026-05-01T08:36:19Z</time></trkpt><trkpt lat="40.74830267232111" lon="8.560493513134597"><ele>164.66666666666666</ele><time>2026-05-01T08:36:20Z</time></trkpt><trkpt lat="40.74820499371326" lon="8.560479754288727"><ele>165.33333333333331</ele><time>2026-05-01T08:36:21Z</time></trkpt><trkpt lat="40.748115207011445" lon="8.560460725974247"><ele>166.0</ele><time>2026-05-01T08:36:22Z</time></trkpt><trkpt lat="40.74804139250265" lon="8.560403386485664"><ele>166.66666666666666</ele><time>2026-05-01T08:36:23Z</time></trkpt><trkpt lat="40.74798241410645" lon="8.560338215297062"><ele>167.33333333333334</ele><time>2026-05-01T08:36:24Z</time></trkpt><trkpt lat="40.74797963579885" lon="8.560225167610641"><ele>168.0</ele><time>2026-05-01T08:36:25Z</time></trkpt><trkpt lat="40.74800426449775" lon="8.56010178306367"><ele>168.0</ele><time>2026-05-01T08:36:26Z</time></trkpt><trkpt lat="40.748056215789774" lon="8.559967813739958"><ele>168.0</ele><time>2026-05-01T08:36:27Z</time></trkpt><trkpt lat="40.74812786993386" lon="8.559821726299823"><ele>168.0</ele><time>2026-05-01T08:36:28Z</time></trkpt><trkpt lat="40.74816739229529" lon="8.55969191482503"><ele>168.0</ele><time>2026-05-01T08:36:29Z</time></trkpt><trkpt lat="40.74819656588993" lon="8.559561707062977"><ele>168.0</ele><time>2026-05-01T08:36:30Z</time></trkpt><trkpt lat="40.74820575320024" lon="8.559414225423993"><ele>168.0</ele><time>2026-05-01T08:36:31Z</time></trkpt><trkpt lat="40.748181974902714" lon="8.559283971654777"><ele>168.0</ele><time>2026-05-01T08:36:32Z</time></trkpt><trkpt lat="40.74814410104797" lon="8.559176586927608"><ele>168.0</ele><time>2026-05-01T08:36:33Z</time></trkpt><trkpt lat="40.74808518480254" lon="8.55908157560627"><ele>168.0</ele><time>2026-05-01T08:36:34.001Z</time></trkpt><trkpt lat="40.74799736115408" lon="8.559005524662924"><ele>168.0</ele><time>2026-05-01T08:36:35.001Z</time></trkpt><trkpt lat="40.74788663139749" lon="8.558953046305744"><ele>168.0</ele><time>2026-05-01T08:36:36.001Z</time></trkpt><trkpt lat="40.74776366376164" lon="8.558927835386086"><ele>168.0</ele><time>2026-05-01T08:36:37.001Z</time></trkpt><trkpt lat="40.74762642558308" lon="8.558930476211064"><ele>168.0</ele><time>2026-05-01T08:36:38.001Z</time></trkpt><trkpt lat="40.74747672790117" lon="8.558969666291238"><ele>172.0</ele><time>2026-05-01T08:36:39.001Z</time></trkpt><trkpt lat="40.747306452658115" lon="8.559032404029814"><ele>176.0</ele><time>2026-05-01T08:36:40.001Z</time></trkpt><trkpt lat="40.747131058436544" lon="8.559085584807915"><ele>180.0</ele><time>2026-05-01T08:36:41.001Z</time></trkpt><trkpt lat="40.746949811073414" lon="8.559131674569228"><ele>181.0</ele><time>2026-05-01T08:36:42.001Z</time></trkpt><trkpt lat="40.74677965444748" lon="8.559171759358344"><ele>182.0</ele><time>2026-05-01T08:36:43.001Z</time></trkpt><trkpt lat="40.74662431096518" lon="8.559215822240631"><ele>183.0</ele><time>2026-05-01T08:36:44.001Z</time></trkpt><trkpt lat="40.74648119438127" lon="8.559246011449835"><ele>183.0</ele><time>2026-05-01T08:36:45.001Z</time></trkpt><trkpt lat="40.74635469787226" lon="8.559281264721275"><ele>183.0</ele><time>2026-05-01T08:36:46.001Z</time></trkpt><trkpt lat="40.7462460426206" lon="8.559304809864251"><ele>183.0</ele><time>2026-05-01T08:36:47.001Z</time></trkpt><trkpt lat="40.74616481475018" lon="8.559319325699077"><ele>183.0</ele><time>2026-05-01T08:36:48.001Z</time></trkpt><trkpt lat="40.746101201417886" lon="8.559316313188669"><ele>183.0</ele><time>2026-05-01T08:36:50.001Z</time></trkpt><trkpt lat="40.745999918597924" lon="8.559286197886701"><ele>183.2</ele><time>2026-05-01T08:36:57.001Z</time></trkpt><trkpt lat="40.74591943913512" lon="8.559253807829196"><ele>183.4</ele><time>2026-05-01T08:36:58.001Z</time></trkpt><trkpt lat="40.74584698156908" lon="8.559250166476108"><ele>183.6</ele><time>2026-05-01T08:36:59.001Z</time></trkpt><trkpt lat="40.74576783659566" lon="8.559281418928116"><ele>183.79999999999998</ele><time>2026-05-01T08:37:00.001Z</time></trkpt><trkpt lat="40.74568546306947" lon="8.559361385981079"><ele>184.0</ele><time>2026-05-01T08:37:01.001Z</time></trkpt><trkpt lat="40.745594501609965" lon="8.55946729131122"><ele>184.0</ele><time>2026-05-01T08:37:02.001Z</time></trkpt><trkpt lat="40.745507380544915" lon="8.559536885212857"><ele>184.0</ele><time>2026-05-01T08:37:03.001Z</time></trkpt><trkpt lat="40.74540016905299" lon="8.55959217975532"><ele>184.0</ele><time>2026-05-01T08:37:04.001Z</time></trkpt><trkpt lat="40.74527205863758" lon="8.559631566215819"><ele>184.0</ele><time>2026-05-01T08:37:05.001Z</time></trkpt><trkpt lat="40.74511830563704" lon="8.55966517950728"><ele>184.0</ele><time>2026-05-01T08:37:06.001Z</time></trkpt><trkpt lat="40.74494939157658" lon="8.559711998041815"><ele>184.0</ele><time>2026-05-01T08:37:07.001Z</time></trkpt><trkpt lat="40.74478031896372" lon="8.559759800378584"><ele>184.0</ele><time>2026-05-01T08:37:08.001Z</time></trkpt><trkpt lat="40.744622252646124" lon="8.559801138695072"><ele>184.0</ele><time>2026-05-01T08:37:09.001Z</time></trkpt><trkpt lat="40.74447474406451" lon="8.55983697170892"><ele>184.0</ele><time>2026-05-01T08:37:10.001Z</time></trkpt><trkpt lat="40.74433667135415" lon="8.559871618033675"><ele>184.0</ele><time>2026-05-01T08:37:11.001Z</time></trkpt><trkpt lat="40.74421338034595" lon="8.5599004492147"><ele>184.0</ele><time>2026-05-01T08:37:12.001Z</time></trkpt><trkpt lat="40.744109718485646" lon="8.559918570041575"><ele>184.0</ele><time>2026-05-01T08:37:13.001Z</time></trkpt><trkpt lat="40.74402646024065" lon="8.559933774337571"><ele>184.0</ele><time>2026-05-01T08:37:14.001Z</time></trkpt><trkpt lat="40.74396062357181" lon="8.559949500486114"><ele>184.0</ele><time>2026-05-01T08:37:15.001Z</time></trkpt><trkpt lat="40.743885051017635" lon="8.559971799650498"><ele>184.0</ele><time>2026-05-01T08:37:17.001Z</time></trkpt></trkseg></trk></gpx>